GFSSW_sfc_thetae_000.txt.gz
Theta_e
314 314 315 314 314 315 316 317 317 317 317 317 317 317 317 317 316 308 300 308 312 330 336 327 322 320 318 311 312 310 300 296 298 299 301 304 303 307 310 306 306 310 309 312 316
312 311 312 313 313 313 313 314 315 316 317 317 317 317 317 317 309 304 313 325 329 336 323 320 315 316 308 309 310 306 299 300 305 305 304 304 305 308 306 308 305 306 310 313 314
313 313 312 311 311 311 312 313 313 314 316 317 317 316 317 315 300 297 325 324 330 331 316 320 319 315 307 307 307 306 303 307 308 309 307 307 307 309 307 306 310 306 309 310 311
314 314 313 313 313 312 311 311 313 314 314 315 315 316 317 308 287 301 337 338 338 324 310 316 315 308 304 304 309 301 307 309 309 310 308 306 308 309 310 309 313 312 311 311 310
312 313 313 313 313 313 313 312 311 313 313 313 314 316 309 299 295 303 324 318 321 317 307 307 311 308 302 304 307 303 306 309 309 308 309 309 307 308 309 314 314 312 308 308 310
312 312 312 312 312 313 313 313 312 311 311 313 313 315 305 292 305 303 309 305 306 314 309 305 305 311 304 304 304 306 307 308 308 309 310 308 308 310 312 315 312 310 308 308 310
312 311 311 311 311 312 313 313 313 312 311 311 313 310 302 298 310 311 309 303 302 310 309 309 307 304 301 297 301 301 298 300 302 304 304 308 303 305 312 311 307 307 308 307 310
311 312 311 311 311 311 312 313 313 312 312 311 312 306 295 308 310 308 309 306 307 301 306 313 312 304 298 300 298 295 295 291 299 303 304 304 297 306 310 307 307 307 308 307 307
311 312 311 311 311 311 312 312 312 312 312 310 305 301 293 309 304 308 308 302 303 299 299 306 308 301 298 296 293 291 289 290 294 301 300 302 298 305 306 305 305 306 306 307 306
311 311 311 310 311 311 311 310 309 309 307 307 305 294 299 295 303 305 307 306 299 296 296 297 298 295 292 292 287 287 288 291 292 297 299 297 297 303 306 305 304 305 305 305 305
310 311 311 310 310 311 307 297 294 296 300 293 294 294 296 303 307 304 303 302 299 296 290 294 292 290 293 296 295 293 291 290 293 298 298 296 297 300 304 302 302 304 306 306 306
311 311 310 310 311 310 301 292 299 298 290 298 298 299 302 303 296 301 304 294 294 290 293 294 290 295 298 297 295 293 290 290 295 300 298 297 296 300 302 303 303 305 306 306 304
311 310 310 310 310 299 294 297 304 300 290 294 297 296 297 300 296 295 302 296 293 290 292 289 292 298 297 295 293 292 291 291 291 298 299 296 294 297 302 303 303 304 305 304 304
311 310 310 310 299 295 296 299 304 303 284 286 291 295 298 297 292 300 303 298 292 289 291 290 295 295 296 295 296 291 297 296 295 294 287 296 285 294 297 300 301 302 302 303 304
310 310 310 309 300 296 298 300 302 299 272 286 291 301 299 292 294 294 301 299 293 289 291 288 292 292 293 296 299 294 300 297 297 293 288 291 287 292 295 296 300 301 303 302 302
310 310 309 302 299 299 301 300 297 281 273 285 292 290 289 294 295 297 297 299 300 291 291 291 295 295 295 298 299 299 295 294 292 289 284 290 289 288 293 297 299 301 302 304 304
310 309 306 305 293 298 299 294 279 274 287 284 286 289 288 288 290 292 291 290 289 286 285 289 289 294 296 292 296 295 289 281 279 279 282 292 288 292 297 299 301 302 302 304 306
308 306 304 303 299 300 294 286 274 281 282 289 288 287 286 289 288 290 290 287 292 290 288 284 282 290 296 293 291 293 291 282 278 280 285 291 287 293 300 303 303 303 302 304 306
305 298 297 298 301 300 288 278 277 282 287 285 286 283 285 287 287 288 287 289 291 292 286 286 286 294 296 297 296 292 287 293 287 289 284 287 292 298 300 301 301 301 303 303 305
299 297 293 301 302 300 286 279 282 288 288 287 280 284 280 283 284 284 286 292 290 294 294 288 284 292 294 296 297 292 295 286 287 279 279 286 288 291 295 297 300 301 301 303 306
292 286 294 302 301 292 281 281 285 289 290 286 284 283 283 283 285 283 285 292 290 290 294 288 287 288 292 290 289 288 288 287 289 285 282 281 286 295 298 299 300 301 301 303 307
293 280 295 300 289 286 282 286 290 288 290 288 288 286 284 286 284 284 284 287 291 291 287 291 285 284 288 292 296 295 291 290 286 283 287 286 287 298 299 298 299 301 303 304 307
289 288 294 297 281 281 285 285 288 287 287 286 285 287 287 285 282 285 286 291 292 290 289 290 284 281 284 288 290 291 292 293 288 287 286 286 288 300 301 301 300 301 303 306 307
290 281 285 289 290 286 284 282 283 290 288 288 286 286 285 285 287 285 286 290 293 292 298 291 285 284 283 285 289 287 291 292 289 284 286 290 290 295 300 299 301 303 304 306 307
286 282 286 282 280 284 285 282 282 283 288 288 285 286 285 283 284 285 288 290 291 294 292 286 281 287 289 292 291 291 291 291 289 291 288 289 291 294 298 301 302 303 305 307 308
285 288 288 287 288 285 283 280 283 284 286 285 284 286 285 283 284 283 287 288 287 291 289 287 281 285 286 292 293 290 291 292 292 292 292 292 292 298 301 305 304 305 306 307 308
296 296 291 287 284 283 283 284 284 286 287 289 287 284 283 286 290 290 291 293 291 289 288 284 283 282 279 287 289 285 291 291 292 294 294 291 296 298 302 305 305 305 307 308 309

GFSSW_sfc_thetae_003.txt.gz
Theta_e
312 312 312 312 312 312 312 313 314 315 316 317 318 317 317 317 317 309 300 308 314 328 334 326 324 321 316 314 319 317 308 303 304 305 308 312 311 314 316 315 315 315 318 321 322
313 313 312 313 313 312 311 312 312 314 314 315 317 317 317 317 310 305 314 322 327 331 323 316 312 317 315 315 315 313 307 306 311 311 310 312 312 314 314 314 314 317 320 319 320
313 314 314 314 314 314 313 313 312 312 313 313 315 315 317 316 300 299 332 328 324 335 318 317 314 315 311 314 314 312 307 311 312 313 313 312 313 316 313 311 315 315 318 321 321
312 312 312 312 313 313 314 314 313 313 312 313 313 314 316 310 293 313 321 328 338 320 312 310 313 311 307 308 313 307 312 312 313 314 313 311 314 312 315 315 319 319 320 320 319
312 312 312 312 312 312 313 313 314 313 313 311 313 313 310 301 299 306 317 316 318 319 308 309 311 309 305 308 310 309 311 313 314 315 314 314 312 313 313 317 319 320 320 319 319
311 312 312 312 311 311 311 312 313 313 313 313 311 313 304 292 309 311 311 310 306 314 309 307 310 312 308 309 308 310 311 311 313 313 314 311 311 313 314 318 318 319 319 319 319
311 311 311 311 311 312 312 312 312 313 313 312 312 308 300 297 309 311 310 309 308 305 306 309 309 310 310 306 312 311 307 310 311 311 311 310 305 306 313 315 315 316 318 318 319
311 311 311 311 311 311 312 312 312 312 313 313 313 306 296 308 311 309 311 309 311 310 307 307 312 307 305 307 303 301 302 297 304 306 307 306 300 308 313 313 313 315 315 315 318
310 311 311 311 311 311 311 312 311 311 312 312 305 302 293 308 303 309 310 305 307 308 307 305 309 307 304 300 298 299 295 296 299 306 305 306 302 308 312 311 311 313 314 315 316
311 311 312 311 311 311 311 310 309 310 309 308 305 296 298 296 304 306 310 309 304 301 300 300 302 299 300 298 291 294 294 297 297 302 303 302 302 307 309 309 310 312 314 314 315
310 311 311 311 311 310 308 303 300 299 300 296 296 295 297 302 305 301 307 305 304 299 294 298 295 293 296 299 300 299 298 297 301 303 300 300 301 304 308 309 309 310 312 314 317
310 310 310 310 310 310 304 298 298 298 291 298 298 298 301 302 295 298 304 298 297 293 297 294 292 298 300 299 297 297 296 296 299 300 300 300 299 304 307 308 309 311 312 314 316
311 311 310 310 310 303 300 299 305 304 291 294 298 297 298 300 295 295 301 298 294 293 294 293 295 298 297 296 295 296 295 295 295 299 301 299 297 301 306 309 310 311 313 315 315
310 310 310 310 302 301 298 303 305 304 286 287 292 296 298 298 292 301 301 298 295 292 294 294 299 296 295 295 297 292 299 298 296 295 291 301 290 299 303 304 307 309 312 314 316
310 310 310 309 301 297 300 305 305 300 273 288 293 303 299 294 296 297 302 298 293 293 295 292 294 295 293 295 299 295 300 298 298 296 296 296 293 297 303 301 305 309 310 315 316
310 309 308 304 303 303 305 304 301 284 273 285 292 291 290 293 295 298 296 299 299 295 295 295 299 297 297 299 300 301 299 299 299 296 289 294 294 293 298 301 304 309 312 313 315
309 307 305 304 297 304 305 299 283 276 287 284 286 289 288 289 291 293 292 290 288 288 288 292 293 297 298 296 300 300 297 288 286 287 286 296 293 295 302 304 306 308 313 313 316
308 306 304 305 306 306 301 289 275 281 283 289 288 288 284 289 289 290 289 289 292 293 292 287 285 293 298 297 296 297 296 290 284 286 289 296 290 294 306 308 308 311 313 313 316
306 303 302 305 305 304 293 279 279 282 286 286 286 283 284 287 287 287 287 290 292 293 289 289 289 296 298 299 299 296 293 299 292 294 290 294 298 303 307 307 310 310 310 313 316
299 298 300 306 306 300 289 281 284 289 289 288 281 284 281 283 285 285 284 291 289 294 295 292 289 295 296 299 299 297 300 291 292 284 283 289 292 296 304 306 308 310 311 313 316
298 293 302 303 304 291 283 284 286 291 291 286 284 283 284 283 286 284 284 288 290 291 294 294 292 293 295 294 293 294 294 295 296 293 287 285 290 305 307 310 310 311 313 314 315
297 288 300 304 290 288 284 286 290 289 292 289 289 287 285 286 284 284 284 286 292 291 288 295 293 289 292 298 300 298 296 296 290 289 292 292 293 307 309 310 310 310 312 314 317
291 289 300 301 283 283 286 286 288 288 288 288 287 288 289 286 282 286 287 291 292 291 290 294 291 287 289 294 297 295 297 298 298 298 291 287 293 307 310 310 310 311 311 314 316
292 285 292 296 292 285 283 284 284 291 289 290 288 290 288 286 289 285 287 290 292 292 297 295 290 290 288 291 295 292 294 297 297 292 292 293 296 301 305 309 310 311 313 315 316
293 288 290 284 286 286 285 284 284 284 289 290 287 287 285 283 285 286 288 290 292 293 293 292 286 289 292 293 296 294 294 294 294 295 291 296 296 300 306 308 311 313 314 315 315
291 289 292 289 289 286 286 284 284 286 286 285 286 287 287 283 284 283 287 288 287 291 291 293 287 289 289 293 295 293 295 295 295 295 295 297 297 305 308 310 311 312 313 314 315
298 298 292 288 286 285 285 285 285 288 289 290 289 287 286 288 291 292 292 292 292 290 290 290 289 288 287 291 293 290 295 296 296 297 297 294 300 305 305 309 313 314 314 316 317

GFSSW_sfc_thetae_006.txt.gz
Theta_e
315 315 314 314 314 314 313 313 313 313 314 315 316 317 317 318 318 315 305 312 316 331 333 326 324 323 320 316 320 322 311 308 310 310 312 318 315 319 321 319 321 322 321 324 326
313 313 314 314 315 315 314 314 314 313 313 313 314 315 316 317 314 310 321 321 328 330 314 319 316 319 317 317 318 317 311 310 315 317 315 317 317 318 317 318 318 320 324 326 326
313 313 313 313 313 313 313 314 315 314 313 313 313 314 316 316 307 306 323 332 329 327 312 317 316 315 312 316 317 316 311 316 316 318 319 317 317 319 316 314 317 318 321 324 325
312 312 313 312 312 312 312 313 313 314 314 313 312 313 315 313 296 317 320 324 332 326 314 312 314 310 309 308 315 312 316 317 318 318 318 316 318 316 317 318 321 322 323 323 323
310 311 312 312 312 312 312 312 313 313 313 314 313 312 311 304 303 314 323 322 313 319 312 312 311 311 309 311 311 312 314 317 317 318 317 318 315 316 317 320 322 322 323 323 324
311 312 312 312 312 312 312 313 313 312 312 313 313 312 307 296 310 313 314 313 312 313 314 313 310 314 313 312 310 312 313 314 316 316 317 315 315 316 317 319 320 321 321 321 322
311 311 312 312 312 312 312 312 312 313 313 313 313 311 304 301 310 312 311 311 312 310 310 312 314 313 314 310 315 312 308 311 312 314 313 315 311 311 317 318 318 318 319 320 322
311 311 312 312 312 312 312 312 312 312 312 313 313 309 299 308 312 309 311 311 312 313 310 311 312 310 312 314 311 308 309 304 311 313 314 313 305 313 317 316 315 317 317 318 320
311 312 311 312 311 312 312 312 312 312 312 312 309 305 298 310 304 308 311 307 309 311 312 310 308 307 307 302 302 305 300 303 307 313 311 309 306 313 316 316 315 316 316 317 319
311 311 312 311 311 311 311 311 311 311 312 312 308 299 302 297 304 308 310 311 307 307 306 305 304 302 303 301 295 299 300 302 303 309 309 306 307 311 315 315 313 314 315 316 318
311 311 311 312 311 310 309 308 304 303 303 299 298 299 299 304 305 303 306 307 307 304 298 302 297 296 300 303 304 303 303 303 306 309 307 306 306 309 313 313 312 313 314 316 318
310 310 310 311 311 311 309 301 301 302 294 300 300 300 302 303 297 301 306 299 301 297 300 299 295 301 303 304 302 302 301 302 306 308 307 305 304 309 310 311 313 314 314 316 319
311 310 310 310 310 309 304 303 308 307 294 296 299 298 300 302 298 299 302 299 297 297 298 296 298 302 301 301 300 300 300 300 300 305 307 304 301 304 309 311 312 314 316 318 318
310 310 310 309 305 307 302 306 308 308 288 290 294 299 301 301 296 304 304 299 298 295 297 297 302 301 300 299 301 297 302 301 300 299 295 304 294 303 306 308 310 312 315 316 318
310 309 308 308 305 302 304 308 308 304 277 290 295 306 301 296 297 299 305 301 293 296 298 295 298 298 298 299 302 299 302 301 301 299 299 299 295 300 306 305 308 312 315 318 318
309 309 307 307 305 306 308 308 304 287 277 287 294 293 293 295 295 298 300 303 300 294 298 298 303 301 301 303 303 304 301 301 301 299 292 297 297 298 302 306 309 312 313 316 319
309 308 307 308 301 308 308 302 286 279 289 286 288 292 291 290 291 294 293 294 292 287 288 296 297 301 302 300 303 302 299 293 291 291 291 300 297 299 307 309 310 311 314 319 322
308 306 305 309 309 308 304 292 278 283 284 290 289 290 286 289 290 291 291 290 296 293 291 289 289 297 301 300 298 299 299 293 287 289 293 300 295 300 308 311 313 314 314 317 322
306 311 310 309 309 307 295 283 283 285 288 287 288 285 286 288 288 289 289 289 295 296 288 290 292 300 301 302 303 299 297 303 296 297 294 298 301 307 311 312 312 313 316 318 323
304 304 304 309 310 300 288 284 287 291 291 290 284 286 283 285 286 288 287 289 289 296 298 294 291 299 299 302 303 303 304 295 297 289 288 293 295 297 305 308 311 312 315 320 323
304 298 305 310 307 298 286 286 289 293 293 289 287 286 286 286 287 287 284 289 290 293 297 297 295 296 299 297 297 299 299 300 300 297 291 290 293 306 306 310 312 315 319 321 322
300 293 305 308 294 293 287 289 292 292 294 292 292 289 287 288 287 286 286 289 292 295 290 297 296 292 295 300 303 302 300 301 294 293 295 294 295 310 312 314 315 315 319 322 323
295 296 306 305 286 285 288 289 291 291 291 291 289 291 292 289 285 288 290 293 293 292 291 297 294 290 293 297 300 299 300 301 302 302 296 292 296 309 314 315 316 316 319 321 322
297 291 296 300 295 289 287 287 288 293 291 292 291 292 290 288 290 287 288 292 294 292 295 297 295 294 291 294 298 296 298 300 301 296 296 296 298 304 310 311 314 317 320 321 322
297 292 294 289 290 290 289 288 285 286 291 293 289 289 288 285 287 285 287 289 293 293 295 294 292 295 297 297 298 298 298 299 298 300 296 298 299 303 309 310 314 318 320 320 321
294 291 294 292 292 290 289 288 287 289 289 289 288 289 290 287 288 285 288 289 288 294 294 297 293 296 293 297 297 296 298 299 300 300 300 300 301 308 311 312 313 316 319 320 320
299 301 294 291 289 287 288 288 289 291 292 293 292 290 289 291 294 295 296 295 293 291 291 292 292 293 290 296 296 293 298 299 300 302 302 298 303 310 310 311 314 317 319 320 322

GFSSW_sfc_thetae_009.txt.gz
Theta_e
314 314 314 314 314 314 314 315 316 315 315 314 314 315 316 316 317 315 312 317 321 329 333 328 326 325 323 319 318 320 311 308 310 311 313 318 317 321 323 320 322 323 323 326 328
313 313 314 313 313 313 313 314 314 315 316 315 314 314 315 316 313 310 322 325 331 333 314 317 319 320 317 317 317 314 311 311 316 317 316 318 319 319 319 319 319 321 325 327 328
311 312 313 313 313 313 313 313 313 314 314 315 314 314 314 315 309 309 326 328 331 327 313 314 320 320 315 317 317 315 310 316 318 319 319 319 318 320 318 316 320 319 322 325 326
311 311 313 313 313 313 313 313 313 314 313 314 314 314 314 313 298 318 321 324 327 325 318 311 311 315 312 311 316 312 316 317 318 319 318 317 319 318 319 319 323 323 324 325 324
312 312 312 313 313 313 313 313 313 313 313 313 314 314 311 305 306 317 324 324 318 317 318 311 309 312 311 313 314 312 314 317 318 319 319 320 317 317 318 322 324 324 324 324 324
311 311 312 313 313 313 314 313 313 313 313 313 313 313 309 298 313 314 314 315 315 315 316 314 312 314 313 314 313 315 315 315 316 316 318 316 316 318 319 322 322 322 322 323 324
311 312 312 312 313 312 313 313 313 313 312 313 314 312 305 302 311 312 312 311 313 313 311 315 317 313 314 311 316 315 311 314 314 315 314 316 312 313 319 321 320 320 321 322 323
312 312 312 312 312 312 312 313 313 312 313 313 313 311 302 310 312 308 310 309 311 313 313 315 316 314 312 315 313 310 311 305 312 314 314 314 306 314 319 318 317 319 320 321 322
312 312 311 312 312 312 312 312 312 312 313 314 311 307 299 312 306 309 310 305 308 311 313 313 312 308 310 306 304 308 302 305 308 314 313 311 308 315 319 318 317 319 320 319 321
312 312 312 311 311 312 312 311 312 312 312 314 311 303 305 300 304 308 311 308 306 308 308 307 307 303 303 303 296 300 302 304 304 310 312 310 309 314 317 316 316 317 318 319 320
311 311 311 311 311 311 310 310 307 305 309 303 301 301 302 305 307 304 306 305 307 305 300 305 300 297 300 303 305 305 304 304 307 312 309 308 309 312 315 315 315 316 318 319 319
311 310 311 311 311 311 311 303 303 304 296 303 302 302 304 305 298 301 306 299 300 297 301 300 297 302 304 304 303 303 302 303 307 310 308 308 308 312 314 314 315 316 316 317 319
311 310 310 310 310 309 306 305 310 308 296 298 301 300 301 303 299 300 303 300 296 295 298 296 300 304 302 302 301 302 301 302 303 308 309 307 305 308 312 313 314 315 316 317 318
311 311 310 309 305 307 304 308 310 309 290 292 296 299 302 303 298 306 306 302 297 293 297 299 302 301 301 299 301 298 305 305 304 303 298 307 297 305 309 310 312 314 316 317 319
310 310 310 308 306 303 306 310 310 305 278 293 295 307 302 298 299 300 307 303 294 294 295 294 298 299 299 300 303 301 306 305 304 302 301 301 298 302 308 306 309 313 315 317 319
310 309 308 309 309 308 310 309 304 287 279 289 296 294 295 297 297 299 301 305 302 296 296 296 302 302 301 303 304 305 303 304 304 302 295 300 299 299 304 307 310 314 316 317 319
309 308 307 310 303 311 310 303 286 281 291 287 289 293 292 291 293 294 293 294 294 289 289 293 296 302 304 300 304 304 301 294 292 293 293 302 299 301 308 310 311 312 314 318 321
308 306 307 310 312 310 306 292 281 287 287 292 291 291 288 291 291 291 292 290 294 294 292 288 286 296 302 301 299 301 301 295 289 291 295 302 296 302 311 313 314 315 316 322 324
306 311 306 310 312 310 299 284 284 288 291 289 290 287 288 290 291 290 290 289 294 295 290 290 289 299 301 303 303 300 298 304 299 301 297 300 303 309 311 312 313 314 316 317 324
307 306 306 311 313 305 295 286 288 292 293 292 285 289 285 287 288 289 289 293 292 295 298 295 289 297 301 303 303 302 305 297 300 292 291 297 298 299 306 309 311 313 316 321 325
307 301 307 311 310 298 289 289 291 294 294 290 288 288 288 287 288 288 288 292 294 294 298 297 294 295 299 298 297 300 299 301 302 300 294 292 296 307 308 310 312 314 318 323 325
304 295 307 310 295 297 291 292 293 293 295 293 293 292 289 289 288 289 288 291 295 296 292 298 294 292 295 302 304 303 302 302 297 296 299 298 298 312 312 313 316 317 321 324 325
300 300 308 305 290 289 293 292 293 292 292 291 290 292 294 290 286 290 291 293 296 293 290 295 292 287 293 299 301 299 302 304 304 305 298 295 298 310 313 315 316 318 322 323 324
300 295 301 302 297 291 290 291 289 295 293 293 292 293 291 289 292 287 289 291 294 294 296 295 293 291 290 295 299 297 300 303 303 299 299 299 301 308 311 312 316 320 322 322 324
302 296 297 292 293 291 292 291 289 289 294 295 292 290 290 287 289 286 289 292 294 296 293 294 290 292 294 300 299 299 300 301 301 302 299 301 301 305 311 313 314 321 322 322 322
297 294 298 293 294 291 292 291 289 291 292 290 290 292 292 289 289 288 291 292 290 294 292 296 291 293 290 296 299 297 300 301 301 303 303 303 303 309 312 314 318 319 320 321 321
304 301 298 293 292 290 291 290 290 292 294 294 293 293 291 293 296 297 297 296 294 292 291 292 294 290 286 296 298 295 299 301 302 304 304 300 307 312 312 314 315 317 321 321 322

GFSSW_sfc_thetae_012.txt.gz
Theta_e
313 313 313 313 314 314 314 314 314 314 315 316 316 316 316 315 316 312 308 315 321 331 330 321 327 326 327 325 324 316 305 304 308 309 311 317 315 319 323 320 321 322 322 324 328
312 312 313 313 314 314 314 314 314 314 314 314 315 316 316 316 310 308 318 333 335 335 314 314 319 321 318 316 319 313 306 306 313 315 313 316 317 318 318 318 319 321 325 326 327
311 312 313 313 313 314 314 314 314 314 314 314 314 315 316 315 307 308 327 332 333 328 313 314 315 319 314 315 314 313 307 311 314 317 318 317 317 320 317 316 319 319 322 325 325
312 312 313 313 313 314 314 314 314 314 314 314 314 314 315 311 297 314 328 325 327 316 312 309 308 306 310 311 315 309 313 314 315 317 316 316 319 317 317 318 322 323 325 325 324
312 312 313 313 313 314 313 313 314 314 313 313 313 314 310 300 302 315 331 326 316 316 314 311 307 305 304 310 313 310 312 314 316 317 317 318 316 316 316 321 323 323 324 324 324
312 312 312 312 313 313 314 314 314 314 313 313 313 313 307 295 311 313 314 313 313 312 312 315 312 310 307 308 309 314 313 313 315 315 316 313 314 315 317 321 321 322 323 323 324
313 313 312 312 312 313 314 313 313 313 312 313 314 311 303 300 310 311 310 310 311 312 309 313 315 311 310 306 311 311 309 312 313 314 314 316 311 312 317 319 319 320 321 323 324
313 312 313 312 313 313 313 313 312 312 313 313 314 310 298 308 310 308 309 308 309 309 309 312 313 310 309 311 308 306 307 303 310 312 314 313 304 314 319 317 317 319 320 322 323
312 312 311 311 311 312 312 312 313 313 314 314 310 306 298 313 305 309 309 305 306 308 309 311 310 307 308 303 301 304 300 302 306 312 312 311 307 314 318 317 317 319 320 320 321
312 312 312 311 311 312 311 311 312 313 313 314 312 302 306 302 306 308 311 309 305 305 304 304 304 300 302 300 294 297 299 302 303 309 311 308 308 313 317 317 317 317 319 319 320
311 312 311 311 312 311 309 310 303 302 307 303 304 303 304 306 307 304 306 304 303 302 297 301 297 295 298 301 301 302 301 300 305 309 308 308 309 311 315 315 315 317 317 318 320
311 311 311 311 311 310 308 304 303 304 295 302 302 302 304 304 298 301 306 298 297 293 299 297 295 301 302 302 301 300 299 300 305 307 307 307 307 312 314 315 316 316 318 319 319
311 311 311 311 310 308 306 305 309 307 295 297 300 300 301 302 298 298 302 299 294 292 294 294 296 302 301 299 299 299 298 299 299 304 307 306 304 308 312 315 316 317 318 318 318
310 310 310 310 305 307 303 308 309 308 289 292 295 299 301 302 297 304 305 301 296 292 293 294 299 298 299 298 300 296 302 301 301 300 296 306 296 307 309 311 313 315 316 317 320
310 310 310 308 307 304 306 310 309 304 277 294 296 306 303 298 300 300 307 302 294 295 294 291 293 295 295 298 301 298 303 302 302 300 300 300 297 302 308 306 309 313 316 317 319
309 310 309 310 309 309 310 309 305 286 278 290 296 294 295 297 298 300 301 304 302 297 296 294 298 296 298 301 301 304 301 301 301 300 294 300 298 299 303 306 310 314 315 318 319
309 308 307 310 304 311 310 303 286 280 292 287 288 292 292 291 293 294 294 294 292 288 289 293 293 296 298 296 301 300 299 292 290 291 291 301 298 301 308 310 311 312 313 317 323
307 306 311 311 311 310 305 293 279 286 286 292 291 291 289 291 291 291 291 289 294 294 290 287 287 293 298 296 296 298 299 293 286 288 292 300 295 300 311 313 315 314 316 320 324
305 312 310 311 312 310 298 285 283 287 290 289 290 288 288 290 291 291 290 289 292 295 288 287 289 298 297 299 299 297 294 301 296 298 294 299 303 308 311 311 313 313 315 323 325
305 307 307 312 313 306 294 287 289 292 292 291 285 287 284 288 287 288 289 293 292 296 297 292 286 295 299 298 300 299 302 294 297 289 290 295 299 299 306 308 311 312 316 323 326
306 301 309 311 311 301 289 289 291 294 294 290 288 287 288 287 289 288 288 293 295 294 296 294 290 290 297 295 293 297 296 298 301 298 292 292 296 308 307 309 311 313 320 324 325
305 296 309 310 296 298 291 292 294 293 296 293 292 291 288 289 288 288 288 290 294 297 291 295 291 288 291 299 299 301 298 299 295 294 298 298 298 314 313 312 315 318 322 324 326
301 301 309 307 291 291 294 292 294 293 294 292 291 293 293 289 286 290 290 295 295 294 291 292 291 286 289 295 300 297 299 301 303 303 298 294 297 313 312 313 316 320 322 324 325
302 294 299 301 299 293 290 290 290 295 294 294 293 294 292 290 292 288 290 293 295 294 296 295 289 288 286 291 295 295 297 300 301 296 299 299 301 306 311 313 316 321 322 323 324
303 296 299 291 293 293 293 292 290 289 294 295 292 291 290 287 288 288 291 293 294 296 294 291 287 290 290 292 293 295 298 299 300 302 298 301 301 307 312 314 317 322 322 322 323
297 296 298 294 296 293 293 291 290 291 292 291 290 292 292 289 290 288 291 291 290 295 293 294 286 291 288 290 292 292 298 299 301 302 303 303 303 312 317 319 318 320 320 320 322
304 304 297 295 294 292 292 292 292 294 294 295 294 292 291 293 296 297 297 296 295 293 291 291 291 289 284 290 290 290 298 300 301 305 305 300 307 314 313 314 317 320 321 321 322

GFSSW_sfc_thetae_015.txt.gz
Theta_e
312 313 313 313 314 314 314 314 314 315 315 315 315 316 316 316 316 308 304 311 317 326 331 322 321 319 323 321 322 314 296 294 299 302 306 314 312 317 319 317 319 320 319 321 324
312 313 313 313 313 314 314 314 314 314 314 315 315 315 316 316 308 304 314 327 329 336 316 309 307 316 316 316 318 314 300 299 305 306 307 311 312 314 315 314 315 319 323 325 325
312 312 313 313 313 313 313 314 314 314 314 314 314 314 315 314 303 304 332 329 327 331 313 312 310 310 312 312 311 311 307 309 309 309 311 311 312 316 314 311 315 314 319 322 322
312 313 313 313 313 313 313 314 314 314 314 314 314 314 315 308 290 309 330 331 329 318 310 307 304 298 298 304 311 305 309 311 311 312 311 309 313 313 314 313 317 318 318 319 318
313 313 313 312 313 313 313 314 314 314 313 313 313 313 308 298 298 308 332 329 317 311 306 304 300 298 296 299 305 307 309 310 312 312 312 313 311 312 313 317 318 318 318 317 317
312 312 312 312 312 312 313 314 314 313 313 313 313 313 303 291 306 307 308 312 312 309 308 307 304 305 301 299 300 303 308 310 311 310 311 310 311 312 313 316 316 316 315 316 317
313 313 312 312 312 312 313 313 312 313 312 313 313 310 301 297 306 306 305 303 304 305 305 308 309 308 305 300 304 303 300 303 307 309 309 312 307 308 314 315 314 314 315 316 316
312 312 312 312 312 312 313 312 312 312 312 313 314 307 295 306 307 305 305 303 305 305 304 305 305 302 300 303 303 300 300 295 302 305 308 309 301 309 313 313 312 314 316 316 316
312 312 311 311 312 312 312 312 313 313 314 314 307 302 294 311 304 306 306 302 303 304 303 306 302 298 300 296 294 296 292 294 298 305 305 305 302 308 312 312 311 313 314 315 316
312 311 312 312 311 312 311 311 311 313 311 311 309 300 302 300 306 307 308 307 304 301 300 298 295 294 294 293 287 291 293 296 296 302 304 303 302 307 310 311 311 312 313 314 315
311 311 311 311 311 310 308 302 299 298 303 298 299 301 302 308 311 304 307 303 301 298 291 295 289 288 292 295 297 296 296 295 299 304 302 301 302 305 309 309 309 309 309 312 312
310 310 311 311 311 310 305 299 300 298 291 299 299 299 302 304 298 301 304 296 294 289 293 291 288 293 297 297 297 296 293 293 298 303 301 300 300 305 307 307 308 309 310 311 312
310 310 311 311 310 306 301 302 307 303 291 294 298 298 298 300 296 296 300 297 292 289 289 287 292 298 296 295 294 294 293 293 294 299 300 298 296 300 305 307 310 311 310 311 312
309 309 310 310 304 304 300 305 305 304 283 289 296 298 299 298 293 301 302 297 293 289 290 288 293 294 294 293 295 290 298 298 297 295 289 298 288 297 301 304 307 309 310 310 312
309 309 310 308 301 301 303 307 305 298 274 293 295 306 301 295 298 299 303 298 292 292 291 287 289 289 289 293 297 293 300 297 297 294 292 294 290 293 301 300 303 306 308 309 310
308 309 309 307 303 305 306 306 302 285 276 288 294 292 291 294 296 298 299 301 300 293 293 292 296 293 291 294 296 298 296 296 295 292 286 292 292 293 296 300 304 306 309 310 313
308 308 306 307 300 306 304 299 284 277 290 286 287 291 291 290 292 293 292 292 288 286 286 292 293 294 296 290 293 293 290 283 283 284 284 293 291 294 300 304 306 306 307 313 320
307 306 307 309 307 305 300 289 276 285 286 290 289 291 287 290 290 291 290 286 291 291 285 284 283 292 297 291 288 288 290 284 278 281 285 294 288 293 304 307 308 309 307 319 321
306 306 305 307 308 305 293 283 280 286 290 288 288 285 285 288 289 289 288 288 291 292 286 285 285 295 295 296 293 288 285 294 287 290 287 290 294 299 303 304 307 308 310 317 320
301 301 303 308 308 301 289 285 288 292 292 290 283 287 282 285 286 286 286 292 290 294 295 289 282 291 293 295 295 292 293 286 288 281 280 288 291 293 300 302 305 306 313 316 320
300 298 305 308 307 296 282 286 290 293 294 290 287 285 286 286 286 285 287 291 292 292 292 291 286 286 291 289 288 290 287 289 289 288 284 283 289 302 304 303 303 305 316 316 319
300 293 305 305 292 292 285 290 294 292 295 293 292 289 287 288 286 286 286 290 295 293 287 291 287 284 286 293 296 294 291 290 285 286 289 288 290 304 304 303 309 313 317 318 321
295 298 306 303 284 286 291 290 292 292 292 291 289 292 290 288 284 288 289 294 295 293 291 290 284 280 283 288 293 292 295 293 291 292 288 287 290 304 306 307 316 316 318 319 320
297 291 296 298 295 290 288 289 289 295 291 292 290 291 289 287 289 287 289 293 295 294 297 294 286 283 279 286 290 288 291 294 292 288 290 292 294 301 304 307 314 316 318 319 320
298 292 294 286 289 291 291 290 289 288 293 293 290 290 288 285 286 285 289 291 294 296 294 291 285 287 288 291 290 289 289 290 290 293 290 294 296 301 306 309 314 316 318 318 319
295 293 295 292 293 291 292 289 289 291 291 290 288 291 291 286 287 285 288 288 288 292 292 292 285 288 286 291 290 288 290 290 291 294 295 296 297 306 314 315 315 316 317 318 319
300 301 297 293 291 289 289 291 291 292 293 294 293 290 290 292 295 293 294 293 292 290 288 289 285 286 283 289 288 284 287 290 293 296 297 294 301 311 310 312 312 314 317 318 319

GFSSW_sfc_thetae_021.txt.gz
Theta_e
312 312 312 313 313 313 313 314 314 314 314 315 315 315 315 315 315 307 299 305 310 321 329 314 323 319 314 309 318 306 294 292 296 298 301 307 310 315 316 313 313 316 316 319 322
312 312 313 313 313 313 313 313 313 314 314 314 314 314 314 314 306 301 308 317 323 327 312 306 303 314 305 308 313 309 295 295 300 302 301 305 306 313 314 313 311 312 318 320 320
312 312 312 313 313 313 313 313 313 314 313 313 313 313 313 312 296 296 329 326 325 324 319 311 308 305 300 309 310 308 304 306 304 304 307 307 307 307 308 306 310 309 313 316 316
312 312 313 313 313 313 313 313 313 313 313 313 313 313 313 305 281 298 326 321 320 315 314 308 305 300 295 296 306 304 310 312 312 315 314 312 311 310 308 308 312 314 315 315 315
312 312 312 312 312 312 313 313 313 313 313 313 312 311 306 295 295 301 314 310 305 313 310 307 300 297 292 294 298 299 305 309 311 309 309 313 311 310 310 313 314 314 315 314 314
312 311 312 312 312 312 313 313 313 312 312 312 312 311 300 289 302 304 304 303 301 299 297 305 299 299 296 295 297 297 298 301 302 303 306 306 307 309 310 314 313 314 313 313 312
311 311 311 311 312 311 313 312 312 312 312 313 312 308 299 295 305 304 302 300 301 300 296 299 305 300 297 294 299 298 294 297 298 298 299 303 300 302 309 313 311 312 313 313 311
310 311 310 311 311 311 312 312 312 313 314 314 312 305 295 306 305 304 304 302 303 302 300 301 300 296 294 298 297 294 294 291 298 300 301 301 295 306 309 310 310 310 310 311 312
310 311 310 310 310 311 312 312 312 314 314 314 304 300 294 309 304 307 306 300 300 301 300 304 298 293 294 291 288 290 287 288 292 299 299 300 297 304 307 307 306 308 309 310 310
309 310 310 310 311 311 311 311 311 310 312 311 308 296 298 294 300 303 305 304 299 298 296 295 292 288 286 287 284 287 288 291 291 296 298 296 297 302 304 304 303 305 306 308 309
309 309 310 310 311 311 307 300 295 293 295 293 294 294 296 300 303 300 303 300 299 295 288 290 285 284 288 290 290 290 289 289 293 297 296 295 296 299 301 303 303 305 306 307 306
309 309 309 311 311 310 302 296 297 297 288 297 297 298 301 302 295 298 303 293 291 286 289 286 284 288 291 291 290 289 287 287 292 296 294 293 293 297 300 301 303 304 305 305 306
309 308 309 310 309 302 297 299 302 298 287 292 297 297 298 298 294 294 298 295 290 287 286 283 287 292 291 289 288 287 287 288 288 293 295 293 291 293 298 300 302 303 303 304 305
308 309 309 308 301 299 297 303 301 297 280 288 293 297 299 298 293 301 301 295 290 286 286 285 289 288 286 286 289 284 290 292 292 289 284 292 283 291 295 296 299 300 300 302 305
308 308 309 308 298 297 301 301 301 293 272 290 293 301 298 294 296 297 303 296 288 288 286 284 286 285 285 287 289 286 292 291 290 287 286 288 283 289 293 292 296 299 301 303 304
308 308 308 302 297 301 303 300 295 280 271 286 292 291 290 292 294 297 296 300 297 290 288 287 292 289 288 290 291 291 289 289 288 286 279 286 286 287 290 293 295 299 300 303 303
308 308 305 304 296 301 299 293 279 274 287 285 286 290 288 287 289 292 291 290 287 283 282 287 288 291 292 287 290 288 281 276 276 277 279 288 286 288 293 296 297 297 299 301 302
307 306 302 304 301 300 293 285 275 283 284 290 289 288 284 287 287 290 289 286 292 289 285 283 280 289 295 290 285 283 283 277 274 276 279 288 283 288 296 299 301 301 301 301 309
305 297 297 301 303 298 288 276 276 285 289 287 288 283 283 286 287 287 286 287 290 290 284 283 282 293 293 294 291 285 280 285 279 282 278 283 288 294 297 298 299 299 300 306 315
295 294 297 302 301 294 285 282 284 291 291 290 282 286 280 283 283 284 285 291 289 292 291 286 280 289 291 292 292 287 289 280 278 275 275 281 284 286 291 295 297 298 298 307 315
294 292 299 302 299 289 278 282 288 293 293 289 286 284 284 284 284 283 286 290 292 291 290 286 283 284 289 286 283 285 283 284 282 280 277 277 281 292 293 295 296 300 299 312 317
290 287 300 298 287 283 279 287 293 291 294 292 290 287 285 286 284 284 285 289 294 292 286 288 283 280 283 289 291 290 285 285 278 278 281 281 283 295 294 296 301 302 307 315 320
291 289 299 297 279 278 285 289 292 291 291 291 289 290 288 285 282 286 288 293 293 290 286 287 281 277 278 284 289 286 288 287 287 284 280 279 283 295 296 297 306 310 312 318 320
293 285 288 289 288 283 284 286 287 294 292 293 290 290 288 286 287 284 286 291 293 292 297 292 282 280 275 280 285 283 288 289 286 280 283 284 286 291 294 296 300 311 314 319 320
290 285 288 282 285 287 286 287 287 287 293 292 289 289 288 285 285 284 286 289 292 295 292 288 280 285 284 286 286 286 286 287 286 287 283 286 287 291 294 298 301 312 316 318 319
287 286 293 287 288 286 286 288 288 289 289 288 288 290 289 286 286 285 288 288 287 288 290 290 281 285 283 287 287 285 287 287 288 289 288 288 288 297 299 304 311 314 317 317 318
290 291 291 288 287 288 287 288 289 291 291 293 292 289 287 289 293 292 293 292 292 288 288 287 285 283 278 285 285 283 287 287 289 290 289 286 293 298 298 304 311 313 317 318 319

GFSSW_sfc_thetae_024.txt.gz
Theta_e
312 312 312 312 313 313 313 313 313 314 314 314 314 314 314 314 314 306 298 302 310 321 324 311 320 318 313 311 313 303 294 291 295 297 299 305 304 311 315 312 312 314 313 316 319
312 312 312 313 313 313 313 313 313 313 313 313 313 313 313 313 304 299 306 313 317 322 310 304 300 312 302 304 312 301 293 294 299 302 301 303 303 306 307 308 310 312 314 317 319
312 312 313 313 313 313 313 313 313 313 313 313 313 313 313 310 290 290 322 323 317 317 313 311 309 306 303 306 306 307 301 299 301 303 304 304 305 308 307 304 308 310 311 314 314
311 312 312 312 312 312 313 313 313 314 313 313 313 312 311 303 281 293 320 316 315 312 310 307 302 299 295 299 308 302 309 309 307 310 312 310 313 311 310 309 312 312 313 312 312
310 311 312 311 311 312 312 312 313 313 313 312 312 312 303 292 291 302 313 308 303 301 309 305 298 298 292 294 298 303 305 310 312 311 311 312 310 311 311 315 315 314 314 312 312
310 310 310 311 311 311 312 313 313 313 312 313 312 311 299 287 300 304 304 303 299 297 295 302 300 299 295 293 296 296 298 300 303 305 305 306 307 307 310 313 312 313 312 313 312
309 309 310 310 311 311 312 313 313 313 314 313 312 309 298 293 304 305 304 302 301 301 295 297 301 300 295 293 297 296 293 294 296 297 299 302 300 302 308 310 309 310 312 312 312
309 309 310 310 310 311 312 312 312 314 315 313 313 305 292 304 305 304 303 301 303 302 300 299 298 294 295 296 295 293 293 289 297 297 300 302 296 304 308 308 308 310 310 310 310
309 309 309 310 311 311 312 312 313 313 314 313 302 298 292 307 303 306 304 300 301 300 300 302 296 292 292 289 287 288 287 286 291 297 297 298 296 302 306 306 304 304 306 307 309
309 310 309 310 311 311 311 311 311 310 311 310 307 294 295 294 299 302 304 302 299 297 294 293 290 287 285 287 282 285 285 289 289 294 296 294 295 299 303 303 302 303 304 305 306
309 309 309 310 310 310 306 298 294 293 295 291 293 293 295 299 303 300 302 299 297 294 286 289 284 282 287 289 289 288 287 287 291 295 293 293 294 297 299 299 300 302 303 305 306
309 309 309 309 309 309 299 295 296 296 289 296 296 296 299 299 295 297 302 292 291 286 288 285 282 287 290 290 288 287 285 285 290 294 292 291 291 294 296 297 298 300 302 302 303
308 308 308 309 309 301 296 298 300 296 286 291 295 296 297 296 293 294 296 294 290 286 286 282 286 291 289 287 286 285 285 286 287 291 293 291 290 292 297 298 299 300 301 302 303
309 307 307 308 299 297 296 301 300 297 280 286 291 295 297 296 292 300 301 295 290 285 286 284 288 287 285 286 287 282 289 289 290 287 282 290 282 290 294 295 297 298 299 301 300
308 308 307 307 296 296 299 300 298 291 271 289 291 299 297 291 293 296 302 295 288 288 287 283 285 284 283 285 288 285 290 288 288 284 282 285 282 288 291 290 293 297 298 299 301
307 307 307 301 298 299 301 297 294 279 270 285 292 290 289 291 291 296 296 299 297 290 289 287 290 288 286 289 289 290 287 287 286 283 277 283 283 284 287 291 295 296 297 299 299
308 307 304 303 295 299 297 291 278 272 286 284 286 289 288 286 288 291 289 289 287 283 282 286 286 290 291 285 288 286 280 275 274 275 276 285 283 286 290 294 295 296 298 299 300
307 304 303 303 300 299 291 283 274 282 283 290 288 288 283 286 286 288 286 286 291 289 285 282 278 287 293 287 283 283 281 275 274 274 277 286 281 285 294 296 297 298 297 298 298
304 297 296 299 302 295 287 276 276 282 288 287 287 283 282 285 285 285 283 285 289 290 283 283 282 292 292 293 289 283 280 284 278 279 276 281 285 291 295 295 296 296 297 297 298
294 294 296 301 299 293 284 282 283 290 290 289 282 284 280 282 282 282 282 289 289 292 291 286 280 289 292 292 293 286 287 278 276 274 274 279 281 283 289 291 295 296 297 298 306
292 291 298 300 297 288 278 281 286 292 292 288 285 284 284 283 283 282 283 288 292 290 290 287 283 284 288 285 282 286 281 282 279 278 276 276 279 290 291 293 294 301 310 300 312
290 287 298 297 286 281 278 286 292 291 294 292 290 287 285 285 283 283 283 287 293 290 285 288 283 279 282 288 290 287 284 283 278 277 278 278 279 292 292 294 296 298 311 311 319
292 290 297 294 277 277 284 288 290 290 290 290 289 290 289 284 282 285 286 292 291 289 285 286 281 277 278 283 287 284 286 285 284 282 279 277 280 292 293 295 297 298 311 317 318
293 283 287 288 286 282 285 287 286 293 291 292 289 290 287 287 288 285 285 290 291 291 296 291 281 279 274 279 283 281 285 287 285 279 280 281 284 290 292 293 296 302 312 318 320
288 284 287 280 282 283 287 288 287 287 292 291 288 289 288 285 285 285 286 288 291 293 290 288 282 282 284 285 285 284 284 285 283 285 281 284 285 290 291 294 296 308 315 317 319
283 283 286 283 285 284 286 285 287 289 289 287 287 289 290 286 287 284 287 288 287 290 288 287 283 283 282 285 285 283 285 286 286 286 286 287 287 295 297 297 300 311 316 317 319
291 288 287 284 282 280 282 286 287 289 291 292 291 289 288 290 293 292 293 292 291 290 287 287 282 280 276 284 284 278 284 285 286 288 287 284 290 295 295 298 301 310 316 317 319

GFSSW_sfc_thetae_027.txt.gz
Theta_e
312 312 313 313 313 313 313 313 314 314 314 314 314 314 314 314 314 306 298 302 311 322 322 307 306 315 319 317 316 310 301 298 299 299 301 309 308 315 317 316 317 319 320 322 326
311 311 312 312 312 312 312 313 313 314 314 314 314 313 313 313 306 300 307 316 319 322 311 304 300 311 311 311 316 308 302 301 304 304 304 307 308 310 310 312 312 316 318 321 324
311 312 312 312 312 312 312 312 313 313 313 314 313 312 312 311 296 296 325 317 318 318 310 309 310 304 302 307 311 310 302 306 306 305 307 306 306 309 309 309 313 313 316 319 320
311 311 311 311 311 312 312 312 313 313 313 313 312 312 313 305 286 304 316 315 314 307 309 310 305 302 300 300 308 305 309 309 308 307 305 304 308 308 311 312 317 319 321 320 319
310 310 311 311 311 312 312 313 313 314 313 313 312 313 305 297 295 303 313 310 307 305 301 307 301 300 298 301 303 305 307 311 312 313 311 314 312 312 314 318 320 320 319 319 319
310 310 311 311 311 311 312 313 313 313 313 314 313 312 301 292 302 306 307 308 305 304 301 301 305 301 299 300 300 304 305 307 311 313 314 311 311 313 314 317 316 317 317 318 319
310 310 310 311 311 311 312 313 313 313 315 313 313 309 299 297 306 308 308 307 306 304 300 302 301 304 300 296 302 301 298 301 302 307 309 311 306 308 313 314 313 313 315 317 319
309 310 310 310 311 311 312 313 313 314 315 314 313 306 297 306 310 308 309 306 307 306 303 304 301 297 299 302 299 296 297 293 301 301 303 304 298 307 311 311 310 312 314 316 318
308 310 309 310 311 311 312 312 313 313 315 314 307 303 296 309 303 306 309 302 304 304 303 303 299 295 297 294 293 295 291 293 296 303 302 301 300 307 311 311 311 313 314 314 315
309 310 309 309 310 311 311 311 312 314 313 310 308 298 300 297 302 304 307 306 301 300 298 296 295 293 293 292 286 289 290 293 294 299 300 299 300 305 308 308 308 310 311 311 313
308 309 309 308 310 310 308 305 300 299 300 295 296 295 297 302 305 302 305 301 300 298 291 294 289 286 291 293 294 293 292 292 296 300 299 298 299 302 305 306 306 307 308 310 311
308 309 308 308 309 309 305 300 300 301 293 299 299 298 300 301 296 300 303 295 294 291 293 291 286 291 293 293 292 292 290 290 294 297 296 298 297 301 303 303 305 306 307 308 310
307 308 308 308 308 305 302 302 305 302 293 294 297 296 299 300 295 296 300 296 292 290 291 288 290 292 291 290 290 291 290 291 290 294 297 296 294 298 302 304 305 306 308 309 310
307 307 308 307 303 303 301 305 306 303 287 288 293 296 299 299 293 300 303 298 293 289 290 289 293 290 290 289 291 287 292 292 292 291 288 296 286 295 299 300 302 304 306 308 309
307 308 307 306 302 301 303 306 303 299 275 290 293 302 299 294 295 296 303 298 291 291 292 288 288 288 288 289 291 288 293 291 291 289 289 290 287 292 298 297 300 303 305 307 309
308 308 307 304 302 304 305 303 300 285 275 286 293 292 292 293 293 296 296 300 299 293 293 291 296 292 290 291 291 293 291 291 291 289 282 288 288 290 294 296 299 302 304 307 309
308 307 305 304 301 305 303 299 285 278 288 285 287 291 290 288 289 291 290 290 289 285 285 289 290 293 293 288 292 290 287 281 280 281 280 290 287 290 297 299 300 302 304 307 309
307 303 306 306 307 306 299 290 279 283 285 291 290 290 286 289 289 289 288 286 292 289 287 283 282 289 293 290 288 289 287 282 276 278 282 288 284 290 299 302 303 304 307 308 310
304 304 304 306 306 302 295 284 282 285 289 288 289 285 285 288 288 288 287 286 290 291 284 283 283 293 294 294 293 289 285 290 284 286 283 286 289 295 298 300 302 305 308 310 318
300 301 303 305 305 301 292 285 287 290 292 291 284 287 283 286 285 286 286 290 289 293 293 287 282 290 292 294 295 291 293 284 285 278 277 284 286 289 295 298 301 303 307 312 318
300 299 304 303 303 297 287 287 289 293 293 289 287 286 287 286 286 285 285 289 292 291 293 290 286 285 290 287 286 286 288 288 288 286 281 282 287 297 298 299 299 302 305 317 315
297 294 303 303 294 289 289 289 292 292 295 292 293 290 288 287 286 286 285 289 294 294 288 292 288 283 285 291 293 290 288 290 284 283 285 284 285 299 299 300 301 301 304 319 322
293 293 303 301 288 288 289 289 291 291 291 291 290 291 292 288 284 287 288 293 294 292 290 292 286 280 282 288 291 287 289 290 290 289 285 282 286 298 299 299 301 302 305 319 320
295 290 294 295 292 288 286 287 287 293 292 293 291 292 290 287 290 287 288 292 294 293 296 294 288 284 279 282 287 285 287 289 288 285 285 286 288 293 296 297 300 303 308 319 320
292 290 292 286 287 286 287 288 287 287 293 293 289 290 289 285 286 286 289 290 292 294 294 291 284 286 287 287 288 287 286 287 286 288 284 288 289 292 296 299 301 304 306 315 319
289 289 292 288 288 288 288 287 287 289 289 287 287 289 290 287 288 285 288 288 287 292 291 291 285 287 284 287 287 284 287 288 288 288 288 289 289 296 299 301 301 303 305 314 319
294 293 292 289 287 286 287 287 287 288 290 293 290 289 288 291 293 294 295 293 292 289 289 289 287 285 280 285 285 281 286 288 289 291 290 286 291 296 297 299 301 305 308 310 322

GFSSW_sfc_thetae_033.txt.gz
Theta_e
313 313 313 314 313 314 314 314 314 315 315 316 316 316 316 316 315 315 308 313 314 324 322 311 312 311 318 317 321 321 309 306 307 306 308 314 312 316 321 320 324 327 326 330 335
312 313 313 313 313 313 314 314 315 315 315 316 316 316 315 315 314 309 317 318 319 322 311 309 308 310 310 313 316 314 310 309 313 313 311 313 312 313 315 317 319 324 327 329 334
312 312 313 313 313 313 314 314 315 316 316 316 316 316 315 316 309 312 325 318 319 319 311 311 310 309 306 312 312 314 310 314 314 315 315 313 312 314 313 314 320 321 324 326 327
311 312 312 312 313 313 313 314 315 316 316 316 316 316 316 315 297 310 317 317 320 316 309 310 308 305 304 304 313 307 313 315 316 316 316 313 315 313 314 314 321 325 327 327 327
311 311 311 312 312 312 313 314 315 315 315 316 316 317 315 308 302 310 314 319 314 311 307 305 305 306 303 305 307 309 311 313 315 315 316 316 313 313 314 318 319 321 324 324 325
310 311 311 311 312 312 313 314 314 314 315 316 317 315 313 302 310 312 313 312 312 310 308 307 304 308 305 305 304 307 308 309 312 312 314 313 313 314 315 319 319 319 320 322 323
310 310 310 311 311 312 312 313 313 313 315 317 318 315 309 303 312 314 314 311 312 310 306 309 308 305 306 304 308 306 302 305 308 310 310 315 309 310 317 320 319 319 321 323 325
311 311 310 311 311 311 312 313 313 313 316 317 315 316 306 310 314 311 312 310 312 312 310 310 310 306 303 304 303 302 302 297 305 308 309 308 303 312 317 317 317 319 321 322 325
310 311 310 310 311 311 312 312 312 315 316 316 315 312 303 311 306 309 311 307 309 310 310 310 308 303 303 296 295 298 295 298 300 306 306 306 304 311 315 316 317 318 320 321 323
310 310 310 310 310 311 311 311 315 314 316 317 313 306 307 300 306 308 311 309 306 306 305 305 303 299 299 295 288 292 294 297 297 303 304 303 304 308 311 312 315 317 319 320 321
310 310 309 309 310 311 311 314 308 309 309 302 302 301 302 307 309 305 308 306 306 303 298 302 297 295 297 298 298 296 294 295 300 304 302 302 304 306 310 311 311 314 317 319 322
310 309 309 310 310 311 312 307 306 307 299 306 304 303 305 306 300 303 307 300 300 296 299 297 294 298 299 298 296 295 293 294 298 302 303 302 302 306 309 310 312 313 314 316 319
310 310 309 310 310 311 310 308 313 312 300 301 302 301 302 303 300 300 303 301 298 295 296 293 296 299 297 296 294 294 292 293 294 299 302 301 299 303 307 309 311 313 314 316 317
310 310 309 309 307 311 310 312 314 312 295 296 298 301 302 303 298 304 304 301 298 294 296 295 298 296 295 294 295 290 296 295 294 294 290 301 291 300 305 306 308 311 313 314 316
310 310 309 307 313 310 310 315 314 310 286 295 297 305 303 299 299 300 304 301 295 294 295 292 294 294 293 295 296 293 296 295 294 292 294 294 292 297 304 302 306 309 311 313 315
310 310 308 310 315 312 314 314 310 294 283 292 297 296 297 299 298 300 299 303 301 295 296 296 299 298 297 298 297 297 294 294 294 292 286 292 292 294 298 302 306 310 311 313 314
309 308 307 314 310 314 315 308 294 288 295 291 293 296 296 295 295 296 295 294 291 287 288 293 294 297 300 294 297 295 291 283 282 283 283 294 291 295 302 305 307 308 311 312 315
308 306 310 314 316 315 311 300 288 292 292 297 295 296 293 294 294 294 294 291 294 293 290 286 285 292 298 295 293 292 291 284 277 279 284 292 287 293 304 307 309 309 310 312 314
306 315 314 316 316 314 304 293 292 293 294 293 295 292 292 294 294 294 292 292 293 295 288 287 287 295 297 298 297 293 288 295 287 288 283 287 292 298 303 305 306 308 310 313 316
309 310 312 315 316 310 300 293 295 296 296 296 290 293 289 292 291 291 291 294 292 295 297 292 286 294 295 297 297 295 297 286 288 280 278 286 288 292 297 301 305 307 309 312 321
309 303 311 315 311 304 294 295 295 298 298 294 293 292 291 291 292 291 291 295 296 295 297 294 291 290 294 292 291 290 288 291 291 287 282 282 287 300 301 303 304 307 310 319 325
307 300 312 309 297 301 295 294 294 296 299 297 296 294 293 293 290 290 290 294 298 298 291 295 292 287 289 295 298 296 292 291 283 285 289 287 287 301 306 307 308 307 310 319 325
301 303 311 307 294 296 298 296 296 295 297 295 293 295 296 291 288 293 294 298 298 296 293 296 290 284 287 292 295 291 293 294 293 291 286 283 286 301 307 307 308 307 310 322 325
302 296 302 302 303 297 296 295 293 298 297 297 295 296 294 292 295 292 293 295 296 295 298 297 291 287 283 287 288 285 290 293 292 285 287 288 289 294 301 304 306 307 308 312 326
304 298 298 294 296 296 296 297 293 292 296 296 295 294 293 290 292 291 294 294 295 297 296 292 286 288 290 292 292 290 290 290 289 290 286 289 289 292 297 302 305 306 307 309 320
298 296 299 296 298 294 295 293 294 294 295 294 292 295 294 289 290 289 292 294 292 294 293 294 286 289 287 291 292 289 291 291 291 292 291 291 290 297 301 304 304 305 306 307 313
300 299 296 294 295 294 292 292 292 295 297 297 295 294 294 296 298 300 300 299 298 294 289 289 288 287 284 290 290 286 290 291 292 294 293 289 294 299 299 301 303 305 306 307 310

GFSSW_sfc_thetae_036.txt.gz
Theta_e
313 313 313 314 314 314 314 315 315 316 317 317 317 318 317 317 316 314 309 311 314 326 322 310 310 310 311 309 317 316 308 305 306 306 308 313 311 316 317 315 320 324 326 330 335
313 313 313 314 313 313 314 314 315 316 317 317 318 318 318 317 312 310 318 319 321 323 309 307 306 309 306 307 310 310 307 308 312 312 311 313 313 314 313 313 315 321 327 331 333
312 312 312 313 313 313 314 314 315 316 317 317 318 318 318 317 311 310 324 316 321 319 313 310 308 307 304 307 306 308 306 312 314 315 315 313 313 316 312 309 314 317 324 327 331
311 312 312 312 313 313 313 314 315 316 316 316 317 317 318 314 298 312 318 318 324 317 312 307 305 303 301 302 306 303 308 311 313 316 315 313 316 313 314 313 317 320 324 327 326
311 312 311 311 312 313 313 314 314 315 315 316 317 317 314 311 306 312 322 320 315 313 308 306 302 303 301 303 305 302 305 310 312 313 314 315 314 314 314 318 319 319 321 326 325
311 312 312 312 312 312 313 313 313 314 314 315 317 318 312 304 311 313 313 313 312 310 307 308 305 305 302 302 303 305 305 306 308 312 313 311 312 314 316 319 318 319 319 322 325
311 311 311 311 312 312 313 313 313 314 314 316 318 315 309 307 311 313 313 310 311 310 306 309 309 304 303 300 305 305 301 304 305 307 307 310 306 309 317 318 317 318 319 320 323
311 311 311 311 311 312 312 313 313 313 315 317 318 313 307 311 312 310 310 309 311 311 310 310 309 305 302 304 301 298 300 296 302 304 306 306 299 308 315 316 316 317 319 320 322
312 312 311 310 311 312 312 312 312 315 317 317 313 313 304 312 307 309 310 306 308 309 310 310 307 302 301 296 294 295 290 294 298 305 304 303 301 308 312 313 314 316 319 320 322
312 311 311 311 310 311 311 311 314 313 315 317 314 305 309 303 306 307 310 309 305 306 305 304 302 298 298 295 287 291 292 294 294 299 302 301 301 307 310 311 311 314 315 318 321
312 311 310 311 311 311 311 314 308 307 312 305 303 303 303 306 309 306 308 305 305 304 297 301 297 294 297 298 298 296 294 293 296 300 299 300 302 305 307 309 310 312 315 316 318
310 310 311 311 311 311 310 308 306 307 299 306 306 305 305 306 300 304 307 300 299 295 299 296 293 298 300 299 297 295 293 292 296 299 298 298 298 304 307 308 310 312 313 315 318
310 311 311 311 311 310 312 308 312 312 300 302 304 302 303 304 300 301 304 301 297 295 295 293 295 299 297 296 294 294 292 293 292 296 297 296 295 299 305 308 310 311 314 315 316
310 310 311 310 307 312 311 313 314 313 294 297 298 301 303 303 299 305 305 300 297 294 295 294 297 296 295 293 295 290 296 295 293 291 287 296 288 298 302 304 307 310 311 313 316
310 310 310 308 310 309 310 314 313 309 286 297 298 306 303 299 300 301 305 300 294 294 294 291 293 293 292 294 297 293 298 295 294 291 290 291 288 293 301 301 305 308 312 313 313
310 310 310 312 311 315 313 314 311 295 285 293 298 297 297 300 300 301 301 304 302 296 296 295 299 297 296 297 298 298 295 294 293 290 284 289 289 290 295 300 304 309 311 313 314
309 309 308 313 308 314 314 309 293 289 297 293 294 297 296 295 297 297 296 295 292 288 288 293 293 298 299 294 297 296 291 283 281 282 282 291 289 292 298 302 304 306 309 312 315
307 307 311 310 315 314 309 299 288 294 294 298 296 296 293 297 295 295 294 292 296 293 288 285 284 293 297 294 291 291 290 283 276 279 282 290 285 291 300 304 306 308 310 312 314
306 315 313 315 316 312 302 291 292 294 296 294 295 293 293 295 295 294 294 293 294 294 287 286 286 295 296 296 295 292 288 294 286 288 283 287 290 296 300 300 303 306 309 311 313
306 310 311 317 316 308 298 293 295 298 297 296 290 293 289 292 292 292 292 296 294 297 298 292 285 293 294 296 297 294 296 287 288 279 277 283 285 287 295 297 301 304 308 311 314
308 306 313 316 311 303 294 295 296 298 298 294 293 292 292 291 293 291 291 295 297 297 298 295 290 290 294 291 290 292 290 289 289 287 280 279 284 295 299 300 301 304 309 311 315
307 299 313 311 297 301 296 297 297 297 299 298 297 294 292 293 291 291 290 294 299 297 291 296 291 286 288 294 296 294 292 291 285 283 286 285 285 299 299 298 297 306 309 314 321
303 303 312 310 296 296 298 298 298 296 297 296 294 296 297 293 289 292 293 298 298 296 293 295 289 283 285 290 294 291 293 291 290 291 285 282 285 300 295 296 297 300 308 309 323
304 297 303 304 303 298 295 294 295 299 297 297 296 297 295 293 295 292 293 297 298 296 298 296 290 286 282 285 289 286 289 292 290 286 287 286 288 293 292 295 298 302 308 308 321
305 299 301 295 296 297 297 295 294 293 298 298 295 295 293 290 292 290 294 295 297 299 295 292 287 289 289 290 290 289 288 290 289 290 286 287 288 292 294 296 299 301 305 308 320
298 296 298 296 298 297 296 294 293 295 295 293 293 295 295 292 293 291 293 294 294 297 295 295 285 289 287 290 290 288 291 291 291 291 290 290 289 296 299 300 300 302 305 305 313
303 302 296 294 297 296 294 293 293 295 296 297 296 294 293 295 299 300 300 301 299 294 290 288 287 287 284 290 289 285 289 290 291 292 291 287 293 297 296 299 301 304 305 305 307

GFSSW_sfc_thetae_039.txt.gz
Theta_e
313 313 313 313 314 314 314 314 315 316 316 317 318 318 318 318 318 310 304 311 313 324 324 307 305 306 306 303 305 310 299 297 301 303 305 311 309 315 314 310 312 317 324 327 333
312 313 313 313 313 313 314 314 315 315 316 317 318 318 318 318 310 307 318 324 325 324 307 303 302 304 299 300 301 301 298 300 306 309 308 311 311 312 311 311 309 315 326 329 331
312 312 313 312 313 313 313 314 314 315 316 317 317 317 318 317 306 305 325 326 324 319 311 308 305 301 297 299 300 301 298 305 308 311 313 312 312 314 311 307 308 309 322 326 328
312 312 313 313 313 313 313 314 314 315 315 316 316 317 318 312 295 311 325 327 326 318 311 307 300 293 293 294 300 296 301 305 306 309 309 308 313 311 312 312 315 314 316 321 325
312 312 312 312 312 313 313 313 314 314 314 315 316 317 312 305 306 312 328 326 317 312 309 304 298 294 291 295 297 296 299 302 305 307 308 309 307 309 311 315 318 317 315 314 321
312 312 312 312 312 312 313 313 313 313 314 315 316 318 309 300 307 311 317 311 311 306 302 303 299 301 295 294 293 297 299 301 303 302 306 306 307 309 311 315 316 317 314 314 320
313 312 312 312 312 312 313 313 313 313 314 315 316 314 304 301 308 306 307 302 305 307 304 305 305 300 298 294 298 298 294 297 299 301 301 304 301 306 312 313 312 314 315 314 315
312 312 311 312 312 312 312 313 312 313 314 317 317 309 300 314 309 306 305 304 307 306 306 306 306 300 296 298 297 293 293 286 293 300 301 300 293 302 308 310 310 313 315 316 315
312 311 311 311 311 312 312 312 312 313 315 318 309 305 302 313 305 307 305 304 306 305 306 308 303 297 297 291 287 289 285 286 290 296 298 297 295 302 306 307 307 309 311 315 316
311 311 311 311 312 312 311 312 313 313 313 312 312 301 306 303 304 307 307 308 303 303 302 301 296 292 290 288 280 284 286 289 288 292 295 293 295 301 304 304 304 307 310 314 315
311 311 310 311 312 311 308 306 302 301 304 303 305 305 304 304 307 305 308 304 302 299 292 296 289 287 291 294 294 292 290 289 293 296 293 292 293 296 299 302 303 305 306 311 314
310 311 311 311 312 311 305 301 302 301 295 304 304 303 306 304 299 303 308 298 296 290 294 290 286 293 297 296 294 293 290 289 293 295 294 292 292 296 298 299 300 304 306 307 311
310 310 311 312 311 307 304 308 307 306 294 299 305 302 302 301 298 299 303 299 294 291 291 287 291 296 294 292 291 290 289 289 289 294 295 291 289 292 296 299 302 303 306 307 309
310 310 310 310 306 307 305 308 308 307 288 296 298 300 302 301 297 305 304 299 294 290 291 289 293 293 291 290 292 287 293 292 291 288 283 291 281 289 293 295 299 301 302 303 306
309 309 310 309 302 303 305 307 308 303 281 297 297 304 301 297 298 300 305 299 292 292 291 288 290 290 290 292 295 291 296 293 292 289 285 286 282 287 292 292 294 299 302 303 305
308 309 308 308 305 307 311 308 305 290 282 292 297 296 294 297 298 301 299 300 299 293 293 291 296 294 294 297 296 297 293 291 290 287 280 284 283 284 288 292 295 298 301 304 307
307 307 306 308 303 311 309 303 289 285 298 292 292 295 294 293 295 297 294 291 287 284 284 289 289 294 298 292 295 292 286 278 276 278 278 286 284 285 291 295 297 297 299 302 304
306 306 308 308 307 309 305 295 283 294 293 296 294 294 291 295 295 295 292 288 294 290 283 281 280 290 295 291 287 288 288 280 275 275 278 287 281 285 294 297 299 301 300 301 303
305 307 308 311 312 308 297 286 288 293 295 292 293 290 290 294 293 292 290 290 293 294 285 283 285 294 295 295 294 290 284 291 284 285 279 282 287 292 295 296 298 298 299 300 302
301 304 308 314 312 303 292 291 294 296 295 294 287 292 287 289 289 289 290 294 293 296 295 289 283 292 293 295 294 290 293 282 284 275 275 281 283 283 292 292 295 296 297 300 302
301 301 308 313 307 296 288 292 296 299 297 293 291 290 290 289 289 288 289 293 296 295 295 291 288 287 291 288 286 287 286 286 285 283 275 274 279 294 291 293 294 295 298 300 302
301 295 309 307 291 295 291 297 297 297 299 296 296 293 291 291 289 288 288 292 298 296 290 293 287 282 285 292 294 291 289 287 282 279 282 280 281 294 294 295 296 296 299 302 304
296 300 308 305 289 290 295 295 297 297 296 294 293 294 293 289 286 291 292 297 298 295 291 291 285 280 282 287 292 288 289 290 288 287 281 280 282 295 296 296 297 297 300 302 303
299 293 300 301 299 293 291 292 292 299 297 297 295 294 292 290 292 290 290 295 297 296 298 296 289 284 279 283 287 285 288 289 287 283 282 283 287 291 293 295 297 299 299 300 301
300 295 295 290 291 293 294 293 292 291 297 296 292 292 291 286 288 288 291 293 295 300 296 293 286 287 288 289 290 288 288 288 286 287 283 286 287 291 294 295 298 299 300 299 300
293 291 293 290 294 293 294 290 290 292 291 290 290 292 291 287 288 287 291 291 289 295 293 294 285 289 287 289 289 287 289 289 288 288 288 289 288 295 297 298 298 298 299 299 300
300 298 295 290 291 290 290 291 291 293 295 295 293 290 290 292 295 296 296 295 295 292 289 287 287 285 281 288 288 283 288 289 290 292 290 286 291 294 295 296 296 297 299 299 302

GFSSW_sfc_thetae_042.txt.gz
Theta_e
313 313 313 313 313 313 314 314 314 315 316 317 317 318 318 318 317 310 302 310 313 323 324 309 304 303 303 301 303 304 294 293 301 303 305 310 307 312 315 310 312 315 322 326 331
313 313 313 313 313 313 313 314 314 315 315 316 317 317 317 318 310 306 314 325 325 324 307 302 301 303 296 298 298 296 294 297 303 306 306 308 309 311 311 311 311 312 325 330 330
312 313 313 313 313 313 313 314 314 314 315 315 316 316 317 317 305 307 324 328 327 324 310 307 304 300 293 296 296 295 294 303 305 307 308 308 308 311 308 307 310 309 313 326 329
313 313 313 313 313 313 313 313 314 314 315 314 315 316 318 311 292 310 328 328 328 318 309 306 300 292 290 291 296 292 297 299 302 306 306 305 308 306 308 308 313 315 315 320 326
313 313 313 313 313 313 313 313 314 314 314 314 315 316 310 302 306 313 330 329 322 313 308 304 295 292 287 291 294 292 296 298 300 301 305 307 305 305 306 311 314 316 316 313 324
312 312 312 312 312 312 313 313 313 313 313 314 315 317 307 295 311 310 322 314 312 306 301 300 296 297 293 291 291 293 295 295 297 298 299 300 303 305 307 311 312 313 314 313 315
312 312 312 312 311 312 313 313 312 312 313 314 316 314 303 297 310 306 310 303 302 304 301 303 302 299 295 293 295 295 291 293 295 296 297 301 298 300 305 308 310 312 313 313 313
311 312 312 311 311 312 312 312 312 312 313 314 317 309 297 310 309 307 301 302 304 304 303 304 304 298 294 295 295 290 289 284 290 294 298 298 292 300 304 303 304 307 310 312 314
312 312 312 311 311 311 311 311 312 314 315 315 307 302 300 315 304 305 304 303 303 304 303 307 301 296 295 289 285 285 281 284 287 293 294 294 292 300 302 302 302 305 306 308 311
312 312 312 311 311 311 310 311 311 312 312 313 310 300 303 302 302 305 305 305 301 300 299 299 294 290 288 286 280 282 283 286 285 290 291 290 290 294 298 298 299 302 304 306 308
312 311 311 311 311 311 307 303 296 298 302 301 304 303 306 305 305 303 306 303 301 296 289 293 286 284 288 290 292 290 288 287 290 294 290 290 291 293 295 296 296 297 300 303 306
311 311 311 311 311 311 304 299 300 299 292 302 303 302 305 305 297 301 306 296 295 288 292 288 284 290 293 292 290 289 287 286 290 294 292 290 291 294 294 294 295 297 298 300 303
310 310 310 310 309 306 301 306 308 303 292 298 302 302 302 302 297 298 301 297 292 289 289 285 289 294 292 289 290 289 286 288 288 292 292 290 288 291 295 295 297 298 299 300 301
309 309 309 309 304 301 301 306 304 302 287 294 296 299 300 299 295 302 303 297 292 288 289 287 292 291 289 289 292 286 293 292 291 288 281 289 280 288 291 292 293 295 296 297 300
308 309 309 308 299 297 305 306 304 301 279 298 296 303 300 295 297 299 303 297 290 290 289 287 289 288 287 291 294 289 295 292 291 287 284 286 280 286 289 289 292 294 296 297 299
308 308 308 304 301 302 306 304 303 289 281 291 296 295 293 295 296 299 298 299 297 291 290 289 294 291 292 295 295 295 291 289 287 284 279 284 282 284 286 288 292 294 296 299 299
308 307 306 306 298 303 303 301 289 285 297 291 291 294 292 292 294 296 295 289 286 282 282 287 287 293 297 290 292 289 283 276 275 274 276 285 282 285 289 292 294 296 298 299 302
306 306 305 307 303 303 300 292 283 292 290 295 293 293 290 293 292 293 291 287 291 289 283 280 280 289 295 289 285 284 287 278 273 274 277 286 279 284 292 296 298 299 299 300 301
305 301 303 306 307 302 294 284 285 291 293 291 292 289 290 292 291 290 289 288 291 291 284 282 284 293 294 294 291 287 283 290 283 284 280 281 285 289 296 296 297 297 298 298 299
296 299 302 309 307 298 290 288 291 298 296 294 287 291 287 288 288 287 287 293 292 294 291 288 281 291 293 294 293 288 290 280 281 275 275 279 281 282 289 292 294 294 295 297 299
297 297 305 306 301 294 285 289 294 298 297 293 290 289 288 287 287 286 288 292 295 293 292 288 285 286 289 287 285 284 283 285 285 283 276 274 278 290 291 292 292 293 295 296 298
294 292 305 301 289 289 288 294 296 296 299 295 294 292 289 289 287 286 287 291 297 295 289 290 285 281 285 292 293 290 286 285 276 277 281 278 280 293 292 293 293 294 296 298 300
292 293 303 300 283 285 290 293 295 294 296 293 292 292 292 287 284 289 291 297 297 293 289 290 283 281 282 286 291 288 289 289 286 285 278 278 280 294 295 295 295 294 297 299 301
293 288 292 294 292 288 287 290 290 298 296 294 292 292 290 288 289 287 288 294 295 296 299 296 289 285 280 284 288 285 287 289 287 281 281 282 283 289 292 294 295 295 298 298 300
292 288 289 284 286 287 288 290 290 289 293 292 290 291 288 283 286 285 289 290 294 298 295 293 286 288 288 289 289 288 287 288 286 286 281 284 284 288 291 293 295 298 301 301 300
288 286 288 286 288 288 289 287 289 291 290 289 287 290 289 284 286 284 287 288 287 292 289 294 286 288 284 288 288 286 289 289 288 288 287 287 285 292 294 296 296 298 300 299 300
294 293 291 287 285 284 285 287 288 291 291 293 290 288 288 290 293 293 293 293 292 289 286 288 286 285 280 286 285 282 288 290 290 291 288 283 288 296 295 297 297 297 298 298 299

GFSSW_sfc_thetae_045.txt.gz
Theta_e
313 313 313 313 313 313 314 314 314 314 315 315 316 317 317 317 317 308 301 305 312 322 322 308 304 303 301 298 302 304 295 294 301 303 304 309 306 311 314 310 312 313 315 321 337
313 313 313 313 313 313 313 313 314 314 315 315 315 316 316 317 309 305 315 320 324 324 305 299 298 302 295 296 298 296 292 295 303 307 305 306 306 307 307 306 309 311 316 318 333
313 313 314 313 313 313 313 313 314 314 314 314 315 315 316 316 304 307 325 325 328 322 309 306 303 299 291 294 295 294 293 301 304 305 306 305 306 308 306 304 307 308 311 315 324
313 313 313 313 312 312 313 313 313 314 314 314 314 315 317 309 291 309 326 330 327 317 308 304 298 290 288 289 295 290 295 297 299 302 302 301 304 303 304 305 310 311 313 314 312
312 312 313 312 312 312 312 312 312 313 313 313 314 315 309 299 303 315 331 327 319 313 305 301 294 290 287 289 292 289 293 296 297 297 298 301 301 302 303 307 310 311 313 312 312
311 311 311 312 312 312 312 312 312 312 313 313 314 316 304 289 308 311 318 314 314 307 300 300 295 296 291 291 290 292 292 294 294 296 296 297 299 301 303 307 307 308 309 312 311
312 312 312 312 311 312 311 311 311 311 313 313 315 313 302 294 307 307 313 305 305 306 300 301 300 296 294 291 293 294 289 291 293 295 296 299 295 297 303 306 304 305 307 310 311
313 312 312 312 312 311 311 311 311 312 313 314 316 308 295 307 308 309 302 302 302 303 301 301 301 296 293 294 293 288 287 282 289 292 296 296 290 298 302 302 303 304 306 308 310
313 313 312 312 312 311 311 311 312 313 314 314 305 300 297 314 305 305 302 301 301 302 301 305 300 294 293 287 284 285 279 282 286 291 291 292 289 296 298 298 298 300 302 305 306
311 312 311 311 311 311 310 311 310 311 313 313 309 298 301 301 304 304 303 303 300 299 298 297 292 289 286 285 279 282 281 284 285 290 289 289 290 293 296 296 296 297 298 300 303
311 311 310 310 310 311 306 300 295 294 303 296 301 301 303 306 306 301 304 301 299 294 287 290 285 283 287 288 289 288 286 285 289 293 289 289 290 292 294 294 294 295 296 298 300
310 310 310 310 310 310 303 299 300 298 292 300 300 302 306 304 298 301 304 295 293 287 290 286 283 289 292 290 289 287 285 285 289 294 291 289 289 292 293 293 294 295 295 297 298
309 309 309 309 309 303 299 302 306 300 291 296 301 300 300 301 297 297 299 295 291 287 287 284 287 292 290 288 289 287 286 287 287 291 291 288 287 289 292 293 295 295 296 296 297
308 308 309 308 302 298 300 305 303 300 286 294 296 300 300 297 294 301 301 296 291 287 287 286 290 289 287 287 290 283 291 291 290 286 280 289 279 287 290 290 292 293 293 294 295
308 308 308 307 297 297 303 303 302 301 278 297 295 301 298 293 295 297 301 295 290 289 288 286 287 287 285 288 292 287 293 290 289 285 282 284 279 285 288 289 290 292 293 294 296
308 308 307 303 299 302 304 301 301 288 281 291 296 295 294 293 294 297 297 297 295 289 288 288 292 289 288 294 293 294 289 287 285 282 275 282 282 282 286 288 289 293 297 300 300
308 308 306 305 298 301 301 299 286 281 295 290 290 294 291 291 293 295 292 288 285 281 281 286 286 292 295 288 290 287 281 275 274 274 275 284 281 283 288 290 293 295 297 298 299
306 306 305 305 301 302 298 291 282 291 288 294 293 292 289 292 291 293 290 286 291 287 282 279 280 288 293 288 284 283 282 276 271 274 276 284 278 283 291 295 297 298 298 298 298
304 300 301 304 306 299 293 283 284 290 294 291 292 289 289 291 290 289 288 287 291 289 283 281 283 292 293 293 290 285 281 286 279 280 275 279 284 288 293 294 295 295 297 295 296
295 298 301 306 302 298 289 288 290 296 295 293 286 289 285 287 286 285 286 292 291 293 290 286 280 289 291 292 292 287 289 281 281 275 273 278 280 281 286 289 293 293 293 294 296
296 296 303 301 300 294 284 287 293 296 297 292 288 286 287 286 286 285 287 290 294 292 291 288 284 285 288 286 284 284 281 283 282 281 275 274 278 286 288 292 291 293 294 294 295
292 291 303 300 289 286 286 292 295 294 297 294 292 290 288 288 285 285 285 289 295 293 287 289 284 280 285 291 293 290 286 285 278 276 278 279 279 293 292 292 292 293 295 296 297
293 291 302 298 281 283 288 292 293 292 293 292 290 291 290 286 282 288 289 295 295 292 288 289 283 281 281 284 290 288 289 289 287 285 279 277 279 292 292 293 294 293 296 297 298
292 286 290 291 289 286 286 288 289 296 293 292 291 291 288 286 287 285 287 292 293 292 299 294 288 285 279 283 287 285 287 289 287 282 280 281 283 288 291 291 293 294 295 296 298
289 286 287 282 284 285 285 289 288 287 292 290 288 289 287 282 284 284 287 288 291 295 292 292 285 287 288 288 288 287 286 287 286 287 283 284 284 287 290 291 292 296 297 297 299
287 285 287 285 286 285 286 285 286 289 289 288 286 289 287 283 285 284 285 285 285 289 289 293 283 287 284 287 287 285 287 288 288 288 287 287 286 292 294 296 297 297 299 297 299
291 291 292 285 284 282 283 285 286 288 290 292 289 286 286 288 291 291 292 291 290 287 285 286 288 285 280 285 284 281 288 289 289 291 289 283 289 293 291 292 293 294 299 300 302

GFSSW_sfc_thetae_051.txt.gz
Theta_e
313 313 314 314 313 313 313 312 312 314 314 315 315 315 316 316 316 310 307 311 315 318 320 307 305 305 304 303 307 312 303 299 302 303 305 311 308 312 314 311 313 315 315 316 326
313 313 313 313 313 313 313 313 313 312 314 314 315 315 315 316 311 307 317 318 322 322 307 303 302 303 301 301 304 304 299 300 306 308 308 310 309 308 308 308 308 312 315 316 316
314 314 314 313 313 313 313 313 312 313 313 313 314 314 315 316 306 306 324 323 324 318 311 309 307 302 299 301 301 300 298 303 305 307 308 308 306 308 305 304 309 307 310 313 314
314 314 314 314 313 313 313 313 312 312 312 312 313 314 315 312 296 312 328 326 326 314 309 307 302 298 297 296 298 296 298 299 303 302 301 303 302 302 304 305 308 309 310 312 314
313 314 314 313 313 313 313 313 312 311 311 311 312 313 312 300 302 315 329 325 318 311 306 304 300 298 295 297 298 296 297 299 300 300 301 301 300 301 301 305 307 309 311 312 314
313 313 313 312 312 312 312 312 311 311 310 311 312 313 307 292 306 313 320 317 313 309 305 306 302 302 298 297 297 298 298 298 299 300 300 299 300 300 303 306 305 307 308 310 312
312 311 310 310 311 311 311 312 311 310 311 312 312 312 303 296 308 311 313 311 312 309 304 306 305 301 300 296 299 297 294 296 297 298 297 300 296 297 302 304 304 306 308 309 310
311 311 310 310 310 311 311 311 310 311 311 313 313 311 297 305 310 312 311 309 309 310 307 305 306 302 300 300 296 294 292 290 296 296 297 298 291 298 300 301 301 303 305 306 308
311 311 310 310 310 311 310 310 312 313 313 314 310 305 301 315 309 308 310 303 304 304 305 305 304 299 298 295 292 292 289 289 292 297 297 296 293 299 301 300 300 302 303 305 307
311 310 309 309 309 309 310 311 312 315 314 314 310 301 306 303 309 308 307 304 302 301 300 300 299 297 295 293 286 286 288 289 289 294 296 294 294 298 299 299 299 300 302 303 305
309 309 309 309 309 309 308 306 303 300 307 299 300 300 302 307 307 304 305 303 301 299 294 295 293 290 291 293 292 291 290 288 292 295 294 293 293 296 299 299 299 300 302 303 304
309 309 309 309 309 310 307 304 303 303 297 301 302 302 305 306 299 303 306 298 297 292 294 292 289 294 294 293 292 291 289 289 292 295 294 292 291 295 297 298 300 301 302 302 303
308 308 309 309 309 305 304 305 307 304 297 298 301 300 301 304 299 300 302 299 295 292 292 289 291 294 292 291 290 291 289 289 288 292 294 292 290 292 296 299 300 302 303 303 303
308 309 309 308 304 303 304 307 306 305 294 295 297 300 302 302 297 304 304 300 295 292 291 291 293 292 291 290 291 287 293 292 290 288 284 292 283 290 293 295 297 300 302 303 304
308 309 309 307 304 304 306 307 306 306 282 297 296 305 302 297 297 298 302 299 294 292 292 290 291 291 290 291 293 289 294 292 291 289 288 288 285 289 293 292 295 298 300 302 304
308 308 308 306 305 307 306 306 307 293 282 291 297 296 296 297 297 300 299 300 297 293 293 292 295 293 292 293 295 295 292 291 289 288 282 286 285 287 290 292 295 298 300 302 304
307 307 307 306 303 306 306 305 293 287 295 290 291 294 294 293 295 296 294 293 290 287 287 290 290 294 296 292 294 292 289 282 281 281 280 288 285 288 293 296 297 298 301 303 305
307 306 307 307 309 308 306 298 286 290 290 296 294 293 291 293 293 293 292 290 294 291 288 286 284 291 296 293 290 290 289 283 275 278 281 288 282 289 295 298 300 302 304 305 306
305 307 308 310 309 305 301 291 290 291 293 292 293 289 290 292 292 292 290 290 292 294 287 286 285 293 294 295 294 289 286 290 285 286 282 285 289 293 296 297 298 299 301 303 305
304 306 308 307 306 305 298 291 293 296 295 294 287 290 287 289 289 289 289 292 292 295 295 290 284 292 294 295 295 292 294 285 287 278 277 283 285 286 291 294 296 297 300 302 304
304 303 308 305 306 301 293 291 294 298 297 294 291 289 289 288 290 289 289 292 295 294 295 293 289 288 291 290 289 289 288 288 287 286 279 279 284 294 294 295 296 298 300 302 303
301 297 307 305 297 292 293 292 295 295 298 295 295 292 291 291 289 289 288 291 297 296 291 294 290 285 287 294 295 293 290 290 283 282 285 284 283 296 296 297 298 298 300 302 303
296 297 306 304 293 291 292 292 294 293 294 293 292 293 294 290 287 290 291 295 296 294 292 294 288 283 284 289 292 290 291 292 291 288 283 280 284 297 297 297 299 299 301 302 303
296 292 295 296 293 290 288 289 291 296 294 294 292 293 292 289 292 289 289 293 294 294 296 296 291 286 281 285 290 287 289 291 289 282 284 285 287 292 295 296 298 300 300 301 303
292 290 290 286 289 289 289 289 288 289 293 294 291 290 288 286 287 287 290 291 293 296 295 295 286 289 289 289 289 289 289 290 288 288 283 287 288 292 295 297 298 298 300 300 300
292 291 292 289 289 288 288 288 288 289 289 289 289 290 290 286 288 286 289 289 289 293 294 296 286 289 286 289 289 287 289 290 290 290 290 290 289 296 298 299 297 297 298 298 299
296 296 293 287 287 287 287 288 288 289 290 291 291 289 287 289 292 294 294 294 293 291 291 291 289 285 281 288 288 284 289 290 291 292 292 287 293 298 296 296 297 297 298 298 299

GFSSW_sfc_thetae_054.txt.gz
Theta_e
315 315 314 314 315 314 314 314 314 314 314 315 315 316 316 316 316 315 311 314 316 320 319 310 309 309 310 309 313 315 308 305 306 306 308 313 311 316 318 315 317 318 318 321 322
315 315 315 315 315 314 314 314 314 313 313 314 314 315 315 316 314 311 319 319 323 321 310 307 305 307 306 307 309 309 306 306 311 312 311 313 313 312 311 313 314 316 321 321 322
314 315 315 315 315 315 314 314 314 313 313 313 313 314 315 316 311 308 324 322 323 322 314 310 308 306 303 306 307 307 304 309 310 312 313 312 312 314 309 308 313 314 315 317 318
314 314 314 314 314 314 314 314 314 313 313 312 312 314 314 315 299 314 327 325 325 316 313 309 306 302 302 301 306 301 306 308 308 311 308 308 312 309 309 308 312 313 314 314 316
313 314 313 312 312 312 313 313 313 312 312 311 311 313 314 305 303 318 329 325 317 313 308 307 304 302 300 301 302 301 303 304 306 306 307 308 306 306 308 310 309 311 312 313 315
313 312 311 311 311 312 312 312 312 311 311 311 312 312 311 297 312 318 321 317 313 311 308 308 305 305 302 301 300 302 302 303 304 304 305 303 304 305 307 309 308 309 310 312 314
312 311 311 311 311 311 312 312 312 311 311 311 312 314 306 301 313 316 319 314 313 310 306 308 308 304 304 300 303 302 298 301 302 303 302 304 300 301 307 308 307 307 311 312 313
312 311 311 310 311 311 311 311 311 311 311 312 313 313 302 309 314 314 316 313 313 312 310 309 309 305 303 304 301 299 298 295 300 300 301 300 295 301 305 305 305 306 306 310 312
310 311 310 310 310 311 311 311 313 314 313 314 314 310 302 315 310 312 314 306 307 309 309 308 307 304 303 299 297 297 293 294 296 301 300 300 297 303 305 305 304 305 306 307 310
310 310 310 310 310 310 310 311 315 316 315 316 314 306 308 304 310 311 312 308 305 305 304 304 303 300 300 297 291 293 293 294 294 299 299 298 298 302 304 304 304 304 306 306 307
309 310 310 310 310 309 311 314 309 308 311 304 304 303 305 309 312 307 308 306 305 303 297 301 297 294 297 297 296 295 293 293 296 299 297 297 298 300 303 304 304 305 306 306 307
309 310 309 310 310 310 313 309 307 308 302 307 306 306 308 309 302 305 309 302 300 296 298 296 293 298 298 296 295 294 293 293 296 298 297 296 296 300 302 302 304 305 305 306 307
309 309 310 310 310 311 312 308 313 311 303 302 304 303 305 307 301 302 306 303 299 296 296 294 295 297 296 295 293 294 293 293 292 295 297 296 295 297 300 301 303 305 307 307 307
308 309 309 309 308 314 311 313 314 312 299 297 300 303 305 306 300 306 307 303 299 295 296 295 298 295 294 293 294 291 295 293 293 292 289 296 287 295 299 299 301 302 304 306 307
308 309 309 307 315 311 311 315 314 310 287 298 299 309 305 301 300 301 306 303 297 297 296 294 295 294 293 294 296 293 295 294 294 293 293 293 289 295 297 296 298 301 302 304 307
308 309 308 312 317 312 315 314 313 298 286 294 299 298 299 300 300 302 302 304 302 298 298 296 301 297 297 297 297 297 295 295 296 293 286 292 290 292 295 297 298 301 303 304 306
307 308 309 313 310 317 315 311 297 290 298 294 295 297 297 297 298 300 299 298 295 291 292 295 295 298 298 295 298 296 293 287 285 286 286 292 289 293 297 299 300 301 303 305 307
307 306 310 316 317 317 312 303 290 294 294 298 297 297 294 297 298 297 297 295 299 297 293 290 287 294 298 296 294 294 293 287 280 283 287 292 287 294 299 301 303 304 305 306 308
305 317 317 317 316 315 305 294 294 295 296 295 297 293 294 296 295 295 295 294 296 298 291 289 289 296 297 298 297 293 290 295 288 290 286 290 294 299 301 300 301 301 303 305 307
312 314 315 314 315 311 302 294 296 299 298 297 292 294 291 293 293 293 293 295 294 298 299 294 288 295 296 298 298 296 297 288 290 282 281 288 290 291 296 297 299 300 302 304 306
312 307 313 314 313 306 297 296 298 301 300 296 295 294 294 293 294 293 292 295 296 296 299 296 293 292 295 293 292 293 291 292 292 290 283 283 289 298 297 299 299 301 303 304 306
310 300 313 314 301 303 297 297 295 298 300 298 298 296 295 295 293 293 292 295 298 298 293 295 292 288 290 296 298 296 294 293 287 286 289 287 287 300 301 301 301 302 304 306 307
300 305 313 310 298 295 297 296 296 296 297 296 296 297 298 295 291 293 294 298 298 297 294 298 291 286 288 293 296 293 295 296 295 293 288 285 289 301 301 302 303 303 305 306 306
300 296 301 305 301 294 292 292 293 298 297 298 297 298 296 294 296 292 292 296 298 297 296 297 293 288 284 288 292 290 292 293 291 286 288 289 291 296 299 300 302 304 305 305 305
299 296 296 292 295 294 294 292 291 291 296 298 295 294 293 291 292 291 294 295 296 297 297 297 289 291 292 292 292 291 291 291 290 292 286 291 292 296 299 301 302 304 305 304 304
296 294 298 294 293 293 291 292 290 292 292 291 291 293 294 291 291 290 292 293 291 295 295 297 288 291 289 291 291 289 291 292 292 294 294 294 293 301 302 303 302 301 302 302 303
302 302 297 293 291 291 292 291 290 292 293 294 294 292 290 292 295 296 297 296 296 293 292 291 290 288 285 290 290 286 291 293 295 296 295 291 296 301 300 299 300 299 301 301 302

GFSSW_sfc_thetae_057.txt.gz
Theta_e
316 316 316 316 316 316 316 315 315 315 315 314 315 315 316 316 316 315 313 316 318 321 318 312 312 311 313 312 315 316 307 304 307 309 311 316 314 317 319 317 318 320 319 322 324
315 315 316 316 315 315 315 315 315 314 315 314 315 315 315 316 314 311 319 326 321 320 314 310 307 309 308 309 312 310 305 306 311 313 313 316 315 316 314 315 316 317 321 323 324
314 315 315 315 314 314 314 314 315 315 315 314 314 314 315 316 312 312 325 323 325 323 317 313 310 309 305 309 309 310 305 310 311 313 315 314 315 317 315 311 314 315 318 321 321
314 314 314 313 313 313 313 314 314 315 314 313 313 313 314 315 303 317 326 324 325 322 314 312 308 305 304 303 309 305 309 311 311 313 313 311 315 314 315 316 317 317 318 318 318
313 314 313 312 312 312 313 313 314 313 313 312 312 313 315 309 306 323 328 325 320 315 311 310 307 305 302 305 307 305 308 310 311 311 311 313 310 311 312 316 317 314 314 315 317
313 313 313 312 312 312 312 312 313 312 312 312 312 313 314 303 315 321 319 317 315 312 311 310 308 308 305 304 304 307 306 307 309 308 310 307 308 309 311 315 313 313 312 315 317
312 311 310 311 312 312 312 313 312 311 312 312 313 315 311 306 313 318 319 315 314 311 308 310 310 307 307 303 307 305 301 304 305 306 306 308 303 304 310 312 311 312 313 314 316
312 312 311 312 312 312 312 312 312 313 313 313 314 316 307 311 315 314 316 314 314 313 311 311 310 308 306 308 304 301 301 297 303 304 305 304 297 305 310 310 309 310 311 312 315
311 311 311 311 311 311 311 311 314 315 314 314 315 315 307 312 309 314 315 309 310 311 311 310 308 305 306 300 299 300 295 297 299 303 302 302 299 305 309 308 307 309 310 311 313
311 311 311 311 311 311 311 311 315 314 315 317 317 308 311 304 311 311 314 311 307 307 306 305 305 301 301 299 293 296 297 298 297 302 302 300 301 304 307 307 307 308 309 310 311
310 311 311 311 311 311 312 317 313 313 314 309 307 307 308 311 313 310 312 308 307 305 300 304 299 296 299 302 301 299 298 297 300 303 299 300 301 303 306 307 306 307 308 309 311
309 310 310 310 311 311 313 311 309 311 304 310 307 308 309 310 304 307 311 303 303 298 302 299 296 300 302 300 298 297 296 296 299 301 300 299 299 303 305 305 307 307 308 309 311
308 309 310 311 311 312 315 311 316 315 306 304 306 305 307 309 304 305 308 305 301 299 299 296 299 300 298 298 296 296 295 296 296 299 300 298 296 299 303 306 307 308 309 310 310
309 310 311 310 307 317 313 315 317 316 300 301 302 305 307 307 302 309 309 305 301 298 299 298 302 297 297 296 297 293 299 297 295 294 291 299 290 298 301 301 303 305 307 308 310
309 309 310 309 318 313 314 317 317 315 291 301 302 311 308 303 303 304 309 305 299 299 299 296 298 296 295 297 299 295 299 297 296 294 294 295 292 296 302 300 302 304 305 307 309
308 309 310 315 318 315 317 317 316 300 290 298 302 300 301 302 303 304 304 307 306 300 301 299 303 300 299 300 300 300 297 297 297 295 288 294 293 294 298 300 302 304 305 306 308
307 308 309 317 313 319 318 313 299 293 302 297 298 300 300 300 301 302 301 300 297 294 294 298 298 301 301 296 300 298 295 288 287 288 287 296 293 296 300 302 302 302 304 307 309
306 306 312 317 319 319 314 305 293 297 297 301 300 300 297 300 300 300 299 297 301 299 295 291 289 298 301 297 294 295 295 289 282 285 288 295 290 296 303 305 304 305 307 308 309
304 318 318 322 319 317 307 297 297 299 299 297 299 296 297 299 298 299 298 297 299 300 293 292 292 300 301 301 298 294 291 297 290 292 288 291 295 300 303 303 303 305 305 306 308
311 315 315 321 320 314 304 297 300 302 301 300 294 297 294 297 296 297 296 298 296 299 302 296 289 298 300 301 300 297 299 289 291 282 281 288 291 292 298 301 303 302 304 306 308
314 308 317 321 318 308 299 300 301 303 302 298 296 296 297 296 297 296 295 298 299 298 300 298 293 293 297 296 294 294 292 293 293 290 285 285 288 300 299 301 301 303 305 306 307
311 302 318 318 303 306 299 300 296 299 302 300 300 299 297 297 296 295 294 297 301 300 294 297 296 289 292 298 300 297 295 294 288 286 290 290 290 301 302 304 304 303 306 308 309
304 305 316 310 299 298 300 298 299 298 299 298 298 300 301 297 293 295 296 301 300 299 295 298 293 287 288 294 297 295 296 296 296 296 290 287 290 303 303 303 305 304 305 307 308
304 299 305 306 304 298 297 296 295 299 298 299 299 300 298 296 298 293 295 297 300 299 300 299 293 289 285 288 290 288 292 296 295 291 291 291 293 298 300 301 303 305 306 306 308
306 301 301 295 297 298 298 297 295 294 299 300 297 297 295 292 293 292 294 295 298 301 298 297 289 291 292 293 293 292 292 293 292 294 289 292 293 297 300 301 303 305 306 307 307
298 297 300 298 300 297 295 296 294 295 295 293 293 295 296 293 293 291 293 294 293 297 296 298 289 292 289 293 293 291 292 293 293 294 293 293 293 299 302 303 303 304 305 305 306
303 305 300 299 299 295 296 295 293 295 296 296 295 294 293 295 297 298 299 298 297 294 294 293 292 289 286 290 291 288 292 293 294 296 295 291 297 301 301 302 304 305 305 304 305

GFSSW_sfc_thetae_060.txt.gz
Theta_e
316 316 316 316 316 316 315 315 315 316 315 316 316 316 316 316 316 313 309 318 321 326 317 309 311 312 312 309 313 313 304 301 303 305 309 315 313 316 318 315 316 319 318 321 324
315 315 316 315 314 313 314 314 315 316 315 315 315 315 315 315 312 308 322 328 327 323 309 307 306 308 306 307 309 307 302 302 307 309 309 313 314 315 314 313 314 317 320 322 323
314 314 315 314 313 313 313 313 314 315 315 315 314 315 315 314 308 309 329 330 327 322 314 316 311 308 304 307 307 307 303 307 308 310 311 310 312 316 313 312 315 315 318 321 321
314 314 314 314 313 312 313 313 313 314 314 314 314 314 315 313 302 314 328 329 326 318 317 311 309 304 302 302 307 303 307 309 309 311 310 309 312 312 314 315 319 319 320 319 318
312 312 313 312 312 312 313 313 313 314 314 314 314 314 314 308 307 318 330 325 317 316 312 310 307 306 301 303 305 303 305 308 310 310 311 311 309 310 312 318 319 319 319 317 317
311 311 311 311 312 312 313 313 312 313 313 313 313 313 311 302 318 318 316 315 314 313 310 310 308 309 305 304 303 306 306 307 308 309 310 307 308 310 311 315 315 315 315 315 314
312 311 311 312 312 312 313 312 312 313 313 314 314 313 309 307 312 319 316 315 314 312 308 311 310 307 306 303 307 305 301 304 305 306 306 308 304 305 311 312 310 312 314 314 315
311 311 311 312 312 312 312 313 313 313 314 314 314 312 306 316 317 314 317 314 315 314 311 312 311 306 305 307 304 301 301 295 302 304 305 305 298 306 310 310 309 310 312 313 314
310 311 311 312 312 312 313 312 312 316 316 315 312 311 307 314 307 313 314 311 312 312 312 311 308 303 304 299 297 299 293 295 298 304 303 302 298 304 308 307 308 310 311 311 313
311 311 311 311 312 312 312 312 315 314 314 314 315 309 312 308 308 312 315 313 307 307 306 305 303 299 300 297 291 294 295 297 297 302 302 300 299 303 306 307 306 308 309 310 311
310 310 311 311 312 312 311 316 312 311 315 309 309 308 309 311 314 310 312 309 307 304 298 303 298 294 298 300 300 299 297 296 300 304 301 300 300 302 305 307 306 307 309 310 312
310 310 310 311 312 312 311 313 309 311 303 311 312 308 311 312 305 307 312 303 302 297 301 299 295 301 302 301 300 298 296 295 299 302 301 300 299 302 304 305 307 309 309 310 312
310 310 311 312 312 311 315 312 316 315 304 308 308 306 307 308 304 305 308 304 300 299 299 296 299 302 300 298 297 296 295 295 295 299 301 299 296 298 302 305 307 308 310 311 312
309 310 311 310 309 316 314 317 317 317 299 303 302 305 307 308 302 310 310 305 301 297 299 298 302 300 297 296 297 293 299 298 296 295 290 298 289 297 301 302 305 306 308 309 310
309 309 310 309 314 314 314 317 317 314 289 303 303 312 308 303 304 304 310 305 298 299 300 296 297 297 295 296 299 295 300 297 296 293 293 293 290 294 300 299 302 304 305 307 309
308 308 309 314 315 319 318 317 316 299 290 299 303 301 301 303 303 305 304 307 305 300 300 299 303 301 299 300 300 301 297 296 296 293 286 291 291 292 296 300 302 304 305 306 307
307 307 307 314 312 319 318 312 298 293 304 298 299 301 300 299 301 302 300 299 296 293 294 298 298 301 302 297 299 297 294 286 285 286 285 294 292 295 301 303 304 303 305 307 309
306 305 311 314 318 319 314 304 292 299 300 304 301 300 297 300 300 300 299 297 301 299 295 291 289 299 303 299 296 295 293 286 280 283 286 295 288 295 303 305 305 305 306 306 308
304 316 316 319 322 317 307 296 296 299 302 299 298 295 296 300 299 299 298 297 299 301 293 291 292 301 301 302 300 295 290 295 289 290 287 290 295 301 303 303 304 304 305 306 308
305 315 315 323 321 313 302 296 300 305 303 301 294 297 293 297 296 297 296 300 298 301 302 296 289 297 298 301 301 297 299 289 290 282 280 286 289 290 298 300 302 303 304 306 308
308 310 318 322 317 306 297 300 302 305 302 298 296 295 295 295 296 295 295 299 301 300 301 298 294 293 296 294 293 295 292 293 293 290 283 282 287 299 300 301 301 302 305 306 307
308 303 318 316 299 303 301 301 299 300 302 300 300 298 297 297 295 295 294 296 301 301 295 296 291 289 291 297 299 297 294 295 287 286 289 288 288 301 303 302 303 304 305 306 308
302 306 317 312 298 298 301 299 300 299 299 298 298 299 300 296 292 295 296 301 301 300 295 297 290 285 287 293 297 293 294 294 294 296 289 286 289 302 301 303 303 302 304 307 309
304 298 306 306 304 300 297 296 296 301 299 300 299 299 298 296 298 294 294 298 300 299 299 299 293 289 283 286 290 287 291 293 292 288 289 290 292 297 299 299 301 302 304 307 308
306 301 303 295 298 299 299 297 295 295 300 300 296 296 294 291 293 292 295 295 298 300 299 297 289 291 291 291 291 290 291 292 290 291 289 291 292 296 300 301 302 305 305 305 306
300 297 301 299 302 299 298 296 296 296 295 293 293 295 296 293 293 291 293 293 293 297 297 298 289 292 289 292 292 290 292 292 293 293 292 294 294 300 301 303 303 304 304 304 305
304 303 299 297 299 298 297 295 294 295 296 297 296 295 293 295 298 298 299 298 297 294 294 293 292 289 284 290 290 287 291 293 293 295 293 290 295 300 299 300 302 304 304 304 304

GFSSW_sfc_thetae_063.txt.gz
Theta_e
315 315 315 315 315 314 314 314 314 315 316 316 316 316 316 316 316 309 304 311 314 325 322 311 306 304 307 303 305 305 296 294 297 300 303 309 307 309 312 310 313 316 316 319 320
314 314 314 314 314 314 313 313 313 314 314 316 315 315 315 315 308 305 315 329 329 327 308 304 300 302 300 300 300 298 295 296 302 303 303 306 306 308 310 309 310 313 318 320 320
313 313 313 313 314 313 313 313 313 313 314 315 315 315 315 313 303 305 333 328 328 325 308 308 310 304 296 298 298 299 295 301 303 305 306 305 306 309 308 306 310 311 315 318 317
313 313 313 313 312 312 312 313 313 314 314 315 314 315 315 309 296 310 332 331 329 315 311 311 307 297 294 293 298 295 301 303 304 307 307 305 307 306 308 312 316 318 317 317 313
312 312 312 311 312 312 313 313 313 313 313 314 314 314 310 303 303 319 331 329 316 312 310 309 302 299 293 296 297 296 299 303 305 306 306 307 306 305 305 316 318 316 317 314 312
311 311 311 312 312 312 312 312 312 312 312 313 314 314 307 297 313 318 319 314 312 309 307 304 301 302 298 297 294 298 299 300 302 301 302 303 304 303 306 311 313 314 312 312 311
311 311 311 311 312 312 312 312 312 312 313 313 314 312 304 302 314 314 313 309 310 310 306 307 306 301 300 296 300 300 295 297 299 299 299 302 299 301 306 308 307 308 308 311 311
311 310 311 311 312 312 312 313 313 313 314 314 314 309 300 313 312 311 311 310 312 311 309 308 307 301 297 299 299 295 295 288 295 299 300 298 293 301 305 305 305 307 307 308 309
311 310 311 311 311 312 313 313 313 315 317 315 307 304 301 314 306 310 311 310 310 310 308 310 303 297 298 292 289 290 286 289 293 299 299 297 295 301 305 304 302 303 305 307 306
311 311 310 311 311 312 312 312 313 314 313 313 311 302 309 308 307 308 310 311 308 305 303 301 297 292 290 288 283 287 287 291 292 297 298 296 296 300 302 302 300 301 303 305 306
310 311 311 312 312 312 310 309 305 305 309 304 308 306 309 309 310 307 311 308 306 301 293 297 290 287 291 294 295 294 292 292 295 299 297 294 294 297 300 299 298 300 301 302 304
310 310 310 312 312 312 307 306 306 304 298 309 311 311 313 309 304 307 311 301 299 293 296 293 289 296 299 299 297 295 293 291 295 298 296 294 295 297 299 299 299 300 301 302 303
310 310 310 311 311 307 306 312 313 309 297 303 308 308 306 306 302 303 305 302 298 294 295 291 295 300 299 296 295 292 291 291 291 295 296 293 291 294 298 299 301 302 302 304 303
309 309 309 309 307 310 308 314 310 312 291 300 302 303 305 305 301 308 308 302 298 294 295 293 298 297 296 295 294 289 296 295 294 290 284 293 282 290 295 297 299 301 302 301 303
309 309 309 308 305 305 312 311 311 308 284 302 302 308 305 301 303 303 309 303 296 296 295 292 295 295 294 296 297 292 298 294 294 289 286 288 283 287 294 294 297 299 301 302 302
308 308 308 309 307 310 314 312 308 294 287 299 301 300 298 300 301 304 302 304 302 296 296 295 300 298 296 299 299 299 296 293 291 286 280 286 285 287 290 294 297 299 300 301 301
308 307 304 308 304 311 313 306 291 287 304 298 298 300 298 297 299 299 298 295 291 287 288 294 296 299 302 296 296 295 287 281 279 279 279 289 288 288 294 298 299 299 299 300 301
306 305 307 307 310 312 309 297 285 296 298 304 300 298 294 296 297 298 298 294 298 297 293 288 287 297 301 297 294 293 291 282 275 278 282 291 286 290 301 303 302 300 299 301 300
305 308 309 313 313 313 301 289 291 297 301 298 298 294 293 297 296 296 296 296 298 298 291 288 288 298 300 300 299 293 287 294 286 286 281 285 290 296 299 301 300 300 300 299 300
300 304 311 318 318 308 296 293 295 302 302 298 291 295 290 292 292 293 292 298 297 299 299 294 287 295 297 298 298 295 297 287 287 279 276 283 286 287 296 298 300 299 299 299 300
302 304 314 318 314 302 290 294 299 304 301 297 293 291 292 292 293 292 293 296 299 298 297 293 290 290 294 291 289 290 290 291 289 287 278 277 283 295 296 298 297 299 301 297 299
299 296 315 314 296 296 294 299 299 298 301 298 298 296 293 294 292 291 291 295 301 299 292 294 290 285 289 295 296 294 291 289 284 283 285 282 283 298 298 300 301 300 302 303 302
294 300 314 310 291 292 297 297 298 297 297 297 295 297 296 292 288 293 294 299 300 297 293 296 288 279 282 288 294 289 291 293 290 289 284 281 282 299 300 300 301 300 302 303 304
296 297 301 302 301 295 294 295 294 300 298 299 297 296 293 291 292 289 291 297 300 298 302 297 287 284 279 283 289 285 290 291 288 283 285 286 288 293 297 297 300 301 303 303 303
300 297 299 292 293 295 297 296 294 294 297 296 293 292 290 286 289 288 292 293 295 301 296 292 284 287 289 291 290 289 289 290 287 289 285 287 288 292 294 297 300 302 303 303 303
297 294 294 292 296 295 296 295 293 293 293 291 291 294 292 287 289 287 289 289 289 292 290 292 282 289 286 290 290 288 291 291 291 290 289 291 289 296 297 298 298 299 300 300 302
299 300 294 293 294 293 294 294 293 295 295 295 293 291 290 292 294 293 292 292 292 289 287 287 285 283 279 288 287 282 290 291 292 294 292 286 290 296 295 297 296 297 298 298 300

GFSSW_sfc_thetae_066.txt.gz
Theta_e
314 314 314 315 315 315 314 313 314 314 314 315 315 315 315 315 315 307 301 306 312 321 324 310 308 304 302 299 303 302 292 291 294 296 299 306 303 308 310 308 312 316 315 318 318
314 313 313 313 313 313 313 313 314 313 314 314 315 315 314 315 307 303 311 322 325 329 313 306 301 299 295 298 298 295 289 293 298 300 300 303 303 304 305 306 308 312 316 318 317
313 313 313 312 312 312 312 312 313 313 314 314 314 314 314 313 302 305 328 323 330 330 307 304 303 305 295 294 296 294 293 297 299 302 304 303 304 305 303 302 306 309 313 314 312
312 312 312 312 312 312 312 313 314 314 313 313 313 313 314 308 290 308 333 327 329 317 307 308 305 297 291 291 294 291 297 298 300 303 303 302 305 304 305 306 312 314 315 312 311
311 311 311 312 312 312 313 313 313 313 313 312 312 313 308 301 301 311 333 331 321 310 308 306 302 296 292 293 293 291 295 298 301 302 302 304 303 304 305 309 313 314 315 313 310
311 311 311 311 312 312 312 312 312 311 312 312 313 314 304 294 306 317 320 318 311 306 303 304 301 299 296 294 292 296 296 297 298 298 298 299 301 301 304 309 314 314 312 313 311
312 311 311 312 312 312 312 312 311 312 313 313 313 311 303 298 311 316 313 308 308 308 305 307 303 299 296 294 296 297 292 295 295 295 297 299 296 299 304 307 306 307 306 310 311
312 311 311 311 312 312 312 313 313 313 314 313 313 308 296 310 309 307 310 309 309 309 307 307 304 298 294 296 296 292 291 285 292 296 298 296 291 299 302 303 304 305 306 308 310
312 311 311 311 311 312 313 313 313 314 317 314 306 302 297 316 311 312 309 308 309 309 307 309 301 296 296 289 286 287 283 286 290 295 295 294 293 299 301 301 301 301 303 305 304
311 311 311 311 312 312 312 313 312 312 314 313 310 299 305 307 305 308 307 310 306 304 302 300 295 291 288 286 280 284 285 288 288 295 294 292 293 297 300 300 301 299 299 302 304
310 311 310 311 311 312 308 305 302 303 305 301 304 303 307 312 308 304 307 307 305 299 291 294 288 285 289 291 292 291 289 288 292 295 293 292 292 295 298 298 297 296 298 300 302
310 309 310 310 310 310 304 302 307 301 295 307 308 306 311 312 305 305 309 300 298 292 294 290 286 293 295 295 294 292 290 289 293 296 293 292 291 294 297 296 297 298 299 299 299
310 310 310 310 310 306 303 308 314 308 296 301 306 306 307 309 304 302 305 301 296 292 292 288 292 298 296 293 292 292 289 289 289 294 293 291 289 291 296 298 298 298 299 300 301
310 309 309 309 304 304 304 311 308 307 290 297 302 304 305 303 299 307 307 301 296 293 292 290 295 294 293 293 294 287 293 293 292 288 283 292 280 287 292 294 296 297 297 298 300
309 309 309 307 298 300 308 310 310 305 283 303 300 306 303 299 301 302 307 300 294 294 293 291 292 292 291 293 296 291 295 293 293 287 283 286 281 285 291 291 293 296 297 298 300
309 309 308 305 301 305 309 308 304 292 285 300 300 298 296 298 300 302 301 302 301 294 293 292 296 295 294 299 298 298 294 291 288 284 279 284 284 285 287 290 292 297 299 300 299
308 307 305 305 299 305 305 303 289 285 303 298 299 299 295 294 297 297 296 293 290 285 286 294 293 298 301 295 297 295 287 279 278 276 279 288 286 287 292 297 298 299 301 300 300
306 306 305 305 301 304 304 296 284 294 297 302 298 298 294 295 295 296 294 291 295 295 289 287 284 296 300 297 294 293 292 283 275 275 280 289 282 288 298 300 301 298 298 297 298
305 301 304 307 305 307 298 287 288 296 300 296 296 292 292 294 294 294 291 292 296 297 290 289 288 299 299 300 298 293 287 294 286 287 280 282 287 294 297 299 299 300 298 295 297
298 300 305 312 310 303 293 290 294 300 300 299 290 294 288 290 291 290 290 297 296 298 296 292 285 294 296 299 299 295 295 284 285 278 276 280 283 285 293 295 299 299 300 300 300
298 298 310 315 309 298 288 291 297 302 299 296 292 291 291 290 291 289 291 295 297 296 296 291 287 288 292 290 289 290 289 287 286 285 279 277 280 291 293 296 297 299 301 298 300
294 290 308 309 296 294 290 297 297 297 299 297 296 294 292 292 290 289 290 293 299 297 290 291 287 282 287 293 296 294 291 288 281 279 285 281 281 294 294 298 300 299 301 302 303
294 293 307 306 291 290 294 296 298 296 296 296 295 296 294 289 286 292 292 297 299 296 292 292 283 277 280 286 292 288 291 292 288 287 281 281 284 297 298 297 299 300 302 304 304
291 292 298 299 298 292 292 294 294 301 297 295 294 294 291 289 290 287 290 295 298 297 302 296 285 282 277 282 284 284 288 290 287 280 282 285 287 292 295 295 298 299 301 302 304
294 293 292 288 291 292 294 294 292 291 295 294 292 293 290 285 287 286 290 291 294 301 296 289 283 285 287 289 289 288 287 288 287 286 282 286 286 290 295 295 295 298 301 301 302
295 289 292 289 293 294 295 293 292 293 291 291 289 292 290 285 287 285 288 287 287 289 286 289 280 286 285 289 288 286 288 289 290 290 288 290 288 296 296 297 296 295 296 296 300
296 297 292 290 291 292 293 293 293 294 293 293 292 290 289 291 293 291 291 290 290 286 285 284 282 280 279 286 286 281 289 290 291 293 291 286 290 294 292 294 293 293 295 295 297

GFSSW_sfc_thetae_069.txt.gz
Theta_e
314 313 313 313 313 313 312 313 313 313 314 314 314 314 314 313 314 305 299 303 308 317 321 309 308 304 301 298 300 301 291 287 292 294 298 303 300 306 308 306 308 310 313 316 316
313 313 313 312 312 312 312 313 313 313 313 314 314 314 313 313 306 301 310 316 321 327 311 305 302 299 293 296 297 295 289 291 297 299 298 300 300 302 303 304 304 307 314 314 313
312 312 312 313 313 313 313 313 313 313 314 313 313 313 313 312 298 301 322 321 322 322 312 305 302 302 293 294 294 294 292 295 297 300 301 301 301 303 301 299 302 303 310 312 310
312 312 312 312 312 313 313 313 313 313 313 313 312 312 314 306 284 304 334 325 324 321 305 303 302 297 291 290 294 290 295 296 298 300 299 299 303 302 302 303 306 309 311 311 309
312 312 311 311 312 312 312 313 313 312 312 311 311 312 306 297 298 306 330 324 321 309 304 303 300 296 291 291 291 290 293 296 298 298 298 300 299 300 302 306 308 309 311 311 309
311 312 311 311 312 312 312 312 311 311 311 312 312 312 302 289 301 310 319 319 311 304 302 304 301 300 294 292 291 294 294 295 296 295 296 296 298 298 302 306 306 308 311 311 310
312 311 311 311 311 312 312 312 311 312 312 312 311 310 302 295 308 314 313 308 306 306 303 305 304 297 294 292 294 295 291 293 293 293 294 296 294 296 300 304 305 307 310 308 311
312 311 311 311 312 312 312 313 313 313 313 314 312 306 294 305 307 306 308 307 308 307 305 306 302 297 293 294 294 290 289 285 290 294 296 294 290 297 301 301 302 304 304 305 307
312 312 310 311 312 313 312 312 313 314 315 313 304 300 296 313 310 312 307 306 307 307 306 309 300 294 293 288 285 285 282 284 288 292 293 293 290 296 299 298 299 301 302 304 304
313 312 311 311 311 312 312 312 312 312 314 312 309 298 303 305 309 308 308 309 305 303 299 299 293 289 287 285 279 282 283 286 286 290 291 291 291 294 297 297 297 297 301 302 302
313 312 311 310 311 311 307 303 301 299 304 299 301 301 303 308 311 302 305 304 302 298 291 292 287 284 288 289 290 288 286 286 290 294 290 291 291 292 295 295 295 296 296 298 299
312 312 311 311 310 310 305 300 305 301 297 305 306 303 307 309 304 308 306 297 296 291 292 289 285 291 293 292 291 289 287 287 291 294 291 290 290 292 294 295 295 295 295 297 298
312 311 311 311 310 304 302 305 310 306 295 300 305 304 305 307 303 304 303 299 294 291 290 287 291 295 294 291 290 289 287 288 288 292 292 289 287 289 294 295 297 297 296 297 298
311 311 310 310 303 302 302 309 307 305 291 297 299 303 305 304 298 308 306 300 294 291 291 289 294 292 290 290 291 285 292 291 290 287 282 289 281 286 290 292 294 295 295 295 297
310 311 310 309 296 299 306 305 304 304 283 303 300 306 301 298 300 301 305 299 293 292 291 289 291 290 289 290 295 290 295 292 291 286 282 284 280 284 288 289 291 294 296 297 296
310 310 309 304 301 302 306 304 304 291 284 299 299 296 295 297 298 301 300 301 299 293 291 291 295 293 292 297 298 298 292 289 285 283 278 283 282 284 287 289 291 293 295 298 299
309 308 306 305 295 302 304 301 289 284 300 296 296 297 294 293 295 297 295 292 290 284 285 292 293 297 299 294 296 296 287 278 277 277 279 285 282 287 291 293 295 296 298 299 301
308 306 304 305 302 305 304 295 283 292 295 300 296 295 292 293 293 295 293 289 294 291 288 286 285 294 299 296 292 291 292 284 278 275 279 286 281 287 294 298 299 299 298 296 296
305 298 300 307 306 304 298 287 286 294 298 295 295 290 290 292 292 292 289 291 294 294 287 286 287 297 298 298 296 290 287 293 287 287 282 282 286 292 295 296 296 298 299 298 297
298 296 301 309 307 303 294 289 293 299 299 296 289 292 287 289 290 289 288 295 295 297 294 290 283 293 295 296 295 292 293 282 286 278 277 280 281 283 289 291 296 296 296 297 299
293 291 302 310 308 299 289 290 296 300 298 294 292 291 291 290 290 289 290 293 296 295 294 290 286 286 290 288 286 288 288 289 287 285 279 276 279 288 291 293 294 296 299 298 298
292 290 301 305 296 292 290 294 297 298 299 296 296 294 292 292 289 289 289 292 298 296 290 290 285 281 285 291 294 290 288 288 279 281 284 283 280 295 294 295 296 296 300 301 301
292 290 301 303 287 287 293 295 298 296 296 295 293 294 293 289 285 291 291 296 297 295 291 291 282 276 279 283 288 287 289 289 286 284 280 278 279 297 298 296 296 296 299 300 303
290 287 292 295 293 289 290 292 293 298 295 294 293 294 291 289 289 287 289 294 295 296 301 294 283 281 277 281 283 282 286 288 285 280 280 283 284 290 292 295 298 296 297 297 301
295 289 288 284 290 290 295 294 293 291 295 294 291 292 290 285 287 285 289 290 293 300 294 288 282 284 285 287 287 287 286 287 284 285 281 285 285 288 292 293 295 294 296 295 296
290 290 291 287 288 290 294 293 293 293 292 290 288 291 290 285 287 285 287 286 286 288 287 287 280 285 284 288 287 285 287 288 290 289 288 288 287 293 294 294 294 294 294 294 295
293 297 293 292 291 290 291 294 294 293 294 294 292 290 289 290 292 292 291 289 289 287 284 283 282 279 278 285 285 280 288 290 289 292 290 285 289 292 291 292 292 293 294 294 295

GFSSW_sfc_thetae_072.txt.gz
Theta_e
313 313 313 313 313 313 313 313 313 313 313 313 314 314 314 313 312 304 298 302 307 317 319 306 306 303 300 297 298 297 289 286 291 294 298 301 300 304 307 304 305 307 306 312 314
313 312 313 313 312 313 313 313 313 314 314 313 313 313 312 312 304 300 309 315 319 321 307 301 301 297 293 295 296 293 287 290 295 297 297 299 299 300 300 302 301 303 307 312 315
313 312 312 312 313 313 313 313 313 313 314 313 313 312 312 311 296 295 320 320 319 320 309 305 301 299 290 293 294 292 289 294 295 298 299 298 297 301 298 299 300 301 304 309 311
313 312 312 312 312 313 313 313 313 313 313 312 311 311 312 306 287 299 331 326 321 317 305 300 299 295 292 290 294 290 294 296 297 298 299 298 300 299 300 301 304 305 306 308 309
313 313 312 311 312 312 312 313 312 312 311 311 311 311 304 294 295 303 327 323 318 308 300 301 298 294 291 290 291 289 293 295 296 295 295 298 297 298 299 303 305 305 306 307 309
313 312 312 312 312 312 312 311 311 311 311 312 311 310 300 286 297 310 318 315 311 303 301 301 300 299 292 291 291 293 292 294 294 294 294 295 296 297 299 303 303 304 305 305 308
314 313 312 312 312 312 313 312 313 312 312 313 311 309 299 292 306 305 315 308 307 305 301 303 303 297 293 290 293 293 289 292 292 293 294 295 293 294 299 301 299 301 303 308 309
314 314 313 312 312 312 313 313 312 312 312 314 311 305 293 303 305 307 308 305 305 305 304 304 301 295 291 293 292 288 287 283 289 292 295 294 289 295 298 299 300 302 303 304 306
314 313 313 312 312 312 312 312 313 313 314 313 304 297 296 312 307 311 306 304 305 305 304 308 300 292 292 286 283 284 280 281 286 291 292 291 288 295 297 297 297 298 300 302 302
314 313 313 313 312 311 311 311 314 313 314 311 309 296 301 303 308 309 307 306 304 302 298 296 291 288 285 285 278 280 280 283 284 290 290 289 289 293 296 295 295 295 297 299 301
314 313 313 312 312 311 306 302 299 297 304 299 299 298 301 306 310 302 307 304 301 297 290 291 286 283 287 288 288 287 285 284 288 292 289 288 289 291 294 294 293 293 294 296 299
313 313 313 312 312 310 305 299 302 302 295 304 305 303 305 306 301 305 304 296 295 290 291 288 285 289 291 290 289 288 285 285 289 292 289 288 288 291 292 293 294 294 295 294 295
312 312 312 312 310 305 301 304 307 304 295 299 304 303 303 304 300 301 300 297 293 290 289 286 289 294 292 289 288 287 285 286 286 290 290 288 287 288 292 293 296 296 296 296 297
311 311 311 310 303 301 301 307 305 304 290 295 298 303 305 304 299 307 304 299 294 291 290 288 292 291 288 288 289 284 290 290 289 286 281 287 281 286 288 291 293 295 294 294 296
310 311 311 309 298 297 304 305 303 303 282 300 299 305 302 299 298 299 303 298 292 291 290 288 289 288 288 289 294 290 294 292 291 286 281 283 280 283 287 287 290 293 294 295 295
310 310 310 303 300 301 304 304 304 292 283 298 298 295 295 295 296 299 299 300 298 292 290 290 293 291 291 295 296 297 292 289 284 282 278 284 281 285 288 287 290 292 294 297 298
309 309 306 304 297 301 301 302 290 285 298 294 295 297 292 291 293 295 293 290 289 283 284 289 291 295 298 292 294 292 286 279 277 275 279 284 281 286 291 292 292 293 295 297 297
308 306 304 303 301 301 303 295 283 290 294 299 296 295 291 293 293 294 292 289 293 289 285 284 282 293 298 293 288 288 287 279 272 276 280 287 280 286 293 296 296 297 297 298 298
306 298 297 302 304 301 296 288 286 293 296 294 295 291 290 292 291 292 288 290 293 293 285 285 286 296 297 297 294 288 284 288 284 286 281 282 286 292 293 295 296 296 297 297 298
298 293 298 305 304 300 291 287 293 299 298 295 289 292 288 289 289 288 288 294 293 295 292 288 282 291 294 294 294 290 292 284 286 277 273 280 281 284 289 292 295 294 296 296 298
293 293 300 302 304 296 286 291 295 300 298 294 291 290 291 290 289 288 289 293 296 294 293 289 285 285 289 287 285 286 285 286 288 285 278 277 280 290 292 294 293 295 296 296 298
293 290 300 304 297 288 286 292 297 298 299 297 295 294 292 291 289 289 289 291 297 296 289 289 285 281 284 289 291 288 286 284 276 273 279 275 279 295 296 296 295 296 296 296 297
289 289 298 299 290 287 290 294 297 296 296 294 292 293 292 290 286 290 291 296 297 294 291 291 282 277 279 282 286 285 288 287 284 282 279 274 279 295 296 295 296 294 294 295 296
291 287 290 291 290 288 289 291 292 299 297 295 292 293 291 289 290 287 288 293 294 295 300 294 282 281 277 279 282 281 285 286 283 274 280 280 283 288 292 293 293 293 294 295 295
293 287 287 283 286 288 289 293 291 292 296 296 291 290 288 284 287 286 288 289 291 300 293 288 282 283 284 285 285 285 285 285 282 284 281 284 284 288 291 292 292 293 294 294 295
288 287 290 288 291 288 293 291 292 294 292 291 290 291 290 285 287 285 286 285 285 289 288 286 280 283 283 287 286 284 286 286 287 288 288 288 286 293 295 294 293 292 293 293 293
294 294 292 291 291 290 291 293 293 293 294 295 293 290 289 291 293 291 290 289 288 286 283 283 282 279 278 283 283 279 285 289 288 290 290 284 287 290 289 290 290 291 292 293 293

GFSSW_sfc_thetae_078.txt.gz
Theta_e
316 315 314 314 313 314 314 314 314 314 314 315 315 315 314 314 313 312 306 311 313 320 315 314 312 310 312 310 312 312 303 300 301 302 303 308 307 313 315 312 314 316 316 319 322
316 315 315 314 313 313 314 314 314 314 314 315 315 314 313 312 310 307 318 313 319 319 311 309 307 309 306 307 308 306 301 301 305 306 304 307 308 309 309 310 311 313 317 320 320
316 316 315 314 313 313 313 313 314 314 314 314 313 313 312 313 307 308 321 319 319 321 313 309 311 308 304 307 306 305 302 305 305 306 307 307 307 309 307 306 310 310 313 317 318
316 316 315 315 314 313 313 314 313 313 313 312 312 311 312 312 299 310 331 326 323 316 311 310 309 305 303 302 306 300 304 305 306 306 306 304 307 306 307 308 311 312 314 315 315
315 316 316 315 314 314 313 313 313 312 311 311 312 312 312 305 303 315 328 324 321 316 310 308 306 306 302 304 304 302 303 304 306 305 305 306 303 304 305 309 311 312 312 313 314
316 315 314 315 315 314 314 313 313 312 312 312 313 311 309 299 308 317 318 314 313 312 311 309 306 308 304 304 303 304 303 303 304 305 305 303 304 305 307 310 310 311 311 313 314
315 315 315 314 314 315 314 314 313 313 313 313 313 311 307 304 310 319 317 315 316 311 307 313 311 307 306 302 305 303 300 303 303 305 303 306 301 302 307 309 308 310 311 313 314
315 315 315 314 314 314 314 314 312 312 312 314 314 312 305 310 313 313 318 314 314 312 311 313 313 308 306 306 303 300 300 297 303 302 303 302 296 304 308 307 306 308 310 311 313
314 314 314 314 314 314 314 312 313 313 313 314 312 310 305 315 312 313 318 310 311 311 312 312 311 306 304 300 298 299 295 296 297 302 301 301 298 303 306 307 306 308 309 310 312
313 313 313 313 314 314 312 311 313 315 315 314 312 306 310 308 313 315 316 314 310 310 308 307 306 302 301 298 292 294 294 295 295 300 301 300 300 304 306 306 306 308 309 310 311
312 312 312 313 313 312 311 314 312 310 312 307 306 306 307 312 315 313 314 311 310 307 301 304 299 296 299 300 299 297 295 295 298 301 300 299 300 303 306 307 306 307 308 310 311
311 312 312 312 312 311 312 307 310 312 305 311 310 309 311 311 306 309 314 305 304 300 303 300 296 301 301 300 298 297 295 296 299 301 300 300 300 304 305 306 307 308 308 309 311
310 310 311 312 310 310 310 309 316 315 305 305 308 307 309 310 305 307 309 307 302 300 300 298 299 300 298 298 296 297 296 296 296 300 302 300 298 301 305 306 307 308 310 310 311
309 310 311 310 309 312 308 314 316 315 300 302 304 306 308 308 303 311 310 306 302 299 300 299 302 299 298 296 298 294 299 298 297 297 293 301 291 299 303 303 306 307 309 310 311
309 310 310 309 311 309 311 314 316 314 290 304 304 313 308 304 304 306 312 306 300 300 300 298 298 298 297 297 299 297 300 299 299 297 297 296 294 298 302 300 303 307 308 310 311
308 310 309 311 312 312 313 314 314 299 288 299 303 302 302 303 302 305 306 309 306 302 302 300 303 301 300 300 301 302 300 300 300 298 290 295 294 296 298 300 302 305 306 308 310
309 309 309 313 309 312 314 312 298 291 302 297 298 300 299 297 299 301 301 300 298 294 295 300 300 303 302 299 302 301 298 291 289 290 289 296 292 294 300 302 303 304 307 309 311
307 306 308 313 315 314 315 304 291 294 296 301 300 300 298 299 298 299 297 297 300 298 295 293 291 298 303 300 298 298 297 290 283 285 288 293 288 294 301 305 306 307 308 310 311
306 316 316 314 317 316 308 296 295 297 299 297 299 296 298 300 297 296 297 297 299 301 293 293 292 301 301 302 300 297 293 299 291 291 287 290 294 299 302 303 304 304 306 307 308
309 312 310 315 318 315 304 293 297 300 300 299 293 296 293 295 295 294 294 300 298 301 303 297 291 298 299 301 300 297 300 290 293 282 281 287 289 290 297 300 301 302 304 306 308
311 309 311 316 318 310 300 299 299 302 303 298 296 295 296 295 296 294 294 297 300 299 302 300 295 293 297 295 294 296 293 294 293 291 283 282 287 298 297 299 300 302 303 304 306
309 304 313 315 307 307 301 298 298 301 304 301 301 299 296 297 295 294 294 296 301 300 296 300 296 291 292 298 298 296 294 295 289 286 290 288 287 300 300 302 303 303 303 305 306
305 306 314 313 301 303 301 299 300 300 300 299 298 300 300 295 292 297 297 299 300 299 297 300 294 288 289 293 297 293 295 295 295 294 289 285 288 300 301 301 303 304 305 305 306
305 301 306 306 304 298 297 297 297 301 300 301 299 300 297 295 297 294 294 297 299 298 300 299 294 291 287 290 294 290 292 294 294 289 290 290 292 296 298 300 302 304 304 304 305
304 299 299 298 300 297 297 296 295 293 299 300 296 298 295 292 294 293 295 296 297 298 299 298 291 293 293 293 293 292 292 292 291 292 288 291 292 296 299 300 301 304 304 303 304
301 299 303 300 297 294 295 294 293 292 293 293 295 296 294 292 294 292 293 295 294 297 298 300 291 293 291 293 292 290 292 293 294 294 293 293 293 299 300 301 300 301 301 300 301
307 307 301 296 293 293 293 292 292 293 294 297 297 293 292 294 297 298 299 301 299 296 295 296 293 291 287 291 292 289 293 293 294 296 294 290 296 299 298 299 299 298 299 299 301

GFSSW_sfc_thetae_081.txt.gz
Theta_e
317 317 317 316 315 314 314 315 315 316 315 315 315 316 315 315 314 314 311 315 316 323 318 316 312 311 313 311 314 314 303 301 304 304 309 315 312 315 318 316 317 318 318 322 323
317 317 317 316 315 314 314 314 315 315 316 315 315 315 314 313 312 310 322 321 321 319 311 312 309 310 308 309 311 308 303 303 308 308 308 311 310 311 310 315 314 316 320 321 323
317 317 317 316 316 315 314 314 315 314 315 314 314 313 313 314 311 312 327 325 319 321 314 313 313 309 306 309 309 308 303 307 309 309 309 308 309 311 308 308 313 314 317 320 320
316 317 316 316 316 315 315 315 315 315 314 313 313 313 313 314 301 318 330 326 321 316 313 310 311 306 305 304 309 304 307 308 309 310 308 306 309 307 308 309 312 314 316 316 317
315 316 316 315 315 316 315 315 315 315 314 313 313 314 313 309 307 325 332 325 321 316 311 310 308 307 304 306 307 305 307 308 309 309 308 308 305 305 307 311 313 313 313 313 315
315 315 315 315 315 315 315 315 314 314 314 314 314 314 312 304 312 319 319 320 317 314 312 311 309 311 308 306 306 308 307 307 307 307 308 306 305 306 307 312 311 312 312 314 315
315 315 315 315 315 315 315 315 314 313 313 314 315 314 311 309 313 318 318 315 316 313 310 312 314 309 309 306 309 306 303 305 306 307 306 308 304 304 309 311 310 310 311 314 315
314 314 314 314 314 314 315 314 314 313 313 314 315 315 309 315 315 314 319 316 317 314 313 315 314 311 308 309 305 303 303 299 306 306 306 305 299 307 310 308 307 309 311 312 314
313 313 313 313 314 314 314 313 313 315 314 315 315 313 308 313 309 313 318 313 313 313 314 314 312 308 308 302 300 302 297 299 301 306 305 303 300 306 309 309 307 308 309 311 312
312 312 312 313 313 313 313 312 313 314 315 317 317 309 314 308 313 314 318 316 310 310 309 309 308 304 303 301 294 297 297 299 298 303 304 302 301 305 308 308 308 309 309 309 311
312 311 311 312 312 312 312 316 315 314 314 311 310 309 309 315 316 313 315 313 311 308 303 307 302 299 302 303 302 300 299 298 301 303 302 301 302 305 307 308 308 309 310 311 311
311 311 311 311 312 311 312 311 311 314 306 315 313 311 313 313 308 311 315 307 307 302 305 303 299 303 304 303 301 300 298 298 301 304 303 302 302 306 308 308 309 310 310 311 313
310 310 310 311 311 312 315 313 318 318 307 309 311 310 311 312 307 307 311 308 304 302 303 300 303 303 301 301 299 299 298 299 299 302 304 302 300 303 307 309 311 311 312 312 312
310 309 310 311 308 319 313 317 318 318 302 304 306 308 311 311 304 311 311 309 305 301 303 302 305 302 300 298 301 296 302 300 299 298 294 303 293 302 305 306 308 309 311 312 313
309 309 310 309 312 313 313 318 318 317 291 306 306 314 311 307 307 307 313 307 301 301 302 300 300 300 298 300 302 299 303 301 301 299 299 299 296 300 305 303 306 308 310 311 312
309 309 309 313 314 316 317 318 317 301 291 301 306 305 304 306 305 308 308 310 308 303 303 302 306 303 302 304 303 304 301 301 302 300 293 298 297 298 301 302 304 307 309 310 311
308 308 309 316 313 316 318 315 302 295 303 299 301 303 303 302 303 303 302 301 299 295 295 299 301 305 305 301 304 302 299 293 292 292 291 300 296 298 302 304 305 306 307 310 313
307 306 313 317 319 319 317 308 294 298 299 304 303 303 300 302 301 301 299 297 302 300 296 293 292 301 304 301 300 300 299 292 285 288 291 298 292 296 303 306 307 308 308 309 311
305 320 318 321 321 321 312 299 299 301 302 300 301 297 299 301 302 301 300 299 300 302 295 294 295 303 303 304 303 298 296 300 294 295 290 292 296 301 304 305 307 305 306 307 308
311 317 316 319 324 319 308 299 301 303 303 302 297 300 296 299 298 298 298 302 300 303 305 299 293 301 302 303 303 300 302 293 295 285 284 290 291 292 298 299 302 303 304 306 308
313 312 316 322 322 313 302 303 303 305 304 301 300 298 299 297 298 297 297 300 302 301 303 300 297 297 299 297 296 298 296 296 296 294 286 285 289 301 299 301 301 303 305 307 308
314 307 317 321 308 310 303 304 299 303 306 303 303 301 298 299 296 297 296 300 303 302 297 301 298 292 295 302 301 300 297 296 291 290 292 291 290 303 303 303 303 304 305 307 309
308 309 318 316 302 305 305 303 303 302 302 300 300 302 304 299 295 298 300 303 303 301 298 302 296 289 292 298 299 296 296 297 297 296 291 288 290 303 304 303 305 304 306 307 308
308 303 309 313 310 303 301 301 300 303 302 303 301 303 300 298 300 297 297 301 302 301 301 301 296 293 287 292 296 293 295 296 295 292 291 291 293 298 300 301 303 305 307 306 307
310 305 304 301 304 302 302 301 298 297 302 302 300 299 297 295 296 296 299 299 301 303 300 299 291 294 295 296 296 294 294 294 293 294 290 293 293 297 300 302 304 305 305 304 302
303 302 307 303 301 300 297 297 296 296 297 297 297 298 299 295 296 294 297 299 297 300 299 300 292 295 292 295 295 292 294 295 295 295 295 296 295 302 303 303 302 301 299 300 301
311 310 305 301 299 298 299 296 296 297 298 299 298 296 296 298 300 302 303 301 301 299 297 296 295 292 288 294 294 290 295 296 296 298 297 293 297 301 300 299 298 298 299 299 300

GFSSW_sfc_thetae_084.txt.gz
Theta_e
318 318 318 317 317 316 316 315 315 315 316 317 316 317 317 316 315 313 308 315 318 324 319 310 314 311 309 307 310 311 302 300 303 305 308 314 314 319 320 315 318 319 318 320 323
318 318 318 318 318 317 316 316 316 315 315 316 316 316 315 315 310 308 319 328 327 320 307 307 310 308 304 306 308 306 301 300 306 308 309 312 313 314 312 312 314 317 321 321 322
316 317 317 317 317 317 317 316 316 316 316 315 315 314 314 314 310 312 334 330 326 319 308 311 312 309 304 306 306 305 302 305 306 309 310 309 309 312 309 308 313 315 318 320 322
316 316 317 317 317 316 316 317 317 316 316 316 315 314 315 313 302 318 329 328 323 314 309 310 310 306 303 301 306 302 306 307 308 310 309 307 310 308 309 309 314 315 315 316 316
314 315 315 316 316 316 316 316 316 316 315 315 315 315 313 309 310 324 335 328 317 310 307 309 306 307 302 304 305 303 305 308 309 309 309 309 307 307 306 310 312 313 313 313 314
314 314 314 314 315 316 316 316 316 315 315 315 315 315 311 304 315 323 319 317 316 313 309 310 309 310 306 306 304 307 306 307 308 308 308 306 306 306 307 310 310 311 311 312 312
314 314 314 314 314 315 316 315 315 315 314 315 315 315 310 308 315 316 318 317 318 314 311 313 312 309 308 305 309 307 303 305 306 306 305 307 303 303 308 309 309 310 311 312 314
313 313 313 313 313 314 315 315 315 314 314 314 315 315 308 319 318 317 318 314 317 316 313 313 314 311 308 309 306 303 303 298 304 305 306 305 298 306 310 309 307 309 310 311 314
313 312 312 313 313 313 314 314 313 316 315 314 314 313 307 317 310 312 315 313 314 314 313 315 312 307 307 302 300 301 295 297 300 307 305 303 299 306 310 309 307 309 309 311 312
313 312 312 312 312 312 312 312 315 313 314 316 317 310 313 309 312 311 314 315 311 310 308 308 306 302 303 300 291 295 296 298 299 303 304 301 301 305 307 307 308 309 309 309 310
313 312 311 311 311 311 311 314 312 311 314 310 310 309 310 315 317 312 313 313 311 307 301 306 300 297 300 302 301 300 299 298 301 304 301 301 301 304 307 307 307 309 310 311 312
314 313 312 311 311 311 310 309 312 312 305 314 314 312 314 314 308 310 314 306 305 300 304 302 298 303 305 304 302 300 298 297 301 303 302 301 301 304 306 307 309 310 311 312 314
313 312 311 311 311 310 312 314 319 316 306 309 313 312 311 312 307 308 310 307 303 301 302 299 302 306 302 301 299 299 298 298 297 302 304 301 298 301 306 308 310 311 313 312 314
312 312 310 310 309 318 314 317 317 318 300 304 305 309 311 311 305 313 313 308 303 299 301 301 305 303 301 299 300 296 302 300 299 297 292 301 291 300 304 305 308 310 312 312 314
312 312 310 309 310 314 314 318 318 316 291 306 306 314 312 306 308 307 314 308 301 301 301 299 301 300 299 300 303 298 303 301 300 298 297 297 294 299 305 303 306 308 309 311 312
312 311 309 315 314 317 318 318 316 300 291 302 306 304 303 305 306 308 307 310 308 302 302 301 306 303 302 304 304 304 301 300 300 298 290 296 296 296 300 302 304 307 308 309 311
311 309 307 314 315 318 318 314 300 295 305 301 301 304 303 302 303 304 303 301 298 294 295 299 300 303 305 300 303 302 298 290 289 290 289 299 295 299 303 304 305 306 307 308 310
309 306 313 317 320 321 317 306 295 301 301 305 303 304 301 303 303 303 301 299 303 300 296 294 292 301 305 303 299 299 299 292 285 287 290 298 292 297 304 307 308 308 309 309 310
306 318 320 321 321 320 312 298 299 301 303 301 302 299 299 303 302 302 301 300 302 303 295 295 294 305 305 306 303 298 295 300 294 295 290 293 297 302 304 305 306 306 307 307 309
307 313 318 321 322 318 307 300 303 305 304 304 297 301 297 300 300 300 300 303 301 305 305 299 293 301 303 306 304 300 302 293 294 285 284 290 292 293 298 300 302 303 304 306 308
310 311 317 322 321 311 302 302 304 307 305 301 300 299 299 298 299 298 298 302 303 303 305 302 296 296 300 298 295 297 296 297 296 294 286 284 289 301 300 301 301 302 304 306 308
311 306 319 320 307 309 304 305 301 303 306 303 303 302 299 300 298 298 297 301 306 303 298 301 298 292 295 301 303 301 297 297 291 289 293 292 290 303 304 303 304 304 306 307 309
306 308 319 315 300 303 306 304 304 303 303 302 300 302 304 299 295 299 299 305 305 303 299 302 296 290 292 297 300 297 298 297 296 296 290 287 289 302 303 303 305 304 305 307 309
306 302 310 310 308 303 301 301 300 305 302 303 302 303 301 298 301 297 299 302 305 302 305 302 296 293 288 291 296 294 296 297 295 291 290 290 292 298 300 302 304 304 305 304 304
307 304 306 300 303 303 303 301 299 299 303 303 300 300 298 295 296 296 300 299 303 305 301 300 292 294 295 296 296 295 294 295 293 293 290 292 292 296 301 302 302 303 302 301 301
304 301 305 301 304 301 300 300 298 299 298 298 297 297 298 296 296 294 296 298 298 301 299 301 293 295 292 296 295 292 295 295 294 294 294 294 294 301 302 302 301 301 300 300 300
309 310 305 301 301 300 300 299 298 299 300 300 298 296 295 297 300 301 301 302 301 300 297 297 295 292 288 294 294 289 295 296 297 298 296 291 296 300 299 299 299 299 300 299 299

GFSSW_sfc_thetae_087.txt.gz
Theta_e
317 318 318 318 318 318 318 316 317 316 316 316 316 316 316 316 315 309 303 311 313 326 323 311 308 306 304 298 301 303 293 291 295 298 302 307 308 316 319 316 316 318 315 317 319
316 317 317 318 318 317 317 317 317 317 317 317 316 316 315 315 308 304 314 326 328 329 308 303 300 305 297 296 298 295 291 294 299 302 302 305 308 312 313 314 313 315 318 322 319
315 316 316 317 317 318 317 317 317 317 317 317 316 315 315 314 304 309 334 326 332 327 306 303 304 303 296 296 296 297 293 299 302 304 305 304 306 313 312 308 313 312 315 316 317
314 314 314 315 315 316 317 317 317 317 316 316 316 316 316 310 298 311 334 333 330 314 305 302 301 298 295 294 298 293 300 301 302 305 304 302 307 304 307 309 312 312 313 311 311
313 313 313 314 314 315 316 316 316 316 316 315 315 315 311 303 305 321 331 328 317 310 304 301 301 299 295 297 297 295 299 302 304 304 302 306 302 301 303 309 309 310 310 309 309
314 313 313 313 313 314 315 316 316 315 315 314 314 314 308 300 315 327 322 318 311 305 302 301 302 303 300 298 296 300 300 301 302 302 303 300 302 301 304 309 308 308 307 308 309
314 314 313 312 313 313 314 314 314 314 314 314 314 312 307 304 316 320 314 311 314 311 306 307 307 303 302 299 303 303 298 301 301 300 299 302 298 299 303 306 305 306 307 308 309
314 314 314 313 312 313 313 313 313 314 315 314 313 311 303 317 316 313 313 312 314 312 310 310 309 304 301 303 302 298 296 289 297 301 302 300 292 301 305 303 303 305 307 308 308
315 314 314 314 313 312 312 312 312 315 317 314 309 307 304 319 312 313 313 311 311 312 311 311 307 301 302 295 292 294 288 290 294 301 300 297 293 301 304 303 302 302 304 306 307
315 314 314 314 313 312 311 312 313 313 313 314 313 305 310 308 312 313 310 311 310 309 305 304 300 295 294 291 285 288 290 292 293 299 300 296 295 300 303 303 302 302 303 304 306
316 314 314 314 313 311 309 306 307 305 309 306 306 307 310 314 314 309 310 309 310 305 297 301 293 290 293 297 298 297 295 293 297 302 298 295 295 298 300 300 300 301 302 303 304
315 315 314 313 312 311 308 302 309 309 300 311 313 310 314 313 306 309 311 303 303 296 299 297 292 299 301 301 299 298 294 292 297 300 296 295 295 298 300 301 301 302 303 303 305
314 313 313 313 311 307 305 307 315 314 299 306 312 311 310 310 305 306 307 305 301 298 298 294 299 304 302 298 297 294 293 293 294 298 298 296 293 296 301 302 304 304 305 305 305
313 313 313 312 307 310 309 316 315 314 294 302 304 309 311 309 303 311 310 305 301 297 299 298 302 301 300 298 297 291 298 298 297 293 286 296 284 293 298 300 302 303 302 304 306
313 313 312 310 303 305 312 311 311 310 288 304 305 311 309 304 306 305 311 305 299 298 298 296 298 298 298 298 300 295 300 298 297 292 290 292 287 291 297 298 301 302 304 304 306
312 313 312 308 306 310 314 314 310 296 290 302 304 302 301 303 304 306 306 307 305 299 299 298 303 302 300 302 302 303 298 295 293 290 283 291 290 290 296 297 300 302 303 305 305
312 311 309 309 306 313 314 307 295 292 306 300 300 302 300 298 301 302 300 297 293 289 290 297 298 303 305 298 302 300 291 283 281 282 284 296 292 294 300 302 303 301 302 303 304
311 308 308 310 312 313 311 301 290 301 300 304 302 302 298 301 301 302 299 295 299 298 291 289 289 299 304 301 298 298 295 287 283 281 286 295 290 295 302 303 303 304 303 304 303
308 308 311 316 315 313 305 295 295 301 302 300 300 296 296 302 302 301 298 297 299 300 293 291 292 303 304 305 302 297 292 297 289 290 284 289 294 299 302 302 302 302 303 299 301
303 304 310 320 318 312 300 297 302 306 303 301 295 299 295 298 299 299 297 302 300 301 301 296 289 300 302 304 304 298 300 288 289 281 279 287 289 289 293 295 298 296 296 297 299
303 305 314 317 317 305 295 301 304 306 304 300 297 296 296 296 297 296 298 302 303 301 300 297 293 294 297 296 295 295 292 294 292 288 281 280 285 296 295 295 294 296 297 299 300
303 301 315 317 302 303 301 305 306 304 305 303 301 299 297 297 295 295 296 300 306 304 297 300 293 288 292 300 302 300 296 294 288 286 288 284 286 298 297 296 297 297 299 300 300
298 303 316 312 294 298 303 305 306 302 302 300 299 300 300 296 292 297 298 304 305 302 298 299 290 284 288 294 298 296 298 297 294 290 284 278 282 298 298 298 299 297 297 298 300
300 298 307 307 305 299 297 299 299 305 302 302 300 301 298 295 297 295 297 302 304 303 307 301 291 288 284 290 294 291 295 296 292 283 285 285 287 292 295 296 296 296 297 297 298
302 301 302 294 298 299 299 298 296 297 301 300 298 298 295 292 294 294 298 298 302 305 299 293 286 290 292 294 295 294 294 294 291 290 285 287 287 292 294 294 295 296 297 297 297
299 298 301 298 300 299 298 297 297 297 297 295 295 296 295 290 294 291 294 294 294 299 295 297 286 290 289 295 294 292 294 294 293 293 291 290 290 294 296 297 296 295 295 295 295
306 307 300 298 297 296 297 298 297 298 299 299 296 294 294 296 298 297 296 296 296 295 296 293 289 288 284 293 292 287 293 295 296 295 293 287 290 295 293 294 293 294 295 294 295

GFSSW_sfc_thetae_090.txt.gz
Theta_e
316 317 317 317 318 318 318 318 318 317 317 316 316 316 316 316 315 308 301 308 311 321 325 309 307 303 300 295 297 297 288 285 288 292 294 303 301 308 314 316 317 316 314 315 319
315 315 315 316 317 317 317 317 317 318 316 317 316 316 315 315 307 303 312 320 323 329 310 304 298 299 296 293 293 292 285 289 295 296 295 300 300 304 304 310 315 315 319 318 317
314 314 314 314 315 316 316 316 317 317 317 316 316 315 316 315 302 306 327 323 328 330 308 304 300 298 294 292 293 291 290 294 297 299 300 300 301 305 302 307 315 314 314 313 312
314 313 314 314 314 314 315 316 316 317 316 315 315 314 316 309 289 310 334 328 331 318 304 298 296 292 293 291 294 289 295 297 299 301 300 299 304 303 305 307 318 319 313 309 308
314 314 313 313 313 314 314 314 315 315 315 315 314 314 310 301 302 313 332 331 322 309 302 298 295 296 293 294 295 292 295 298 300 300 300 301 301 303 301 308 316 316 315 314 307
315 315 314 314 314 314 314 314 314 314 314 314 314 313 306 299 312 319 321 317 311 305 301 299 299 301 297 296 294 296 297 298 299 299 299 300 301 300 304 306 309 307 307 307 308
316 316 315 315 315 314 314 313 313 313 314 314 313 311 305 303 315 324 317 309 309 306 302 303 302 299 298 297 300 299 294 297 298 297 297 302 297 298 302 303 304 305 306 307 307
316 316 315 315 315 315 315 313 312 312 314 316 313 310 301 314 314 312 311 310 311 309 307 308 305 300 299 300 299 295 293 288 294 298 299 298 293 299 302 300 300 303 304 306 306
316 315 316 315 315 314 314 311 312 313 315 316 308 304 301 318 313 315 314 310 311 311 309 312 305 300 299 293 290 290 286 288 292 297 297 296 292 300 302 300 300 300 302 304 305
316 315 315 315 315 314 313 311 312 312 313 312 312 303 307 307 311 313 309 312 309 308 305 302 299 293 291 290 284 287 287 290 291 298 298 295 295 298 299 301 300 299 301 302 304
315 314 314 314 314 313 309 303 304 303 306 303 304 304 308 314 314 309 309 305 306 303 294 297 291 289 292 294 294 293 292 291 294 298 296 294 296 297 297 298 298 298 299 300 302
314 313 313 313 313 312 308 299 306 305 299 308 310 308 311 312 306 306 308 301 301 296 297 293 290 296 299 298 296 294 292 292 294 299 295 295 294 297 297 298 299 300 299 300 300
313 312 312 312 312 306 302 304 310 310 298 303 310 309 310 311 306 305 305 302 300 296 296 291 295 300 299 297 295 293 291 291 292 296 295 293 291 293 298 300 301 300 301 302 302
313 312 312 311 306 304 304 312 311 309 292 299 304 308 310 309 302 310 308 303 299 296 297 295 300 299 298 297 297 290 297 296 296 291 286 294 283 290 295 297 299 300 300 302 304
313 313 312 311 301 301 309 309 311 306 287 306 304 312 310 304 304 304 308 304 297 297 296 294 296 295 295 298 300 294 298 296 295 289 287 289 285 289 294 295 297 299 302 302 304
312 313 312 305 303 305 310 310 305 294 287 302 303 301 300 302 303 305 304 306 304 298 297 297 301 298 298 302 301 303 298 294 291 288 282 287 287 286 292 295 297 299 301 303 303
312 312 309 308 300 307 306 305 292 289 305 299 298 300 298 297 299 301 299 296 292 288 288 294 296 300 303 297 300 298 290 282 281 281 281 294 291 291 298 300 299 299 300 303 303
311 309 306 308 306 305 306 299 286 298 300 306 301 299 295 298 298 299 296 292 296 293 289 288 287 298 303 299 297 296 292 286 281 281 286 295 289 293 301 302 301 302 301 302 301
308 301 303 309 308 307 302 291 293 300 302 299 300 295 294 301 299 300 296 296 297 296 290 289 291 302 303 303 301 296 290 296 289 290 285 289 294 297 300 300 301 300 301 299 299
302 299 303 312 312 307 298 294 300 306 303 300 293 297 292 294 298 297 296 301 300 301 299 294 288 298 300 302 302 298 300 289 287 280 279 287 289 289 292 294 297 296 295 297 298
297 299 311 314 312 301 293 296 303 309 306 299 296 294 294 294 294 296 297 301 302 300 298 294 290 291 296 294 293 293 292 293 291 288 280 280 285 296 295 294 292 294 295 295 295
296 294 311 312 299 298 296 304 306 305 308 302 299 297 295 295 294 293 295 299 304 303 295 296 290 286 290 296 301 297 296 294 287 284 285 282 285 297 295 295 294 293 294 295 295
292 295 309 308 292 293 299 304 305 303 301 299 297 298 297 293 289 295 297 302 303 300 295 296 288 283 285 291 296 292 296 296 293 288 285 281 284 297 296 294 294 293 293 295 297
294 292 300 302 301 297 296 297 297 303 300 300 298 299 296 293 294 293 296 300 303 302 308 300 290 287 282 288 293 291 294 294 292 283 285 286 288 291 292 292 293 293 293 294 294
296 296 297 292 295 295 296 297 295 296 299 299 296 295 293 289 290 291 294 296 300 304 298 290 285 288 290 292 293 293 293 294 292 292 285 289 287 289 291 291 291 293 294 293 294
295 295 298 295 296 295 296 295 296 295 295 294 293 294 293 288 290 288 291 294 291 296 293 294 285 288 287 293 293 291 293 293 293 293 292 290 287 293 292 292 292 292 293 293 294
304 304 297 294 294 292 293 296 296 296 297 297 294 291 290 292 294 293 293 294 293 290 294 294 287 284 282 292 291 285 291 293 293 293 291 287 289 291 290 292 291 291 292 294 295

GFSSW_sfc_thetae_093.txt.gz
Theta_e
315 315 315 315 315 316 316 317 317 317 317 317 316 316 316 315 314 306 300 306 310 319 323 307 305 301 297 293 295 295 287 282 286 290 291 298 298 303 308 305 307 317 313 314 336
314 314 314 314 314 314 315 315 316 317 316 316 316 316 315 316 308 303 311 317 321 323 308 302 295 299 295 292 291 290 283 286 292 293 292 296 297 299 301 303 303 314 318 319 321
315 314 314 314 314 314 314 314 315 317 316 316 315 315 314 314 301 301 320 320 324 326 307 304 299 297 292 290 290 289 287 291 294 296 296 297 298 300 299 298 302 308 315 316 312
316 316 316 316 315 314 314 314 314 315 316 315 315 314 314 309 289 306 335 326 326 322 306 298 294 292 291 292 292 286 293 293 296 297 297 295 299 298 300 301 306 311 318 313 313
316 316 316 316 316 316 315 315 314 314 314 314 314 314 308 299 301 311 335 328 320 312 301 295 293 292 291 292 293 289 292 294 296 296 295 298 296 298 299 304 307 313 317 315 315
316 316 317 316 316 316 316 316 314 313 312 313 314 313 305 297 309 313 324 320 314 303 299 296 295 297 295 293 293 295 296 297 297 295 295 295 297 298 300 306 307 312 313 317 318
317 317 317 315 315 315 315 315 314 313 312 313 314 310 304 300 314 316 317 311 308 306 300 301 300 298 296 294 298 298 292 294 295 295 294 297 294 296 303 304 303 306 304 313 313
317 316 315 315 315 315 315 314 313 311 312 314 316 308 298 312 313 311 310 309 308 306 303 304 301 296 295 297 298 293 291 287 293 295 296 296 289 297 301 301 300 301 302 303 305
316 315 314 314 314 314 315 314 313 313 314 316 306 305 298 316 311 314 312 309 308 307 307 309 302 297 297 292 289 288 285 286 291 295 295 293 291 298 301 299 299 300 300 301 302
315 314 313 313 313 314 313 312 311 312 313 311 310 300 304 305 311 314 313 312 307 306 304 301 296 292 290 289 283 285 285 288 289 294 294 292 292 297 299 298 298 298 299 299 301
314 313 313 313 312 312 311 302 303 301 304 300 301 303 305 311 314 309 308 307 306 301 294 295 290 288 290 292 293 292 290 289 293 297 293 292 292 294 296 297 297 297 298 297 299
313 313 313 312 312 311 309 298 304 303 298 306 307 306 310 310 306 306 306 298 298 294 295 292 289 294 296 295 294 292 290 290 293 296 293 293 293 294 295 296 296 298 298 298 297
314 313 313 312 312 306 301 303 308 307 296 302 307 307 307 309 305 306 302 300 298 295 294 290 293 298 296 294 293 292 289 290 290 294 294 291 290 292 296 299 300 300 299 299 300
313 313 312 312 305 301 301 309 309 307 291 297 303 307 309 308 302 310 305 302 298 295 296 294 298 297 296 294 295 290 296 295 294 290 285 292 282 289 293 296 298 298 298 300 303
313 312 313 311 304 299 306 306 306 304 283 304 303 311 308 303 303 303 307 302 296 296 295 294 294 294 293 295 298 292 297 295 294 288 286 287 284 287 291 293 296 298 301 301 303
313 312 312 306 305 304 307 307 304 293 286 301 302 301 300 303 303 303 302 304 302 296 296 295 300 297 296 301 300 301 295 292 289 287 281 286 285 285 291 293 295 298 300 302 302
311 311 309 309 299 304 304 303 291 287 303 299 297 299 297 296 299 299 297 295 291 287 287 293 294 298 302 297 299 296 289 282 280 281 280 291 288 289 296 297 298 297 299 300 301
309 308 306 307 307 307 303 297 285 296 299 304 301 298 294 296 296 298 295 292 295 292 287 286 286 297 302 299 295 294 291 284 279 280 283 292 286 291 298 299 300 299 297 298 298
308 300 299 304 306 304 301 289 291 298 303 298 299 293 293 299 297 296 293 293 295 294 288 288 290 301 302 302 300 295 288 292 287 288 281 287 291 294 298 299 297 297 297 296 296
303 297 300 308 308 304 296 293 298 306 305 300 293 296 291 293 296 296 295 299 299 298 296 293 287 296 299 300 300 296 298 288 286 280 278 285 287 287 291 291 293 293 293 294 295
297 296 306 310 308 299 291 293 301 307 306 299 295 293 293 292 292 295 296 300 302 300 299 295 290 290 294 292 291 293 290 289 289 286 280 279 284 292 289 291 291 292 293 293 294
294 289 307 309 297 295 293 299 304 304 306 303 300 297 294 294 292 291 293 297 302 301 294 295 289 285 290 294 298 294 294 291 283 285 283 280 285 293 292 293 292 292 294 294 294
293 292 305 306 292 293 297 301 305 302 302 299 298 299 296 293 288 293 296 301 302 298 295 294 286 282 285 289 294 291 294 294 292 291 287 283 283 295 293 292 293 292 293 294 295
293 291 298 301 298 294 294 296 297 302 300 300 298 299 295 291 293 292 294 299 301 302 304 298 288 285 282 284 290 288 292 294 293 284 284 286 287 290 292 291 292 292 292 292 293
292 294 295 290 295 295 293 296 295 295 299 299 295 295 293 288 288 290 293 294 298 301 298 293 286 287 289 291 291 291 292 293 291 290 286 288 289 289 291 292 291 291 292 292 292
295 297 298 295 297 296 295 294 295 295 295 294 293 294 293 289 289 288 289 290 289 294 292 295 284 287 286 291 291 289 292 292 292 292 292 292 286 292 294 293 291 292 291 291 293
301 304 298 294 294 293 293 294 296 296 296 297 295 292 290 292 293 293 293 293 292 289 289 291 289 286 282 290 290 284 289 291 291 291 289 285 288 291 290 292 291 290 291 292 293

GFSSW_sfc_thetae_096.txt.gz
Theta_e
315 315 315 315 315 315 315 315 316 317 317 316 316 316 316 315 315 308 300 305 309 319 320 305 304 299 296 292 295 293 285 282 285 288 290 296 294 300 305 303 304 306 311 314 344
316 316 316 316 316 316 315 315 315 316 316 316 315 315 315 315 308 304 312 317 320 320 306 301 296 297 293 290 290 289 283 285 290 291 291 293 295 295 298 299 299 304 312 325 340
317 317 317 317 317 317 316 316 315 315 316 316 315 315 314 313 300 300 318 320 321 322 306 302 297 296 291 288 288 287 286 289 291 294 295 294 294 297 296 295 299 300 307 313 325
317 317 317 317 317 316 316 316 316 316 315 314 314 314 314 309 288 304 332 323 326 317 303 298 293 290 289 289 290 285 291 292 291 295 295 293 295 296 297 298 303 304 306 310 309
317 317 316 316 315 315 315 315 315 315 314 313 313 314 306 297 299 309 333 324 320 316 302 294 291 292 290 291 291 287 291 293 295 294 294 295 294 295 295 301 303 303 306 311 311
316 316 317 315 315 315 315 314 314 314 314 313 313 314 304 293 307 314 321 317 317 308 299 294 293 295 293 292 291 294 294 294 294 294 293 293 294 295 298 301 301 303 307 313 314
315 315 316 314 314 314 315 314 314 314 313 312 313 310 303 300 312 311 317 313 309 305 299 298 298 297 295 292 295 295 292 294 294 292 293 294 292 293 300 300 301 302 306 309 314
315 314 314 314 314 314 314 314 314 314 313 313 315 308 295 309 310 309 312 308 307 306 302 302 300 295 293 295 296 291 290 286 292 293 294 294 288 296 299 298 299 301 301 303 306
315 313 313 313 313 313 314 314 313 313 315 315 307 303 296 313 310 312 310 308 306 305 304 306 299 294 295 290 288 288 283 285 290 293 292 291 290 296 299 297 297 298 299 301 302
314 313 313 313 313 313 313 313 311 313 312 311 309 298 301 302 310 313 310 311 306 304 301 301 297 290 288 288 282 283 284 286 287 293 293 291 291 295 296 297 297 298 298 299 300
314 313 312 312 313 312 310 303 302 301 303 298 300 300 303 309 312 309 310 308 305 301 292 294 289 287 290 291 291 290 288 287 291 295 292 291 290 294 295 294 295 296 297 299 299
314 315 313 312 312 312 309 299 302 303 296 304 305 304 308 309 304 305 309 300 298 293 294 291 288 294 294 293 292 290 288 288 292 294 292 291 291 293 294 294 294 296 296 298 298
314 314 313 312 312 305 300 302 308 306 295 300 305 305 305 307 303 305 304 298 295 292 292 290 294 296 294 292 291 290 288 289 289 293 292 290 289 290 295 297 300 299 298 299 300
314 312 312 312 303 300 299 307 307 305 290 295 300 305 307 306 301 310 303 301 297 292 294 293 297 296 293 292 292 287 294 294 292 288 283 290 281 288 291 293 297 298 299 301 302
313 312 312 312 305 299 303 304 304 301 282 301 301 310 307 301 301 302 305 301 295 295 294 292 294 293 292 294 295 292 296 293 291 287 285 286 283 286 291 292 295 298 300 301 302
311 311 311 308 304 304 306 305 302 291 284 299 302 300 300 301 301 300 300 303 301 295 294 295 298 296 295 298 299 299 294 290 288 285 280 284 284 284 290 292 295 298 299 299 299
310 310 308 308 298 302 302 301 289 285 300 298 295 298 297 296 299 297 295 294 291 287 287 293 293 296 298 295 299 295 288 281 279 279 280 289 286 287 295 297 297 297 295 296 297
309 308 307 306 306 305 301 296 284 294 297 304 300 296 294 296 296 297 293 290 293 291 287 285 285 295 301 298 294 292 289 283 277 278 281 290 284 290 296 296 297 296 296 296 296
308 301 298 300 306 304 298 288 289 295 302 297 299 293 292 296 295 294 292 292 294 293 288 286 288 299 301 301 299 293 289 293 287 286 281 285 289 293 294 295 295 295 295 294 294
303 298 297 304 307 302 296 292 295 303 304 300 292 295 292 293 295 293 291 296 294 295 295 291 286 295 298 299 298 294 296 287 286 280 278 282 285 285 289 291 292 292 292 294 294
296 293 301 307 305 298 290 292 297 304 305 300 296 294 294 293 295 294 296 298 300 297 296 293 289 289 294 292 290 291 289 289 288 283 280 278 282 290 290 291 291 291 293 293 294
298 288 304 306 296 294 291 297 301 302 305 301 299 297 295 295 292 292 295 297 301 300 294 294 290 286 289 293 296 292 290 289 284 283 280 278 281 292 290 291 292 292 293 293 294
294 292 302 305 291 291 296 299 303 301 301 299 297 298 297 294 289 293 296 299 300 299 296 295 287 283 286 288 292 290 292 292 290 291 286 279 283 292 292 292 294 293 291 293 294
295 288 295 299 301 296 294 294 297 302 300 300 299 300 297 294 293 292 294 298 299 301 303 298 287 285 282 284 288 287 290 292 289 282 284 288 286 290 292 292 292 291 291 291 292
294 291 297 289 295 295 295 295 294 295 299 300 296 296 293 290 290 290 292 293 297 299 296 294 288 287 287 290 290 289 290 291 290 290 286 288 288 289 291 291 291 291 292 292 292
293 296 298 296 297 295 295 294 295 295 295 294 294 295 294 291 290 289 290 290 289 293 290 294 283 285 284 289 290 288 290 291 291 292 291 292 288 291 292 292 291 291 291 291 292
300 300 298 293 293 293 294 294 295 296 297 298 295 292 290 292 294 293 293 292 291 289 288 289 289 287 282 288 288 284 288 290 290 291 290 287 290 291 289 291 290 290 291 291 292

GFSSW_sfc_thetae_099.txt.gz
Theta_e
318 318 317 317 317 317 317 316 316 316 316 317 316 316 316 316 315 311 304 313 312 318 320 310 308 304 303 301 303 301 295 292 293 294 296 302 301 305 308 305 307 310 310 317 346
317 317 317 317 317 317 316 316 316 316 316 316 316 315 315 315 310 305 315 318 319 320 309 305 302 303 300 299 300 299 294 294 297 299 298 300 300 301 301 302 303 306 311 329 347
317 317 316 316 316 316 316 316 316 316 316 315 314 314 314 313 305 305 319 322 321 322 310 306 305 303 299 298 298 297 294 296 298 299 301 300 299 302 300 299 303 305 309 311 331
317 317 317 316 316 315 315 315 316 316 316 315 314 314 314 309 296 309 329 324 323 319 309 302 302 300 299 295 297 293 297 297 298 299 300 299 301 300 302 303 308 309 310 310 311
316 316 316 316 315 315 315 315 315 315 315 314 314 313 310 303 303 311 330 325 321 314 306 301 299 300 298 299 297 294 298 299 300 300 301 301 300 301 301 306 309 308 309 309 311
316 316 316 315 314 314 314 315 314 314 314 314 313 314 305 297 311 316 321 321 316 313 305 302 300 303 301 300 299 301 300 301 302 301 300 299 300 300 304 308 307 307 308 311 312
316 316 316 314 314 314 313 313 313 314 315 315 314 311 303 303 314 322 320 317 317 311 305 303 302 302 303 299 302 301 298 301 302 302 301 301 298 299 307 307 306 307 309 313 317
316 315 314 314 314 314 314 312 313 314 315 314 314 309 300 311 314 312 319 315 314 312 306 308 305 302 301 302 300 298 298 295 301 300 299 300 296 304 307 304 305 307 309 310 314
315 314 313 313 313 314 314 313 313 314 315 314 310 303 300 314 310 312 317 309 310 310 309 306 305 300 301 298 296 296 293 294 297 301 299 299 298 305 307 304 306 308 309 309 312
314 313 313 314 314 313 313 312 312 313 313 312 309 299 305 304 310 313 316 311 307 306 303 302 303 299 298 296 289 292 292 293 294 299 300 299 299 304 305 303 306 308 309 309 309
315 313 314 313 312 312 310 308 306 304 305 303 304 302 305 311 315 312 312 311 309 305 299 301 297 294 296 298 297 295 294 293 297 300 298 299 299 303 305 304 304 305 307 308 309
314 313 313 312 312 311 308 303 305 307 300 306 306 306 309 310 304 308 312 304 304 298 300 296 293 298 299 298 296 295 293 294 297 300 299 299 299 302 303 303 305 305 306 307 308
312 312 312 312 312 308 305 304 310 309 300 303 306 306 307 309 304 305 308 304 301 298 297 295 296 300 297 296 294 295 294 294 294 298 300 298 297 299 302 304 308 308 308 309 308
312 312 312 312 306 305 302 309 310 310 296 298 302 306 308 308 303 312 309 304 300 297 297 296 300 298 297 295 296 292 299 297 297 295 292 297 289 297 300 302 306 308 309 310 312
312 312 312 311 305 302 305 309 309 307 285 302 303 312 309 305 306 304 309 304 298 297 298 295 297 297 296 297 299 296 300 298 298 296 294 294 292 296 300 300 304 306 307 308 310
312 312 311 307 306 307 309 308 307 295 285 299 304 302 302 304 303 304 303 306 304 300 299 298 302 300 299 301 300 301 298 296 295 294 289 294 293 293 298 301 303 304 304 305 306
312 311 309 309 301 307 306 304 293 288 300 299 298 301 300 299 300 301 299 297 295 291 292 296 297 301 301 297 302 300 297 289 287 287 287 295 292 295 301 303 306 303 303 304 305
311 309 308 308 309 308 305 299 288 294 296 305 301 300 297 299 300 299 298 295 298 297 293 291 288 297 302 299 298 298 297 290 283 285 288 295 291 297 301 303 304 303 303 304 304
309 307 303 304 309 307 297 292 290 295 301 300 300 295 296 298 299 299 297 296 298 298 293 291 291 301 303 304 303 297 294 298 292 292 290 293 296 298 300 300 301 300 302 302 302
305 301 301 307 308 303 296 293 296 302 304 301 294 298 293 296 295 296 295 299 297 299 302 297 291 298 301 303 302 300 301 293 294 284 283 290 292 294 296 298 299 300 300 301 302
303 295 304 309 307 299 292 295 298 303 304 301 298 296 296 296 298 296 295 300 301 299 300 299 296 294 298 297 296 297 296 295 296 293 287 285 290 298 301 300 299 299 299 300 300
301 291 306 308 297 299 294 298 300 300 304 302 303 300 297 297 296 296 296 299 302 302 296 300 298 292 294 298 300 300 298 298 292 290 292 291 290 298 299 300 300 299 299 300 300
297 295 305 305 293 295 299 299 301 300 301 301 299 300 300 297 294 296 298 300 302 301 300 301 295 290 291 295 298 296 298 298 298 296 291 288 291 298 298 299 299 298 299 299 300
297 289 298 301 303 295 294 295 296 302 301 301 300 301 298 296 298 295 297 299 302 302 304 305 296 294 289 291 296 293 295 298 298 292 292 291 294 295 297 298 299 298 298 299 300
297 292 298 292 295 295 296 295 294 295 299 301 297 297 296 293 292 293 296 296 299 300 299 300 294 294 293 294 294 293 294 295 295 296 292 294 294 299 300 300 300 300 299 298 299
295 294 299 295 297 294 295 294 293 296 296 296 296 297 296 293 293 292 295 296 295 298 298 298 292 293 291 293 294 292 294 295 295 295 295 296 295 303 301 302 299 298 298 297 299
302 303 300 294 294 293 293 293 293 296 297 298 299 295 293 296 298 300 299 298 298 296 295 296 294 292 287 291 292 288 293 294 295 296 296 292 298 299 298 298 299 298 297 297 297

GFSSW_sfc_thetae_102.txt.gz
Theta_e
318 318 318 318 318 317 317 317 317 317 317 317 316 316 316 316 316 316 311 318 318 321 320 316 314 309 310 308 309 308 300 298 300 299 301 305 303 307 309 307 308 312 314 318 331
318 319 318 318 318 317 317 317 317 317 317 317 316 315 315 316 314 312 322 325 322 322 313 309 306 307 304 305 306 303 299 300 304 304 302 304 303 304 303 305 305 307 312 316 328
318 318 318 318 318 317 317 316 317 317 317 317 316 315 315 316 310 311 325 326 323 322 313 311 309 306 303 305 304 303 300 303 303 304 304 303 303 306 304 302 306 306 310 315 316
318 317 317 317 317 316 316 316 316 317 316 316 315 315 315 314 300 314 328 326 324 319 312 308 306 303 302 299 304 299 303 303 303 303 304 303 306 304 305 306 309 310 312 315 315
317 317 317 317 316 316 316 316 315 315 315 315 315 314 313 308 308 319 327 325 321 316 309 306 304 303 301 302 302 300 302 304 304 306 306 307 305 305 306 309 311 311 313 314 315
317 317 316 316 315 315 315 315 314 314 314 314 315 314 310 302 316 317 322 319 316 312 309 307 305 306 303 303 302 304 303 305 306 307 307 304 305 305 308 311 310 312 313 315 316
316 316 316 315 315 315 315 315 314 314 314 316 315 312 306 308 318 323 322 319 317 312 307 309 307 304 307 303 307 305 302 304 305 307 306 308 303 304 310 310 310 311 313 315 318
316 316 315 314 314 315 315 315 314 314 315 316 315 310 305 317 319 317 323 318 318 314 311 311 309 306 306 307 304 302 303 299 305 306 306 305 300 306 310 310 309 311 313 315 318
316 315 314 314 315 315 314 314 313 314 315 314 311 309 306 315 311 315 319 314 314 313 311 310 308 304 305 301 299 301 297 298 301 306 305 304 301 306 311 310 309 311 313 313 316
316 314 314 314 314 314 313 313 313 314 314 313 311 303 310 307 313 315 317 316 310 310 307 304 303 299 301 299 293 294 296 298 298 303 304 303 303 307 309 309 309 311 312 313 315
315 314 314 314 314 312 311 313 309 306 308 308 309 307 308 314 319 313 316 313 310 307 300 303 298 296 298 301 301 299 298 297 300 304 302 302 303 306 308 309 309 311 311 313 314
314 314 314 314 313 312 310 309 310 310 304 312 310 311 313 314 308 312 316 307 305 300 302 300 296 301 303 302 300 300 298 297 300 303 303 303 302 306 307 309 311 310 311 313 314
313 313 313 313 312 311 311 309 313 314 305 306 310 309 310 312 307 309 311 309 304 301 301 298 299 303 301 300 298 298 297 297 296 301 303 302 301 303 307 309 312 313 313 315 314
312 312 313 312 308 311 306 312 315 315 299 300 303 308 311 311 305 314 313 308 305 300 302 300 303 300 300 298 300 295 300 299 298 298 294 303 293 302 305 306 310 313 314 315 318
311 312 312 311 307 306 309 314 314 313 286 304 305 316 312 307 308 308 314 308 301 300 302 298 300 299 298 299 301 298 301 300 300 299 299 299 295 300 305 303 308 311 314 317 319
311 311 312 309 309 310 312 312 308 296 286 299 306 305 304 306 307 309 308 309 307 302 302 301 305 303 301 302 303 303 301 301 300 298 292 297 296 297 301 304 308 310 312 313 314
310 311 311 312 304 312 314 307 295 289 299 299 302 304 303 302 303 304 303 301 298 294 295 299 300 303 304 300 304 302 300 292 290 290 289 299 296 298 305 308 310 310 311 312 314
308 308 311 312 314 313 308 300 289 293 295 306 305 304 301 303 303 303 301 299 302 300 297 294 292 300 303 301 299 300 300 292 286 287 290 299 292 299 308 309 312 312 312 312 312
307 311 310 312 313 309 300 289 292 295 299 298 303 299 300 302 302 302 301 300 302 303 296 295 294 302 303 304 303 299 297 302 295 296 293 295 299 304 306 307 308 308 309 310 310
305 305 306 313 313 305 295 289 294 300 302 303 296 300 297 300 299 300 299 303 301 304 306 300 294 301 303 306 305 302 303 295 296 287 286 291 294 295 302 304 307 307 308 309 309
305 299 310 312 309 300 291 291 293 298 303 299 297 298 299 299 300 298 298 301 304 303 305 303 300 299 303 300 298 299 298 299 299 296 289 288 293 303 305 307 307 307 308 308 308
301 295 311 311 297 299 294 295 297 299 302 300 303 300 299 300 299 298 297 301 304 305 300 304 301 296 297 303 305 304 300 300 294 292 295 294 293 304 307 309 309 308 307 308 308
297 297 310 308 291 295 299 297 299 299 300 300 299 302 302 299 296 299 301 304 304 303 301 304 299 292 293 299 303 299 301 302 301 301 294 291 293 304 305 307 308 307 306 306 306
299 292 301 301 303 295 293 294 295 302 301 301 300 302 300 299 302 298 298 301 304 304 306 308 302 297 293 295 300 297 299 302 301 295 295 295 296 301 303 304 306 306 307 306 306
298 296 299 292 296 295 295 297 293 291 300 302 299 300 297 296 297 298 301 300 304 305 304 304 297 300 297 298 297 298 298 299 298 298 294 296 296 302 305 305 306 308 307 306 305
295 295 299 297 298 297 296 295 292 294 295 295 297 299 300 296 298 296 299 300 300 304 303 304 297 299 295 299 298 296 298 298 298 298 296 298 298 305 306 309 307 307 305 305 305
304 306 295 295 296 294 294 294 291 291 298 298 299 299 298 297 300 302 303 303 304 302 301 301 299 296 291 296 295 291 295 297 298 300 299 295 300 304 304 305 307 306 304 304 303

GFSSW_sfc_thetae_105.txt.gz
Theta_e
320 319 319 319 319 319 318 318 318 318 318 318 318 317 316 317 317 317 314 321 321 327 320 318 315 315 313 310 312 311 303 300 303 304 305 309 306 311 312 309 310 313 314 321 328
319 319 319 319 319 318 318 318 317 317 318 318 318 317 317 316 315 313 322 330 325 323 313 313 311 312 308 308 309 306 301 302 307 308 306 308 307 308 307 307 308 310 313 317 320
318 318 318 318 318 318 317 317 317 317 317 318 317 317 317 316 312 313 332 330 328 323 316 315 313 310 306 307 307 306 301 306 307 307 308 307 306 308 306 305 309 309 312 314 317
318 318 318 318 318 317 316 317 317 317 316 316 316 317 316 315 302 319 329 330 326 320 315 312 310 306 304 303 307 302 306 306 308 307 305 304 308 306 307 308 311 312 313 314 316
318 317 317 318 317 316 316 316 316 316 315 315 315 315 314 311 310 323 329 327 324 319 313 310 307 306 303 305 305 303 305 307 308 307 307 308 306 307 307 311 312 313 312 313 316
317 317 317 317 316 316 316 316 316 315 315 315 315 315 311 305 320 322 323 321 317 316 312 311 308 309 306 305 304 306 305 305 307 307 308 306 307 308 309 312 311 312 312 313 315
316 316 316 315 315 315 316 316 315 315 315 315 317 314 310 310 320 322 323 320 318 316 310 312 312 308 307 304 308 306 303 305 305 308 307 309 304 305 311 313 311 311 312 314 315
316 316 316 315 315 316 316 314 314 314 314 316 317 312 307 321 323 321 322 319 320 317 313 313 312 308 306 309 306 303 304 299 306 307 308 307 300 308 312 312 310 312 313 313 316
316 315 315 315 315 315 315 314 314 315 316 315 313 309 308 318 314 319 322 316 317 315 314 313 310 305 305 303 300 302 296 299 302 309 307 305 302 310 312 311 311 313 313 314 317
315 315 315 315 315 314 313 312 315 313 315 315 314 305 312 311 316 317 320 319 314 312 309 307 306 301 302 300 293 296 297 300 300 305 306 304 303 308 311 311 311 312 313 314 315
315 315 314 314 314 313 313 313 311 307 310 310 310 310 312 316 318 315 318 315 312 310 303 305 300 297 299 302 301 302 300 298 303 306 304 304 304 307 311 311 310 311 312 314 315
314 313 314 313 314 313 313 308 312 312 305 313 313 313 315 316 310 312 317 310 307 302 305 303 297 302 303 303 301 301 299 300 302 304 304 303 303 307 310 310 312 312 313 314 315
312 312 312 313 312 313 313 311 315 315 305 307 310 310 312 314 309 311 312 310 305 302 302 299 302 304 303 301 300 301 298 299 299 303 304 302 299 303 308 310 312 314 315 315 315
311 311 311 312 309 313 307 315 317 319 299 300 306 309 312 312 307 316 314 310 306 302 303 302 306 303 301 300 302 298 302 300 299 299 295 303 292 301 306 306 310 313 314 315 317
309 309 311 311 310 306 310 315 316 315 285 303 306 316 312 307 309 309 316 310 304 304 304 301 302 301 300 301 303 299 304 301 299 296 298 299 296 300 306 304 308 312 315 317 321
309 309 310 310 312 312 315 315 312 296 286 298 308 306 305 307 307 311 311 312 310 305 305 304 308 305 303 304 304 304 301 301 301 299 291 297 297 298 301 305 309 313 316 318 319
309 309 309 311 305 314 314 309 292 286 299 297 302 306 305 303 305 307 305 303 300 296 297 301 302 305 306 301 304 303 299 292 290 291 290 298 295 299 305 308 311 312 314 316 318
308 307 309 312 315 315 310 298 285 291 295 300 301 302 302 304 304 305 303 299 303 302 299 296 293 301 305 303 300 300 300 294 287 289 292 299 293 297 307 311 313 315 315 316 317
307 311 310 313 316 313 302 290 289 293 296 296 298 296 293 302 303 302 302 301 303 304 297 296 296 304 305 305 305 300 297 303 295 298 293 296 300 306 309 308 311 312 314 314 316
307 307 309 316 317 308 296 290 293 297 296 298 291 297 292 297 298 299 300 304 303 305 307 301 295 303 303 305 305 303 306 295 297 289 288 295 295 297 304 306 309 310 312 313 314
306 301 312 317 314 300 292 294 296 298 297 295 295 294 294 296 295 298 299 304 306 305 306 304 301 299 302 300 298 300 300 301 302 298 291 289 294 305 304 307 308 310 313 313 313
303 296 314 314 297 297 295 296 299 297 299 298 300 297 296 297 293 292 295 301 308 307 301 305 302 293 297 304 306 304 301 303 295 293 297 294 294 306 308 310 309 311 312 313 313
299 300 310 311 291 295 298 298 299 298 298 297 297 298 299 297 296 297 296 306 306 305 303 305 300 295 293 301 305 302 302 303 304 302 296 291 294 306 308 311 312 311 312 312 311
300 294 303 307 305 298 295 295 296 299 298 299 299 300 299 299 300 299 298 301 306 304 308 308 301 298 294 297 301 299 301 303 303 297 296 296 297 303 306 307 309 311 312 311 311
300 297 300 294 297 296 297 296 294 292 299 297 299 299 298 294 296 298 302 302 303 304 305 303 297 301 301 300 298 300 299 300 299 301 295 297 298 302 303 306 309 311 311 310 309
297 296 300 298 299 297 295 295 294 293 292 295 293 297 298 294 298 296 300 301 301 304 302 303 295 299 298 302 301 298 300 300 301 301 300 300 299 309 310 310 309 308 309 308 309
304 306 299 293 296 295 295 295 295 297 296 297 298 295 294 299 302 303 304 305 305 303 300 300 299 295 290 298 297 294 298 300 300 302 301 296 301 306 305 308 308 309 309 307 308

GFSSW_sfc_thetae_108.txt.gz
Theta_e
320 320 320 319 320 320 318 318 318 318 317 317 317 317 317 317 317 314 310 317 323 330 319 315 313 312 312 309 311 311 300 298 300 302 304 310 308 311 313 309 311 313 312 320 333
320 319 320 319 319 319 318 318 318 318 317 317 318 317 316 318 312 310 320 328 334 331 315 311 310 310 308 307 308 305 300 300 306 307 306 308 308 308 307 307 308 310 314 317 322
321 319 319 319 319 319 317 317 317 317 317 316 317 318 318 316 309 312 337 332 331 326 317 313 313 310 306 307 305 305 301 305 306 308 309 307 307 309 307 305 308 308 310 313 314
319 318 318 318 318 318 316 316 316 316 317 316 315 316 317 313 300 316 333 333 332 320 315 310 310 307 304 302 306 301 305 306 306 308 307 305 307 305 307 307 311 312 313 313 313
317 317 317 317 317 317 317 317 316 316 317 316 316 316 314 309 308 320 332 330 322 317 311 309 307 306 302 304 305 302 304 306 307 307 307 307 304 305 306 310 312 312 312 312 313
317 317 317 317 317 317 317 317 316 316 316 315 315 316 309 301 319 322 323 324 319 315 312 310 308 309 305 304 303 305 305 305 306 306 307 304 304 306 308 311 310 311 311 312 312
316 316 316 317 316 317 317 316 315 315 315 315 315 315 308 308 321 321 321 321 319 317 312 312 312 308 307 304 307 306 302 304 304 305 304 307 303 304 309 311 310 311 312 312 313
316 315 316 316 316 316 316 315 315 315 315 316 316 313 305 319 321 319 321 318 320 317 315 314 313 309 306 308 305 302 302 297 303 306 304 306 299 307 311 310 309 310 311 312 314
316 315 315 315 315 314 315 314 314 315 316 317 313 310 305 322 315 320 320 316 317 316 315 314 311 306 304 300 298 300 295 297 299 306 305 304 300 307 311 310 310 311 312 313 314
315 313 313 314 314 314 313 313 315 315 314 315 314 305 309 309 316 318 320 320 315 313 309 307 305 300 300 297 291 296 296 298 298 303 305 303 302 306 311 310 310 311 312 313 314
314 313 312 313 313 313 312 312 309 306 310 308 308 307 310 317 319 315 318 316 314 310 301 304 298 295 297 299 300 300 300 298 301 304 303 302 303 305 309 310 310 311 312 314 315
311 311 313 313 312 312 311 307 307 311 302 310 311 311 315 316 310 312 317 309 308 302 303 301 296 301 302 301 299 299 298 298 302 304 304 303 302 306 308 309 310 311 312 314 316
309 310 310 311 311 310 311 313 313 313 302 304 307 306 310 313 309 310 313 310 306 302 301 298 301 304 302 300 298 298 297 298 299 302 304 302 300 302 307 310 311 312 314 314 316
309 309 310 310 306 310 306 312 314 316 295 296 302 307 308 310 305 314 315 310 306 301 302 302 305 303 301 299 300 295 301 301 300 298 293 302 291 300 303 306 308 311 314 314 316
309 310 310 309 305 303 309 314 313 310 282 300 306 315 311 305 307 307 315 310 303 303 303 300 302 301 300 300 302 299 304 301 300 298 296 296 294 298 303 302 306 311 313 314 321
309 310 309 307 308 309 314 314 310 293 282 296 304 305 305 306 305 309 308 312 310 304 304 303 308 304 303 305 304 305 302 301 300 297 290 295 294 295 300 303 306 311 313 316 320
308 309 308 309 301 310 311 308 291 284 296 294 297 302 303 303 303 304 303 303 300 295 296 301 302 305 306 301 304 302 298 290 288 289 288 297 294 297 304 308 309 310 315 318 319
308 306 307 310 312 313 308 297 284 291 293 298 297 297 297 301 300 302 302 300 304 301 297 296 293 302 305 302 299 299 298 291 285 287 290 298 293 297 308 311 312 314 315 317 318
306 308 307 311 313 312 300 287 287 292 295 294 295 293 293 297 296 298 299 302 303 304 297 296 295 304 305 305 303 298 295 301 295 296 293 296 299 305 307 309 311 311 314 315 316
303 305 307 315 316 310 297 289 292 297 297 296 290 293 290 293 291 295 297 302 304 305 307 301 294 302 303 305 304 301 303 294 296 286 286 294 294 296 302 306 309 311 311 314 316
305 300 310 317 314 302 290 291 294 299 299 295 294 291 292 292 293 290 291 302 305 303 305 303 299 299 302 299 297 299 297 300 299 297 291 289 290 305 304 306 309 310 313 314 314
302 294 312 315 298 298 293 295 297 298 301 299 299 295 292 295 293 293 292 296 303 305 299 304 302 292 296 303 304 302 300 300 295 293 296 295 294 307 308 308 311 309 313 313 313
294 298 309 309 291 294 297 296 297 297 296 297 297 298 299 294 291 294 297 301 304 302 303 305 300 293 295 300 303 299 301 303 304 303 293 293 294 307 308 310 311 311 310 313 313
296 292 303 306 303 295 292 292 294 300 298 299 298 299 297 295 298 294 297 298 305 305 308 309 302 297 290 295 299 297 299 302 301 297 294 296 297 302 305 308 310 309 309 312 311
298 294 299 293 295 296 296 295 293 292 298 298 295 296 296 292 295 295 298 299 304 305 304 307 298 300 299 299 299 299 299 300 298 301 296 298 296 302 306 308 309 313 311 310 309
294 293 294 293 297 295 295 294 294 295 296 293 290 292 295 289 292 293 298 297 298 302 301 304 298 299 297 297 299 297 297 300 300 301 300 299 297 304 309 310 308 310 310 309 309
300 299 295 292 294 293 294 295 295 298 298 298 296 294 294 298 302 303 304 304 304 301 300 301 298 295 292 298 296 291 295 296 301 303 302 297 302 307 307 307 308 309 309 309 309

GFSSW_sfc_thetae_111.txt.gz
Theta_e
322 321 321 320 320 319 318 317 317 317 317 317 317 317 316 316 316 311 304 312 317 324 328 314 311 309 306 302 303 302 292 290 293 295 297 303 298 304 307 305 306 308 309 329 335
321 321 321 319 319 319 319 317 316 316 316 316 316 318 318 318 308 305 315 325 327 329 315 310 306 305 300 300 299 297 291 294 298 300 298 301 299 301 303 303 303 306 310 318 324
318 318 318 318 318 318 317 316 316 316 316 316 316 315 316 315 304 305 335 333 328 330 319 312 310 305 298 300 298 297 294 297 300 303 303 301 300 303 300 298 303 303 306 309 309
317 317 317 317 317 317 317 315 316 316 316 315 315 316 316 310 293 311 334 336 331 324 315 310 305 299 297 296 301 295 299 300 301 304 303 299 302 300 300 300 305 307 307 307 306
317 317 317 317 317 317 316 315 315 316 317 316 316 315 311 303 303 316 331 333 327 320 311 307 302 299 296 299 300 297 298 301 303 303 300 301 300 299 300 304 307 308 308 306 306
316 316 316 317 317 317 316 315 314 315 316 316 315 315 307 296 313 318 318 322 317 313 309 308 303 303 300 300 298 300 299 300 300 300 300 299 299 299 302 306 307 307 306 306 306
316 316 315 315 315 314 314 314 314 315 316 316 316 312 304 301 315 318 315 319 317 313 308 310 308 304 303 297 302 301 297 299 300 299 299 301 296 298 302 306 305 306 306 307 307
315 315 313 313 313 313 313 314 314 315 315 316 317 310 299 314 315 313 314 315 319 317 313 312 310 305 302 301 300 296 296 291 296 299 301 298 292 301 304 304 304 306 307 308 307
314 314 314 314 314 314 314 313 314 315 316 316 312 308 300 317 310 314 316 313 315 315 314 315 309 303 302 294 290 292 288 289 293 299 299 297 294 301 306 304 303 304 306 307 306
311 311 311 312 312 313 312 312 313 314 313 314 311 302 306 302 313 316 316 317 313 312 308 306 302 297 295 290 285 287 289 292 293 297 299 297 295 299 304 305 304 305 306 307 308
310 310 310 311 311 311 308 303 302 302 308 302 303 303 305 312 317 314 315 313 312 308 299 302 294 291 293 295 295 294 293 292 296 301 298 297 297 300 302 303 303 303 305 306 307
309 310 310 310 311 310 306 298 305 306 296 306 307 308 309 311 306 311 316 306 306 300 302 297 292 297 299 297 295 294 292 292 297 300 298 296 297 301 303 303 303 304 304 305 307
309 310 310 310 310 306 302 306 314 313 297 300 305 304 306 309 304 305 311 307 304 300 300 295 297 301 299 296 294 293 291 292 293 299 299 297 295 298 305 306 305 306 306 307 307
309 309 309 310 302 302 298 305 310 309 288 292 296 303 305 304 300 310 313 307 303 300 300 298 301 299 297 296 296 291 297 296 296 295 288 298 284 293 299 301 303 306 305 306 309
309 309 309 309 301 298 302 307 309 303 276 295 299 309 306 300 302 303 313 308 300 301 301 297 298 298 296 297 299 295 299 297 296 292 291 293 287 290 299 298 300 303 305 309 313
308 309 309 304 302 304 306 307 304 288 278 291 298 297 299 302 301 304 305 309 308 302 302 300 305 302 300 303 302 302 298 296 295 291 284 290 288 288 294 298 300 304 307 316 317
308 308 306 305 296 303 304 300 288 282 293 290 292 296 295 295 300 302 299 298 297 292 293 299 299 303 305 299 302 298 291 284 284 283 282 291 289 290 298 305 303 304 313 314 315
307 306 304 305 306 306 302 292 281 287 289 295 294 293 291 296 297 296 295 295 301 299 294 291 290 299 304 300 296 295 292 284 278 280 284 293 287 291 300 307 308 313 312 313 312
306 303 302 306 308 306 298 284 283 287 291 291 292 289 290 295 296 294 294 296 299 301 293 292 292 303 304 304 301 294 291 295 288 292 286 291 294 298 305 306 309 309 311 311 312
301 300 302 310 311 304 293 287 289 295 295 293 287 290 287 290 292 291 290 298 299 302 304 297 291 301 303 304 303 296 298 289 290 283 280 289 291 294 299 302 306 307 308 311 311
299 295 303 314 312 299 288 289 292 297 298 292 290 290 290 290 293 291 292 296 301 302 301 300 297 295 301 298 295 293 294 293 292 290 282 282 288 303 300 303 303 305 308 308 308
296 287 303 311 294 295 290 293 295 296 299 297 296 293 292 292 292 291 291 295 299 297 294 302 295 290 294 301 303 297 294 296 288 286 291 289 289 307 306 306 306 308 309 307 308
291 292 304 305 289 290 294 292 295 295 296 295 294 295 296 292 289 292 293 300 301 298 299 301 293 287 291 296 298 297 296 298 297 294 289 286 289 304 306 307 309 308 309 310 311
292 288 296 301 298 290 290 290 292 298 297 298 295 297 291 292 295 292 294 300 302 302 306 303 296 292 287 291 296 294 296 298 296 289 290 292 294 301 304 305 306 308 308 309 311
295 291 292 286 288 290 292 292 291 291 297 298 293 293 291 289 292 292 296 299 301 304 302 298 294 297 297 298 299 298 298 298 296 297 291 295 294 299 301 305 305 308 308 308 307
290 289 292 289 291 290 291 290 292 294 294 293 292 294 294 290 291 290 294 294 295 301 298 301 294 297 294 299 298 296 299 298 299 299 298 298 297 305 306 306 305 307 307 307 304
298 298 292 289 289 288 290 291 292 294 297 298 295 292 291 294 295 299 301 302 301 299 295 296 296 291 288 295 295 290 295 298 299 301 299 292 297 304 303 306 306 306 307 304 303

GFSSW_sfc_thetae_114.txt.gz
Theta_e
320 320 320 320 319 319 318 317 316 316 316 316 316 317 316 316 316 309 301 308 312 321 325 315 312 308 304 300 301 298 288 285 288 291 294 298 296 301 305 302 307 307 324 336 344
320 319 319 319 318 318 317 316 316 316 316 316 316 316 316 315 308 304 313 319 322 327 313 308 306 305 297 297 298 294 289 290 294 295 295 295 296 300 301 301 301 304 310 329 332
317 319 318 318 318 317 317 316 315 316 316 316 316 316 316 314 302 304 326 328 326 326 317 312 309 302 295 295 295 293 292 294 295 299 299 299 296 300 299 296 300 301 304 307 315
317 317 316 317 317 317 317 317 316 316 315 315 316 316 316 309 288 307 336 338 334 321 317 312 305 298 293 293 296 291 296 297 297 300 298 295 299 299 299 299 303 304 305 306 303
317 317 316 316 316 316 315 315 315 315 314 314 315 315 310 299 300 311 325 329 326 317 314 308 302 297 293 294 296 293 296 299 299 299 299 299 298 298 299 303 303 306 306 304 303
316 314 316 314 314 313 314 314 314 314 315 315 315 315 305 292 307 311 313 315 320 314 310 306 303 302 295 296 295 297 299 299 299 296 299 297 299 297 299 303 303 304 305 305 304
314 314 315 315 315 314 314 313 313 314 314 314 315 311 303 297 309 311 310 308 317 317 309 309 308 303 299 295 300 300 295 297 297 296 295 297 295 297 300 302 302 303 304 305 305
311 312 311 311 311 312 313 313 313 314 313 314 315 311 300 310 310 308 309 309 312 317 313 312 310 305 297 299 298 293 294 290 296 296 297 296 292 297 301 299 300 302 303 304 305
310 310 310 310 310 310 311 311 312 312 312 314 309 306 296 314 308 311 311 308 312 316 312 313 307 300 298 293 290 289 287 286 290 295 296 294 293 298 301 301 300 300 302 304 304
310 310 310 311 310 311 310 310 310 310 310 313 311 303 304 302 310 314 314 312 310 311 308 307 301 295 294 290 285 287 285 287 288 294 294 294 293 296 299 300 300 301 302 303 303
310 310 310 310 311 310 307 301 295 297 303 300 301 301 304 308 312 309 314 310 310 307 299 301 294 291 294 294 294 292 289 288 291 296 294 292 294 297 300 297 299 300 302 302 303
309 310 310 310 310 309 305 296 297 301 296 305 305 305 307 307 301 305 311 305 304 298 301 297 292 297 298 297 294 292 289 288 292 296 294 295 294 297 299 299 300 301 302 302 303
309 309 309 309 309 303 298 300 307 304 293 298 303 302 303 306 300 302 307 306 301 298 299 295 295 300 297 294 292 291 289 289 289 295 295 293 291 294 299 302 303 303 303 303 303
309 308 309 309 300 298 295 300 304 304 286 291 294 299 303 304 299 307 308 305 302 298 299 298 301 298 295 293 294 288 294 294 293 290 285 293 284 290 296 298 301 302 302 313 324
309 309 308 308 299 296 299 302 304 300 274 292 295 306 305 299 301 302 309 304 299 299 300 296 298 297 293 294 296 292 297 295 294 289 287 290 285 289 293 294 297 301 306 321 324
308 308 308 303 298 300 303 302 298 286 276 288 296 295 294 298 300 303 303 306 305 300 301 300 303 301 298 300 299 299 297 295 292 288 283 288 287 286 290 294 298 304 314 320 319
308 307 306 304 295 299 299 296 283 279 291 288 290 293 292 291 295 300 297 296 294 292 291 297 298 302 302 296 299 297 292 283 280 281 282 289 286 288 294 297 302 310 314 316 317
306 306 303 302 301 302 299 288 278 285 287 293 291 292 288 292 295 296 294 291 296 296 293 290 289 298 302 298 295 295 293 282 278 279 282 290 284 288 297 305 303 313 313 314 313
305 300 299 303 303 301 296 283 280 286 290 289 291 286 288 291 294 294 293 292 296 298 291 291 291 302 303 303 300 296 292 294 287 289 284 287 293 297 302 304 307 308 310 309 310
298 295 295 306 310 298 291 286 289 294 294 293 286 288 285 289 289 291 291 296 294 298 303 297 290 299 301 303 302 298 297 288 286 281 279 285 290 291 297 300 305 306 306 308 310
293 290 296 304 305 295 286 288 292 297 296 292 288 288 289 288 290 289 291 296 298 298 300 299 295 295 299 297 295 295 293 291 289 287 280 280 284 299 299 302 300 304 307 307 308
292 285 297 301 289 292 288 291 293 293 297 296 294 293 291 291 289 289 291 295 300 298 292 299 296 290 293 301 303 300 295 293 287 285 286 285 285 304 304 306 306 305 305 306 308
288 290 298 302 283 285 289 290 293 293 294 294 293 295 293 290 288 290 294 300 298 296 294 299 294 286 290 295 298 295 297 294 291 289 287 284 287 304 306 307 308 307 307 306 306
290 284 290 291 291 288 287 288 289 295 295 297 295 295 291 289 292 290 292 298 299 298 301 298 297 289 286 290 294 292 294 296 292 285 287 289 293 299 303 305 307 308 309 309 307
290 285 290 282 285 287 289 288 288 288 295 296 294 293 291 287 289 290 293 297 300 302 299 298 293 295 296 298 297 298 297 296 292 292 290 293 294 299 302 303 306 308 310 310 307
285 286 290 287 289 287 287 288 286 287 290 292 291 293 291 288 291 288 292 294 294 300 297 299 293 296 294 298 297 296 297 298 297 298 297 297 295 302 305 308 307 308 308 307 302
295 292 290 287 286 285 286 287 288 290 294 296 294 292 290 293 295 296 296 297 299 297 294 293 295 291 289 297 295 290 296 297 298 300 299 293 299 304 303 305 306 307 307 302 301

GFSSW_sfc_thetae_117.txt.gz
Theta_e
318 318 319 318 318 318 317 317 315 316 316 316 316 316 316 315 314 308 301 306 310 319 325 311 311 307 303 298 299 296 288 284 287 290 292 294 294 299 301 300 303 305 315 337 348
317 317 317 317 317 317 317 316 316 316 316 316 316 315 315 314 306 302 311 318 320 322 312 305 304 304 297 296 296 293 286 287 292 293 292 292 293 296 298 298 300 304 317 341 349
316 316 316 316 316 316 316 317 314 315 316 316 316 316 316 313 298 297 319 331 322 321 313 307 308 301 294 293 294 292 289 293 294 296 296 293 296 298 296 295 298 299 307 315 331
314 315 315 315 315 315 314 314 314 314 314 315 315 315 316 308 285 303 330 327 331 317 314 308 304 297 292 291 294 289 293 296 295 297 295 293 297 296 297 298 301 301 303 304 314
313 313 313 314 314 315 314 314 313 313 313 313 314 314 310 298 298 308 319 315 321 314 309 305 299 297 291 292 293 290 293 296 297 296 296 297 295 296 297 300 302 301 303 302 300
311 311 311 311 311 312 313 313 312 313 313 313 313 314 305 291 305 308 308 309 317 313 309 305 303 300 295 294 292 295 296 297 296 296 294 294 297 295 297 301 300 300 302 302 302
310 310 310 310 310 311 312 312 311 312 311 312 313 309 301 296 307 307 306 304 305 313 309 311 306 303 299 293 297 298 293 296 295 296 295 296 293 294 299 300 299 299 301 302 302
310 310 310 310 310 310 311 311 311 311 312 312 313 306 295 308 309 307 307 305 307 306 309 311 309 301 296 298 297 291 292 289 292 295 295 295 290 296 299 298 298 300 300 301 302
310 310 310 309 310 310 311 310 311 311 312 312 305 304 294 311 306 309 308 303 306 307 311 315 305 299 297 292 288 288 283 285 290 294 294 293 289 297 299 297 297 297 299 301 301
310 310 310 310 310 310 310 310 309 308 309 309 309 299 301 299 307 310 312 307 306 306 306 306 299 294 293 290 284 285 283 288 287 292 293 292 289 295 297 296 296 297 298 299 301
309 309 309 309 310 309 306 301 291 294 301 297 299 299 301 306 310 307 311 307 306 306 299 301 294 289 292 294 293 291 289 287 289 294 292 290 290 293 296 295 295 296 297 299 300
309 309 309 309 309 309 304 296 295 297 289 299 301 301 305 306 299 303 309 302 300 296 301 295 292 297 297 295 293 292 288 286 290 294 291 291 291 295 297 296 296 297 297 299 300
309 309 309 309 309 302 295 296 303 299 289 294 299 299 301 303 299 299 304 301 298 296 297 294 295 300 297 295 292 291 289 287 287 293 292 291 288 292 297 298 298 298 299 299 300
308 308 309 308 299 295 294 298 300 299 284 289 293 298 301 303 298 306 306 300 297 294 298 296 301 297 295 293 293 288 293 291 290 288 282 291 280 288 293 296 297 299 298 304 321
307 308 308 307 299 296 297 298 300 296 273 290 293 305 302 297 299 301 308 301 294 297 298 295 297 296 293 294 296 291 295 292 291 287 285 287 283 287 291 292 294 298 314 319 322
307 307 307 301 298 299 301 298 296 284 275 286 294 293 293 295 295 301 303 304 302 297 300 298 302 300 298 298 298 297 293 290 288 285 280 285 285 285 288 293 294 306 317 318 318
306 306 304 303 295 298 296 293 283 277 289 286 287 292 291 290 292 298 296 294 291 290 291 296 296 300 302 295 296 294 289 280 278 278 279 286 284 287 293 297 300 312 314 316 317
305 304 301 300 302 301 298 286 277 282 285 290 290 290 287 289 294 295 294 291 295 294 290 289 287 297 301 296 293 290 288 281 276 277 280 288 283 287 295 301 304 315 314 315 315
303 296 295 298 304 302 294 279 278 284 288 289 290 286 286 290 291 291 291 292 293 295 289 290 289 300 301 301 298 291 289 291 285 287 281 284 289 298 303 304 310 311 313 311 312
295 290 292 301 303 300 288 285 288 293 293 292 285 288 284 287 287 288 289 295 294 298 299 293 289 298 300 302 301 297 295 287 286 279 277 284 288 288 296 299 305 307 307 307 309
289 287 293 299 305 292 284 286 289 294 295 291 289 288 287 287 289 288 288 294 297 297 299 297 292 293 298 296 294 295 293 292 289 286 280 281 285 298 297 299 301 303 305 307 308
292 279 293 299 286 286 285 288 291 292 296 294 294 292 290 291 287 289 288 292 300 299 293 296 292 288 292 298 301 298 293 293 284 283 285 285 285 301 300 300 303 304 305 307 308
287 288 296 297 280 284 288 287 291 291 291 293 290 293 293 289 285 289 291 299 300 297 294 297 291 285 289 294 299 295 296 293 290 290 286 283 286 303 304 303 304 303 305 307 309
289 283 287 288 287 285 284 285 286 292 291 292 293 295 291 289 291 289 290 296 298 298 302 298 291 290 284 288 293 293 295 295 291 286 287 286 294 298 301 301 304 305 305 304 305
289 285 286 279 282 284 285 285 286 285 290 292 292 290 287 287 287 287 292 294 297 300 299 296 289 292 295 296 297 296 295 296 291 291 289 292 294 298 301 302 303 305 304 302 302
285 285 288 285 285 284 285 285 285 287 288 289 289 291 291 288 288 286 291 292 293 298 296 297 289 294 292 297 297 295 297 297 295 294 295 296 293 302 305 306 305 306 305 301 301
294 295 289 284 284 283 283 285 286 288 290 291 292 291 289 291 295 295 295 294 294 294 295 293 289 292 289 295 294 289 295 297 298 298 297 292 296 303 302 304 305 305 308 303 301

GFSSW_sfc_thetae_120.txt.gz
Theta_e
316 317 317 317 317 317 316 316 315 315 316 317 317 317 316 316 316 307 300 305 309 318 320 309 310 310 303 296 296 294 286 283 286 288 290 292 295 296 299 298 299 303 309 336 346
314 315 315 315 316 315 314 315 314 314 315 316 317 316 316 316 307 301 310 317 319 319 310 305 301 302 297 296 295 291 284 286 292 291 291 291 291 293 297 296 298 304 323 346 345
313 313 312 313 313 315 314 314 313 314 313 314 315 315 315 315 296 297 317 322 331 320 311 306 304 301 294 292 293 292 287 290 293 294 294 292 293 296 294 294 297 297 310 329 344
311 311 311 311 311 311 312 312 313 313 313 313 312 314 315 307 287 297 327 319 328 317 312 303 301 295 293 290 293 288 292 293 294 295 295 293 295 294 295 298 299 299 300 312 336
310 310 311 310 311 311 311 312 312 312 311 311 312 313 309 298 296 306 318 312 319 313 310 302 299 295 291 292 292 289 292 294 296 296 295 295 294 294 294 300 300 300 300 301 319
310 310 310 310 310 311 311 311 311 310 311 311 311 311 302 290 304 306 306 306 315 310 307 303 300 299 294 293 292 294 294 295 294 293 293 293 295 294 295 299 299 299 299 300 306
310 309 309 309 309 309 311 311 310 311 310 311 312 307 299 295 306 305 305 302 305 311 306 308 306 301 298 292 297 296 291 293 293 293 292 294 293 292 297 298 297 298 298 300 300
310 310 309 309 309 309 310 310 310 310 311 312 312 305 294 305 306 304 304 302 305 305 304 308 308 300 296 296 295 290 290 288 291 294 295 294 287 294 297 296 296 298 298 299 300
310 310 310 309 310 310 310 310 310 310 311 311 305 300 291 307 304 308 307 302 304 304 304 312 305 299 296 291 287 288 282 284 288 293 294 292 288 296 298 296 295 296 297 299 298
310 310 310 309 310 310 309 308 308 307 308 308 306 297 298 296 305 309 310 306 303 301 299 299 298 293 292 290 283 283 282 285 286 291 293 290 288 294 295 295 295 295 296 297 298
308 309 308 309 309 309 306 299 291 293 296 296 297 296 298 304 308 306 310 304 302 299 289 300 295 289 292 294 292 290 287 287 288 292 290 291 291 291 294 293 293 294 295 296 298
307 307 308 308 308 308 303 292 295 295 288 295 295 295 301 303 296 300 305 299 297 293 293 295 291 297 297 295 293 291 286 286 288 291 290 289 289 292 294 294 295 295 295 296 297
308 307 308 308 307 301 293 294 299 298 287 290 294 294 295 298 294 296 301 298 295 293 293 290 293 299 295 293 291 290 288 286 286 291 290 288 287 290 294 296 297 296 297 297 298
307 307 307 307 297 294 294 297 297 297 283 286 292 296 298 301 296 304 304 298 294 291 294 294 298 297 294 291 292 287 293 291 289 286 281 289 279 286 290 293 295 297 295 297 298
306 307 307 306 298 296 296 296 298 295 271 287 292 303 301 296 297 298 306 300 292 292 294 293 295 295 293 293 294 290 294 292 290 285 283 284 281 284 289 291 293 295 302 307 315
306 307 306 298 298 298 300 295 294 284 274 285 292 291 291 294 294 299 301 303 300 294 294 295 301 299 297 298 297 296 292 290 287 284 279 284 283 281 287 292 293 310 315 319 322
306 306 303 301 294 298 296 293 281 276 287 284 285 291 290 288 290 296 294 293 289 286 286 292 294 299 300 294 296 292 286 277 277 277 278 285 282 284 291 294 295 310 315 316 318
305 304 298 299 299 299 295 287 276 281 283 289 291 290 286 288 290 293 292 290 294 289 289 287 286 295 300 296 291 291 287 278 275 276 278 285 280 286 295 301 306 314 315 314 316
303 293 292 295 301 301 294 279 278 283 288 289 290 285 285 289 289 289 289 289 293 294 288 288 287 298 299 298 297 289 286 289 283 284 280 282 287 295 303 307 310 311 313 313 314
294 288 289 297 301 297 289 284 286 291 291 291 286 287 283 286 286 287 287 293 293 296 299 293 286 297 298 300 299 293 294 285 283 278 277 281 285 285 295 301 307 309 310 311 311
289 284 290 297 300 289 282 284 287 292 291 289 288 287 288 287 288 288 289 291 295 296 297 296 291 291 297 295 293 293 290 289 288 283 278 279 283 295 295 301 306 309 309 309 309
291 280 291 297 283 287 284 286 290 289 293 291 293 290 286 289 287 287 286 290 298 297 291 295 289 286 289 296 300 296 292 288 284 281 282 281 282 299 298 301 303 306 307 309 309
286 284 293 294 277 278 283 284 288 289 289 290 289 293 293 289 286 289 291 296 297 296 293 296 289 284 286 293 298 294 294 293 288 286 283 280 283 303 303 302 303 304 307 307 306
288 281 284 285 284 283 281 282 283 290 289 290 289 292 289 288 291 288 288 294 298 298 302 297 289 285 284 287 293 291 293 294 290 282 284 285 293 300 300 300 303 305 306 305 304
284 281 285 278 281 283 284 284 283 283 289 291 290 290 288 285 287 285 290 291 295 299 298 292 287 290 292 296 295 294 294 292 291 291 287 290 294 299 301 301 303 303 303 302 301
287 286 286 284 285 284 284 283 282 285 285 286 286 288 288 286 288 286 288 290 290 295 296 296 288 291 289 295 295 293 295 295 294 294 295 296 295 303 303 303 301 302 302 301 302
294 294 289 285 282 282 282 283 284 286 288 290 288 287 287 290 293 293 293 293 292 291 290 292 289 288 286 293 294 290 294 295 296 297 297 292 296 302 301 302 301 302 302 301 301

GFSSW_sfc_thetae_123.txt.gz
Theta_e
314 314 314 314 314 315 315 315 315 315 315 315 316 317 317 316 316 311 303 309 311 316 316 315 318 314 308 305 304 303 296 293 294 294 297 301 301 305 306 305 306 308 320 328 350
311 312 311 311 312 312 312 313 313 314 314 315 314 315 316 316 308 304 312 315 318 318 312 308 308 310 305 304 303 300 295 295 299 300 299 301 302 303 303 304 305 308 344 346 348
311 311 311 311 311 311 311 311 312 312 312 313 313 314 314 314 300 300 316 317 320 322 314 311 310 307 303 303 301 300 295 298 298 301 302 301 301 303 302 301 305 304 314 343 345
311 311 311 311 311 311 311 311 312 311 312 311 311 311 313 308 292 302 324 317 329 325 313 307 306 303 301 298 302 296 299 300 300 302 302 300 303 301 303 304 307 306 307 312 346
310 310 310 310 310 310 310 311 311 311 311 310 310 311 308 299 298 309 319 312 322 315 310 303 301 303 299 301 300 297 299 300 302 302 301 302 301 301 302 306 308 309 309 309 315
310 310 310 310 310 310 311 311 311 310 310 310 310 311 302 291 306 309 308 308 317 314 310 307 302 304 301 300 300 301 300 300 301 301 301 299 300 301 302 307 306 307 308 309 309
311 309 310 309 310 310 311 311 310 310 310 311 311 306 299 296 306 308 307 307 312 313 309 310 307 303 303 299 302 300 297 299 300 301 299 300 297 298 303 305 305 306 307 309 310
309 309 308 309 310 310 311 310 310 310 311 311 311 304 294 306 309 306 307 304 306 310 307 309 311 306 303 303 299 297 298 293 300 299 299 299 295 300 305 304 303 305 306 308 309
309 309 308 308 308 309 310 309 310 310 312 312 305 301 294 307 303 307 307 302 304 305 306 308 310 303 302 297 294 295 291 292 295 301 301 298 297 303 305 303 303 305 307 307 309
308 309 308 307 307 309 308 308 308 309 308 308 305 296 299 296 304 307 312 306 303 302 300 299 304 298 298 295 287 290 290 292 293 297 299 297 297 299 303 303 304 306 307 307 308
306 307 308 308 308 308 306 301 295 295 297 295 296 296 297 302 308 307 310 304 304 300 292 296 295 292 295 297 296 295 293 292 295 299 298 297 298 299 303 303 304 305 306 307 308
306 306 307 308 308 307 303 295 294 296 288 295 294 294 299 301 294 298 307 300 299 295 295 292 291 298 299 298 296 295 292 292 296 298 297 298 297 301 302 304 304 305 306 307 309
307 307 307 307 307 303 298 297 301 301 289 290 294 293 295 297 292 294 299 297 296 294 293 291 294 298 298 296 294 294 292 292 292 295 297 295 295 297 300 303 304 306 308 309 310
307 307 307 307 300 300 298 301 302 302 284 285 292 296 298 301 294 302 303 297 293 292 294 293 298 296 295 295 296 291 297 294 293 293 289 296 288 295 299 300 302 305 307 308 309
306 307 307 305 299 297 300 302 303 298 273 287 292 304 301 298 297 297 307 300 293 292 294 291 293 293 293 295 298 294 298 295 294 292 291 291 289 295 298 298 301 304 307 309 310
306 307 306 301 300 302 304 301 299 284 274 286 292 292 292 294 294 297 301 304 302 295 294 293 299 299 296 300 299 299 295 295 294 292 285 291 290 292 295 298 301 307 312 316 317
306 306 302 301 298 304 302 298 283 277 288 284 287 291 291 291 292 293 294 294 292 287 287 291 293 297 301 295 299 297 292 284 282 283 284 293 289 294 298 301 303 308 316 321 324
305 304 299 300 302 302 300 290 277 283 283 289 291 290 288 291 291 293 291 290 295 292 288 284 284 293 300 297 294 293 292 285 279 281 284 290 287 293 301 303 309 317 318 318 320
304 298 297 300 303 304 294 281 281 284 287 288 288 286 287 290 291 291 290 290 293 295 287 286 287 298 299 300 299 294 289 295 289 290 286 288 292 297 303 308 314 314 314 314 316
298 293 294 299 305 301 288 283 286 288 289 288 283 288 285 287 286 288 289 293 293 297 298 293 286 294 296 302 300 296 298 288 291 282 281 287 289 292 301 305 311 311 312 312 314
295 288 296 300 304 293 282 282 285 289 290 288 287 286 287 286 288 288 289 293 295 295 298 296 292 291 295 294 294 293 291 292 293 292 285 284 289 302 303 308 310 312 312 312 312
292 285 297 300 285 287 282 284 288 288 291 290 291 290 286 288 289 288 287 291 297 297 292 297 292 286 291 296 300 298 295 294 289 288 292 292 291 306 306 311 312 310 310 311 312
288 287 298 299 280 282 285 285 287 287 287 290 287 289 291 288 286 289 291 296 297 295 294 297 290 284 288 290 295 294 296 296 296 295 291 289 293 304 308 310 309 308 309 309 311
290 283 289 291 289 284 282 283 284 289 288 289 288 291 289 286 290 287 289 294 296 296 301 299 292 288 283 285 289 291 294 295 295 291 292 293 296 299 304 304 307 308 308 309 310
291 285 288 281 284 284 285 284 283 282 288 289 289 289 286 283 284 287 290 291 294 298 298 296 289 291 291 291 290 295 294 295 293 295 291 294 298 303 305 305 307 307 307 307 307
287 286 289 285 287 284 285 283 283 284 285 284 285 287 287 284 285 283 288 288 289 293 291 292 288 291 288 294 296 294 296 296 297 297 298 298 299 308 309 307 305 305 305 305 306
294 295 289 286 285 282 283 283 284 286 287 289 287 285 286 288 291 292 292 292 291 289 289 288 287 286 286 294 294 290 295 296 297 299 300 296 303 307 304 304 305 305 307 305 304

GFSSW_sfc_thetae_126.txt.gz
Theta_e
312 312 312 312 312 312 312 312 313 313 314 314 315 315 315 315 316 313 307 314 316 319 317 315 319 317 317 313 312 311 301 299 302 301 303 306 305 309 311 309 310 312 314 323 344
311 312 311 311 311 311 311 312 312 312 312 313 314 313 314 315 310 307 317 320 319 319 313 310 311 314 311 311 310 306 302 303 307 307 305 307 306 307 306 307 308 314 331 346 346
312 312 312 311 311 311 311 311 312 312 312 311 312 312 312 314 305 306 320 321 318 320 315 312 311 312 307 310 309 307 303 308 308 308 308 307 305 308 306 305 309 310 323 346 346
311 311 311 311 311 311 311 311 312 312 311 311 310 311 312 310 296 309 321 319 321 321 320 311 308 308 305 305 309 303 308 308 309 307 306 305 308 306 307 307 310 313 312 314 346
310 310 310 310 310 310 311 311 311 311 311 311 310 310 309 302 303 313 327 318 323 325 317 308 307 307 303 306 307 305 305 308 308 308 307 307 306 305 307 310 311 312 313 314 316
310 310 310 310 309 310 310 310 311 310 310 311 310 310 305 294 309 311 311 311 315 319 316 311 307 309 305 305 304 306 306 306 307 307 308 305 306 306 307 311 310 311 312 314 316
309 309 309 309 309 309 310 310 310 310 310 311 311 308 301 300 309 312 310 311 313 315 311 314 311 306 306 303 307 305 302 304 306 306 305 307 302 303 309 310 309 310 311 313 316
309 309 308 308 308 308 310 310 309 309 311 312 311 306 296 309 312 309 310 307 309 311 316 315 314 309 305 307 303 301 302 298 304 305 306 306 299 307 311 309 309 310 310 312 314
309 309 307 307 308 309 309 309 309 310 312 312 308 304 296 311 304 309 310 304 306 308 315 313 312 308 306 300 298 300 295 296 300 306 304 303 300 307 309 310 310 311 311 311 313
308 308 308 308 308 309 308 309 310 309 311 311 308 297 302 299 305 309 314 309 306 303 305 306 305 302 301 298 292 296 296 299 299 303 303 302 301 306 308 309 309 311 312 311 312
306 308 308 308 309 308 308 307 301 302 304 297 297 299 299 303 305 305 312 307 308 303 297 302 297 294 298 301 300 301 299 298 301 304 302 302 302 305 308 309 309 310 311 311 312
307 307 308 309 308 308 308 301 299 300 293 299 299 298 300 301 294 299 307 303 302 297 299 298 293 299 302 301 300 299 298 298 301 303 301 302 301 305 307 307 309 310 311 312 313
307 308 308 308 307 307 305 302 306 305 294 294 297 296 298 300 295 297 301 300 297 295 296 295 296 300 299 299 297 298 297 298 297 301 302 301 299 303 306 308 310 311 312 313 313
307 307 308 307 304 307 304 307 308 305 286 289 293 299 301 302 296 305 306 300 296 293 295 295 300 297 297 296 299 295 301 300 298 296 292 300 292 300 304 305 307 310 311 312 313
307 308 307 306 305 303 305 307 308 301 277 291 295 306 303 299 300 300 308 301 294 293 294 292 294 294 293 296 299 297 302 300 298 296 297 296 293 300 304 302 305 308 310 312 314
307 307 306 306 307 306 309 307 304 285 277 288 294 294 294 297 297 299 300 306 303 296 296 295 300 297 297 298 299 301 298 298 299 296 290 296 294 296 300 303 306 309 310 312 313
307 306 305 304 299 306 309 302 285 280 291 286 289 293 293 292 294 297 295 295 293 289 289 293 295 299 300 296 299 298 294 286 285 286 287 297 295 298 305 306 308 308 310 312 314
305 305 305 304 306 309 305 291 280 286 286 291 291 291 290 294 294 295 294 292 296 295 291 288 285 293 299 297 295 296 296 289 283 285 288 297 291 297 305 307 309 311 313 318 323
304 304 302 303 307 308 295 285 282 284 287 286 288 289 289 291 290 291 293 293 295 297 290 288 288 298 300 300 300 295 292 298 292 295 291 293 297 303 305 305 310 314 320 323 323
302 300 298 304 307 303 293 283 286 291 289 288 283 288 284 288 289 290 292 295 295 297 300 294 287 296 298 300 300 298 301 291 291 285 285 291 294 295 301 305 313 316 317 317 319
301 295 300 305 304 296 284 284 288 291 291 288 287 285 287 286 288 290 291 293 296 296 298 295 292 291 294 293 291 295 294 295 295 294 289 288 292 305 303 308 312 315 313 314 316
298 289 302 303 291 291 285 288 290 290 292 290 290 289 287 289 288 289 289 293 299 297 291 297 294 289 291 297 296 296 296 297 291 290 294 294 294 311 308 311 316 312 314 314 315
294 294 303 301 285 285 289 288 290 290 290 289 288 292 291 289 286 291 293 298 299 296 293 295 293 288 289 292 298 289 296 297 299 299 293 291 297 308 313 313 314 311 312 313 314
294 288 295 296 294 286 285 287 287 293 291 291 291 293 291 290 291 289 290 294 297 296 301 301 295 291 287 288 292 292 294 296 296 292 294 295 298 304 308 308 309 310 311 313 314
294 289 290 286 288 287 289 289 287 285 291 292 290 290 288 284 286 288 292 292 294 297 297 293 289 294 294 294 292 291 294 295 295 297 293 298 300 304 306 306 309 311 312 312 312
291 288 290 287 289 288 290 289 287 287 287 287 288 290 289 284 285 283 287 287 287 295 292 294 289 292 291 293 293 291 295 297 297 297 298 301 302 311 312 311 310 310 310 310 310
296 295 290 288 288 287 289 287 287 289 290 291 288 286 287 289 292 292 291 290 290 289 288 288 289 287 286 290 293 288 297 296 298 300 300 296 306 311 306 307 309 309 310 309 309

GFSSW_sfc_thetae_129.txt.gz
Theta_e
312 312 312 312 312 312 312 312 312 313 313 313 314 314 314 315 315 313 308 317 319 324 317 319 319 315 316 315 316 315 304 302 304 305 307 312 309 313 314 312 313 315 316 324 343
312 312 312 312 312 312 312 312 312 312 312 312 313 313 313 314 310 308 318 329 327 320 315 310 309 315 309 310 314 310 304 305 310 311 310 312 310 310 309 309 310 312 316 319 336
311 312 311 311 311 311 311 312 312 312 312 312 312 312 312 313 306 310 323 321 326 320 314 312 312 313 310 311 312 310 304 309 310 312 313 311 311 311 309 307 310 310 315 327 337
311 311 311 311 311 311 311 311 311 312 312 312 311 312 312 310 298 318 323 322 321 319 314 311 310 307 307 306 311 306 309 310 310 313 311 309 311 310 310 310 314 314 317 331 339
310 310 310 310 310 310 310 311 311 311 311 311 311 311 310 303 304 317 324 323 323 318 314 315 311 307 305 308 308 307 309 311 311 311 312 312 309 309 310 313 314 314 316 317 321
310 309 309 309 309 310 311 311 311 311 310 311 310 311 307 297 313 313 319 316 317 322 319 319 311 311 308 308 307 310 309 309 310 310 311 309 308 309 311 314 313 313 313 315 320
310 309 308 308 309 310 311 310 310 311 310 311 311 308 304 302 311 313 312 312 313 314 318 320 317 310 310 307 311 309 305 308 309 309 308 310 305 306 312 313 312 312 313 314 318
308 309 308 308 308 309 310 311 310 310 311 311 313 307 298 310 313 310 311 311 312 314 315 317 317 313 309 310 308 304 305 300 307 309 308 308 301 309 312 312 311 312 313 313 316
308 309 308 308 309 310 310 310 310 311 312 313 309 305 299 314 307 310 310 306 309 309 309 313 315 309 309 303 300 303 297 300 303 310 308 306 302 309 313 311 311 312 313 312 316
308 308 309 309 310 310 309 309 312 312 312 314 312 301 305 302 306 309 313 311 307 307 304 305 307 304 303 301 293 297 298 300 302 307 308 305 304 309 312 311 312 312 313 313 313
308 308 308 309 309 308 309 311 304 303 308 300 298 298 300 304 306 304 306 307 307 304 297 301 299 296 300 302 303 302 301 301 304 307 306 304 305 307 310 311 311 312 313 314 313
307 308 309 309 309 308 309 304 303 303 295 301 300 301 303 304 297 300 305 302 301 296 300 297 294 300 302 303 301 301 299 300 305 308 306 305 303 308 309 310 312 312 313 315 315
308 308 308 308 308 309 307 304 309 308 295 296 300 298 301 305 299 299 303 299 297 295 296 294 297 301 300 298 298 299 298 299 300 305 306 304 302 304 309 310 312 313 315 316 316
308 308 308 308 306 307 304 308 310 307 288 292 296 300 303 304 298 306 307 301 297 295 297 296 300 298 298 296 299 294 302 301 301 300 296 304 294 302 306 307 309 311 313 314 316
307 308 308 307 307 303 303 308 309 303 280 293 296 308 303 298 301 301 308 304 295 295 296 293 296 296 294 297 299 296 302 301 301 299 299 299 295 300 306 304 307 310 312 314 316
307 308 307 307 306 305 309 308 308 286 278 291 297 295 296 298 299 302 300 306 304 296 298 296 301 299 297 300 300 302 299 300 301 299 293 298 297 298 301 305 307 310 312 314 315
307 306 306 307 300 308 310 303 287 280 293 289 290 294 294 293 297 297 298 295 294 288 288 294 295 299 300 297 299 298 296 288 286 288 289 299 297 299 306 309 309 310 311 314 316
306 305 309 305 308 309 307 295 281 288 288 293 292 294 288 294 295 296 296 294 298 296 293 289 288 295 301 298 295 295 295 290 284 286 290 299 294 300 308 311 312 312 313 314 315
304 308 305 306 309 310 300 287 285 287 290 289 291 288 290 292 292 294 294 294 295 297 290 290 290 299 301 300 299 294 292 300 292 294 292 295 299 305 308 307 310 311 312 313 314
305 304 302 308 310 306 296 286 290 293 293 291 284 289 286 290 291 293 293 296 296 300 301 296 290 297 299 300 300 297 300 291 293 284 284 292 294 296 303 305 308 309 311 313 315
305 299 304 309 308 301 288 288 292 295 295 290 288 286 288 289 290 292 291 295 297 298 299 297 291 291 298 295 295 296 294 295 296 293 288 288 295 306 305 307 307 310 318 323 324
303 295 305 307 296 296 291 292 294 294 297 293 293 291 289 292 290 291 291 294 299 297 292 295 290 290 291 298 302 301 294 298 291 290 294 292 294 308 309 309 313 320 320 318 320
298 298 308 305 290 291 294 293 295 295 294 292 290 292 294 292 287 292 294 299 299 296 294 295 291 286 289 294 294 290 297 299 298 298 291 291 294 310 309 311 318 314 314 316 318
298 293 297 299 298 293 291 292 292 297 294 294 292 294 293 292 293 290 292 296 298 297 299 298 295 290 285 289 293 289 293 298 299 294 293 292 297 305 311 314 312 311 314 316 318
298 294 293 289 291 293 295 294 292 290 292 293 291 292 290 285 288 290 292 293 295 297 298 294 291 294 295 295 295 294 293 296 297 296 292 298 298 303 313 310 310 312 314 315 317
295 293 295 289 293 295 294 293 291 291 292 291 290 291 291 285 287 284 289 288 287 295 294 295 291 294 291 296 293 294 295 297 299 299 298 295 300 312 311 311 310 311 313 313 313
299 298 292 290 294 293 294 293 292 294 294 293 291 289 289 292 293 293 293 292 291 288 288 288 289 287 288 294 291 288 296 297 299 301 300 294 299 310 307 308 309 311 311 311 311